Time,TemperatureF,DewpointF,PressureIn,WindDirection,WindDirectionDegrees,WindSpeedMPH,WindSpeedGustMPH,Humidity,HourlyPrecipIn,Conditions,Clouds,dailyrainin,SolarRadiationWatts/m^2,SoftwareType,DateUTC
2013-03-17 00:00:00,36.0,36.0,29.32,North,0,0.0,0.0,100,0.00,,,0.00,0,MyOwnSoftware,2013-03-17 00:00:00,
2013-03-17 00:01:00,36.0,36.0,29.32,North,0,0.0,0.0,100,0.00,,,0.00,0,MyOwnSoftware,2013-03-17 00:01:00,
2013-03-17 00:02:00,36.0,36.0,29.32,South,191,0.0,-999.0,100,-99.99,,,0.00,0,weatherlink.com 1.10,2013-03-17 00:02:00,
2013-03-17 00:03:00,36.0,36.0,29.32,North,0,0.0,0.0,100,0.00,,,0.00,0,MyOwnSoftware,2013-03-17 00:03:00,
2013-03-17 00:04:00,36.0,36.0,29.32,North,0,0.0,0.0,100,0.00,,,0.00,0,MyOwnSoftware,2013-03-17 00:04:00,
2013-03-17 00:05:00,36.0,36.0,29.32,North,0,0.0,0.0,100,0.00,,,0.00,0,MyOwnSoftware,2013-03-17 00:05:00,
2013-03-17 00:09:00,35.9,35.9,29.32,North,0,0.0,0.0,100,0.00,,,0.00,0,MyOwnSoftware,2013-03-17 00:09:00,
2013-03-17 00:10:00,35.9,35.9,29.32,North,0,0.0,0.0,100,0.00,,,0.00,0,MyOwnSoftware,2013-03-17 00:10:00,
2013-03-17 00:11:00,35.9,35.9,29.32,North,0,0.0,0.0,100,0.00,,,0.00,0,MyOwnSoftware,2013-03-17 00:11:00,
2013-03-17 00:12:00,35.9,35.9,29.32,North,0,0.0,0.0,100,0.00,,,0.00,0,MyOwnSoftware,2013-03-17 00:12:00,
2013-03-17 00:13:00,35.9,35.9,29.32,North,0,0.0,0.0,100,0.00,,,0.00,0,MyOwnSoftware,2013-03-17 00:13:00,
2013-03-17 00:14:00,35.9,35.9,29.32,North,0,0.0,0.0,100,0.00,,,0.00,0,MyOwnSoftware,2013-03-17 00:14:00,
2013-03-17 00:15:00,36.0,36.0,29.32,North,0,0.0,0.0,100,0.00,,,0.00,0,MyOwnSoftware,2013-03-17 00:15:00,
2013-03-17 00:16:00,35.8,35.8,29.32,North,0,0.0,0.0,100,0.00,,,0.00,0,MyOwnSoftware,2013-03-17 00:16:00,
2013-03-17 00:17:00,35.8,35.8,29.32,North,0,0.0,0.0,100,0.00,,,0.00,0,MyOwnSoftware,2013-03-17 00:17:00,
2013-03-17 00:18:00,35.8,35.8,29.32,North,0,0.0,0.0,100,0.00,,,0.00,0,MyOwnSoftware,2013-03-17 00:18:00,
2013-03-17 00:19:00,35.8,35.8,29.32,North,0,0.0,0.0,100,0.00,,,0.00,0,MyOwnSoftware,2013-03-17 00:19:00,
2013-03-17 00:20:00,35.8,35.8,29.32,North,0,0.0,0.0,100,0.00,,,0.00,0,MyOwnSoftware,2013-03-17 00:20:00,
2013-03-17 00:21:00,35.8,35.8,29.32,North,0,0.0,0.0,100,0.00,,,0.00,0,MyOwnSoftware,2013-03-17 00:21:00,
2013-03-17 00:22:00,35.8,35.8,29.32,North,0,0.0,0.0,100,0.00,,,0.00,0,MyOwnSoftware,2013-03-17 00:22:00,
2013-03-17 00:23:00,35.8,35.8,29.32,North,0,0.0,0.0,100,0.00,,,0.00,0,MyOwnSoftware,2013-03-17 00:23:00,
2013-03-17 00:24:00,35.8,35.8,29.32,North,0,0.0,0.0,100,0.00,,,0.00,0,MyOwnSoftware,2013-03-17 00:24:00,
2013-03-17 00:25:00,35.8,35.8,29.32,North,0,0.0,0.0,100,0.00,,,0.00,0,MyOwnSoftware,2013-03-17 00:25:00,
2013-03-17 00:29:00,35.6,35.6,29.32,North,0,0.0,0.0,100,0.00,,,0.00,0,MyOwnSoftware,2013-03-17 00:29:00,
2013-03-17 00:30:00,35.6,35.6,29.32,North,0,0.0,0.0,100,0.00,,,0.00,0,MyOwnSoftware,2013-03-17 00:30:00,
2013-03-17 00:31:00,35.6,35.6,29.32,North,0,0.0,0.0,100,0.00,,,0.00,0,MyOwnSoftware,2013-03-17 00:31:00,
2013-03-17 00:32:00,35.6,36.0,29.32,South,191,0.0,-999.0,100,-99.99,,,0.00,0,weatherlink.com 1.10,2013-03-17 00:32:00,
2013-03-17 00:33:00,35.5,35.5,29.32,North,0,0.0,0.0,100,0.00,,,0.00,0,MyOwnSoftware,2013-03-17 00:33:00,
2013-03-17 00:34:00,35.5,35.5,29.32,North,0,0.0,0.0,100,0.00,,,0.00,0,MyOwnSoftware,2013-03-17 00:34:00,
2013-03-17 00:35:00,35.5,35.5,29.32,North,0,0.0,0.0,100,0.00,,,0.00,0,MyOwnSoftware,2013-03-17 00:35:00,
2013-03-17 00:39:00,35.3,35.3,29.32,North,0,0.0,0.0,100,0.00,,,0.00,0,MyOwnSoftware,2013-03-17 00:39:00,
2013-03-17 00:40:00,35.3,35.3,29.32,North,0,0.0,0.0,100,0.00,,,0.00,0,MyOwnSoftware,2013-03-17 00:40:00,
2013-03-17 00:41:00,35.3,35.3,29.32,North,0,0.0,0.0,100,0.00,,,0.00,0,MyOwnSoftware,2013-03-17 00:41:00,
2013-03-17 00:42:00,35.3,35.3,29.32,North,0,0.0,0.0,100,0.00,,,0.00,0,MyOwnSoftware,2013-03-17 00:42:00,
2013-03-17 00:43:00,35.3,35.3,29.32,North,0,0.0,0.0,100,0.00,,,0.00,0,MyOwnSoftware,2013-03-17 00:43:00,
2013-03-17 00:44:00,35.3,35.3,29.32,North,0,0.0,0.0,100,0.00,,,0.00,0,MyOwnSoftware,2013-03-17 00:44:00,
2013-03-17 00:45:00,35.5,35.5,29.32,North,0,0.0,0.0,100,0.00,,,0.00,0,MyOwnSoftware,2013-03-17 00:45:00,
2013-03-17 00:49:00,35.2,35.2,29.31,North,0,0.0,0.0,100,0.00,,,0.00,0,MyOwnSoftware,2013-03-17 00:49:00,
2013-03-17 00:50:00,35.2,35.2,29.31,North,0,0.0,0.0,100,0.00,,,0.00,0,MyOwnSoftware,2013-03-17 00:50:00,
2013-03-17 00:51:00,35.2,35.2,29.31,North,0,0.0,0.0,100,0.00,,,0.00,0,MyOwnSoftware,2013-03-17 00:51:00,
2013-03-17 00:52:00,35.0,35.0,29.31,North,0,0.0,0.0,100,0.00,,,0.00,0,MyOwnSoftware,2013-03-17 00:52:00,
2013-03-17 00:53:00,35.0,35.0,29.31,North,0,0.0,0.0,100,0.00,,,0.00,0,MyOwnSoftware,2013-03-17 00:53:00,
2013-03-17 00:54:00,35.0,35.0,29.31,North,0,0.0,0.0,100,0.00,,,0.00,0,MyOwnSoftware,2013-03-17 00:54:00,
2013-03-17 00:55:00,35.2,35.2,29.31,North,0,0.0,0.0,100,0.00,,,0.00,0,MyOwnSoftware,2013-03-17 00:55:00,
2013-03-17 00:56:00,35.0,35.0,29.31,North,0,0.0,0.0,100,0.00,,,0.00,0,MyOwnSoftware,2013-03-17 00:56:00,
2013-03-17 00:57:00,35.0,35.0,29.31,North,0,0.0,0.0,100,0.00,,,0.00,0,MyOwnSoftware,2013-03-17 00:57:00,
2013-03-17 00:58:00,35.0,35.0,29.31,North,0,0.0,0.0,100,0.00,,,0.00,0,MyOwnSoftware,2013-03-17 00:58:00,
2013-03-17 00:59:00,35.0,35.0,29.31,North,0,0.0,0.0,100,0.00,,,0.00,0,MyOwnSoftware,2013-03-17 00:59:00,
2013-03-17 01:00:00,35.0,35.0,29.32,North,0,0.0,0.0,100,0.00,,,0.00,0,MyOwnSoftware,2013-03-17 01:00:00,
2013-03-17 01:01:00,35.0,35.0,29.32,North,0,0.0,0.0,100,0.00,,,0.00,0,MyOwnSoftware,2013-03-17 01:01:00,
2013-03-17 01:02:00,35.0,35.0,29.32,South,191,0.0,-999.0,100,-99.99,,,0.00,0,weatherlink.com 1.10,2013-03-17 01:02:00,
2013-03-17 01:03:00,35.0,35.0,29.32,North,0,0.0,0.0,100,0.00,,,0.00,0,MyOwnSoftware,2013-03-17 01:03:00,
2013-03-17 01:04:00,35.0,35.0,29.32,South,180,0.0,1.0,100,0.00,,,0.00,0,MyOwnSoftware,2013-03-17 01:04:00,
2013-03-17 01:05:00,34.9,34.9,29.32,South,180,0.0,1.0,100,0.00,,,0.00,0,MyOwnSoftware,2013-03-17 01:05:00,
2013-03-17 01:09:00,34.9,34.9,29.32,South,180,0.0,1.0,100,0.00,,,0.00,0,MyOwnSoftware,2013-03-17 01:09:00,
2013-03-17 01:10:00,34.9,34.9,29.32,South,180,0.0,1.0,100,0.00,,,0.00,0,MyOwnSoftware,2013-03-17 01:10:00,
2013-03-17 01:11:00,34.9,34.9,29.32,North,0,0.0,0.0,100,0.00,,,0.00,0,MyOwnSoftware,2013-03-17 01:11:00,
2013-03-17 01:12:00,34.9,34.9,29.32,North,0,0.0,0.0,100,0.00,,,0.00,0,MyOwnSoftware,2013-03-17 01:12:00,
2013-03-17 01:13:00,34.9,34.9,29.32,North,0,0.0,0.0,100,0.00,,,0.00,0,MyOwnSoftware,2013-03-17 01:13:00,
2013-03-17 01:14:00,34.9,34.9,29.32,North,0,0.0,0.0,100,0.00,,,0.00,0,MyOwnSoftware,2013-03-17 01:14:00,
2013-03-17 01:15:00,34.9,34.9,29.32,South,180,1.0,2.0,100,0.00,,,0.00,0,MyOwnSoftware,2013-03-17 01:15:00,
2013-03-17 01:16:00,34.9,34.9,29.31,North,0,0.0,0.0,100,0.00,,,0.00,0,MyOwnSoftware,2013-03-17 01:16:00,
2013-03-17 01:17:00,34.9,34.9,29.31,North,0,0.0,0.0,100,0.00,,,0.00,0,MyOwnSoftware,2013-03-17 01:17:00,
2013-03-17 01:18:00,34.9,34.9,29.31,North,0,0.0,0.0,100,0.00,,,0.00,0,MyOwnSoftware,2013-03-17 01:18:00,
2013-03-17 01:19:00,34.9,34.9,29.31,North,0,0.0,0.0,100,0.00,,,0.00,0,MyOwnSoftware,2013-03-17 01:19:00,
2013-03-17 01:20:00,34.9,34.9,29.31,North,0,0.0,0.0,100,0.00,,,0.00,0,MyOwnSoftware,2013-03-17 01:20:00,
2013-03-17 01:21:00,34.9,34.9,29.31,North,0,0.0,0.0,100,0.00,,,0.00,0,MyOwnSoftware,2013-03-17 01:21:00,
2013-03-17 01:22:00,34.9,34.9,29.31,North,0,0.0,0.0,100,0.00,,,0.00,0,MyOwnSoftware,2013-03-17 01:22:00,
2013-03-17 01:23:00,34.9,34.9,29.31,North,0,0.0,0.0,100,0.00,,,0.00,0,MyOwnSoftware,2013-03-17 01:23:00,
2013-03-17 01:24:00,34.7,34.7,29.31,North,0,0.0,0.0,100,0.00,,,0.00,0,MyOwnSoftware,2013-03-17 01:24:00,
2013-03-17 01:25:00,34.7,34.7,29.31,North,0,0.0,0.0,100,0.00,,,0.00,0,MyOwnSoftware,2013-03-17 01:25:00,
2013-03-17 01:26:00,34.7,34.7,29.31,North,0,0.0,0.0,100,0.00,,,0.00,0,MyOwnSoftware,2013-03-17 01:26:00,
2013-03-17 01:27:00,34.7,34.7,29.31,North,0,0.0,0.0,100,0.00,,,0.00,0,MyOwnSoftware,2013-03-17 01:27:00,
2013-03-17 01:28:00,34.7,34.7,29.31,North,0,0.0,0.0,100,0.00,,,0.00,0,MyOwnSoftware,2013-03-17 01:28:00,
2013-03-17 01:29:00,34.7,34.7,29.31,North,0,0.0,0.0,100,0.00,,,0.00,0,MyOwnSoftware,2013-03-17 01:29:00,
2013-03-17 01:30:00,34.7,34.7,29.31,North,0,0.0,0.0,100,0.00,,,0.00,0,MyOwnSoftware,2013-03-17 01:30:00,
2013-03-17 01:31:00,34.7,34.7,29.31,North,0,0.0,0.0,100,0.00,,,0.00,0,MyOwnSoftware,2013-03-17 01:31:00,
2013-03-17 01:32:00,34.7,35.0,29.31,South,191,0.0,-999.0,100,-99.99,,,0.00,0,weatherlink.com 1.10,2013-03-17 01:32:00,
2013-03-17 01:33:00,34.6,34.6,29.31,North,0,0.0,0.0,100,0.00,,,0.00,0,MyOwnSoftware,2013-03-17 01:33:00,
2013-03-17 01:34:00,34.6,34.6,29.31,North,0,0.0,0.0,100,0.00,,,0.00,0,MyOwnSoftware,2013-03-17 01:34:00,
2013-03-17 01:35:00,34.6,34.6,29.31,North,0,0.0,0.0,100,0.00,,,0.00,0,MyOwnSoftware,2013-03-17 01:35:00,
2013-03-17 01:36:00,34.6,34.6,29.31,North,0,0.0,0.0,100,0.00,,,0.00,0,MyOwnSoftware,2013-03-17 01:36:00,
2013-03-17 01:37:00,34.6,34.6,29.31,North,0,0.0,0.0,100,0.00,,,0.00,0,MyOwnSoftware,2013-03-17 01:37:00,
2013-03-17 01:38:00,34.6,34.6,29.31,North,0,0.0,0.0,100,0.00,,,0.00,0,MyOwnSoftware,2013-03-17 01:38:00,
2013-03-17 01:39:00,34.4,34.4,29.31,North,0,0.0,0.0,100,0.00,,,0.00,0,MyOwnSoftware,2013-03-17 01:39:00,
2013-03-17 01:40:00,34.4,34.4,29.31,South,180,0.0,1.0,100,0.00,,,0.00,0,MyOwnSoftware,2013-03-17 01:40:00,
2013-03-17 01:41:00,34.4,34.4,29.31,South,180,1.0,2.0,100,0.00,,,0.00,0,MyOwnSoftware,2013-03-17 01:41:00,
2013-03-17 01:42:00,34.4,34.4,29.31,North,0,0.0,0.0,100,0.00,,,0.00,0,MyOwnSoftware,2013-03-17 01:42:00,
2013-03-17 01:43:00,34.4,34.4,29.31,North,0,0.0,0.0,100,0.00,,,0.00,0,MyOwnSoftware,2013-03-17 01:43:00,
2013-03-17 01:44:00,34.4,34.4,29.31,South,180,1.0,2.0,100,0.00,,,0.00,0,MyOwnSoftware,2013-03-17 01:44:00,
2013-03-17 01:45:00,34.4,34.4,29.31,South,180,0.0,1.0,100,0.00,,,0.00,0,MyOwnSoftware,2013-03-17 01:45:00,
2013-03-17 01:46:00,34.3,34.3,29.31,South,180,1.0,2.0,100,0.00,,,0.00,0,MyOwnSoftware,2013-03-17 01:46:00,
2013-03-17 01:47:00,34.3,34.0,29.31,South,191,2.0,-999.0,100,-99.99,,,0.00,0,weatherlink.com 1.10,2013-03-17 01:47:00,
2013-03-17 01:48:00,34.3,34.3,29.31,South,180,2.0,3.0,100,0.00,,,0.00,0,MyOwnSoftware,2013-03-17 01:48:00,
2013-03-17 01:49:00,34.3,34.3,29.31,South,180,1.0,2.0,100,0.00,,,0.00,0,MyOwnSoftware,2013-03-17 01:49:00,
2013-03-17 01:50:00,34.3,34.3,29.31,South,180,1.0,2.0,100,0.00,,,0.00,0,MyOwnSoftware,2013-03-17 01:50:00,
2013-03-17 01:51:00,34.1,34.1,29.31,South,180,0.0,1.0,100,0.00,,,0.00,0,MyOwnSoftware,2013-03-17 01:51:00,
2013-03-17 01:52:00,34.1,34.1,29.31,South,180,1.0,2.0,100,0.00,,,0.00,0,MyOwnSoftware,2013-03-17 01:52:00,
2013-03-17 01:53:00,34.1,34.1,29.31,South,180,1.0,2.0,100,0.00,,,0.00,0,MyOwnSoftware,2013-03-17 01:53:00,
2013-03-17 01:54:00,34.1,34.1,29.31,South,180,0.0,1.0,100,0.00,,,0.00,0,MyOwnSoftware,2013-03-17 01:54:00,
2013-03-17 01:55:00,34.1,34.1,29.31,South,180,2.0,2.0,100,0.00,,,0.00,0,MyOwnSoftware,2013-03-17 01:55:00,
2013-03-17 01:56:00,34.3,34.3,29.31,South,180,1.0,2.0,100,0.00,,,0.00,0,MyOwnSoftware,2013-03-17 01:56:00,
2013-03-17 01:57:00,34.3,34.3,29.31,South,180,1.0,2.0,100,0.00,,,0.00,0,MyOwnSoftware,2013-03-17 01:57:00,
2013-03-17 01:58:00,34.3,34.3,29.31,South,180,0.0,1.0,100,0.00,,,0.00,0,MyOwnSoftware,2013-03-17 01:58:00,
2013-03-17 01:59:00,34.3,34.3,29.31,South,180,1.0,2.0,100,0.00,,,0.00,0,MyOwnSoftware,2013-03-17 01:59:00,
2013-03-17 02:00:00,34.3,34.3,29.30,South,180,2.0,3.0,100,0.00,,,0.00,0,MyOwnSoftware,2013-03-17 02:00:00,
2013-03-17 02:01:00,34.3,34.3,29.30,South,180,2.0,2.0,100,0.00,,,0.00,0,MyOwnSoftware,2013-03-17 02:01:00,
2013-03-17 02:02:00,34.3,34.0,29.30,SSE,168,1.0,-999.0,100,-99.99,,,0.00,0,weatherlink.com 1.10,2013-03-17 02:02:00,
2013-03-17 02:03:00,34.3,34.3,29.30,SSE,158,2.0,3.0,100,0.00,,,0.00,0,MyOwnSoftware,2013-03-17 02:03:00,
2013-03-17 02:04:00,34.3,34.3,29.30,ESE,112,2.0,2.0,100,0.00,,,0.00,0,MyOwnSoftware,2013-03-17 02:04:00,
2013-03-17 02:05:00,34.3,34.3,29.30,ESE,112,1.0,2.0,100,0.00,,,0.00,0,MyOwnSoftware,2013-03-17 02:05:00,
2013-03-17 02:06:00,34.3,34.3,29.30,ESE,112,0.0,1.0,100,0.00,,,0.00,0,MyOwnSoftware,2013-03-17 02:06:00,
2013-03-17 02:07:00,34.4,34.4,29.30,North,0,0.0,0.0,100,0.00,,,0.00,0,MyOwnSoftware,2013-03-17 02:07:00,
2013-03-17 02:08:00,34.4,34.4,29.30,North,0,0.0,0.0,100,0.00,,,0.00,0,MyOwnSoftware,2013-03-17 02:08:00,
2013-03-17 02:09:00,34.4,34.4,29.30,North,0,0.0,0.0,100,0.00,,,0.00,0,MyOwnSoftware,2013-03-17 02:09:00,
2013-03-17 02:10:00,34.4,34.4,29.30,North,0,0.0,0.0,100,0.00,,,0.00,0,MyOwnSoftware,2013-03-17 02:10:00,
2013-03-17 02:11:00,34.6,34.6,29.30,ESE,112,1.0,2.0,100,0.00,,,0.00,0,MyOwnSoftware,2013-03-17 02:11:00,
2013-03-17 02:12:00,34.6,34.6,29.30,ESE,112,1.0,2.0,100,0.00,,,0.00,0,MyOwnSoftware,2013-03-17 02:12:00,
2013-03-17 02:13:00,34.6,34.6,29.30,ESE,112,1.0,1.0,100,0.00,,,0.00,0,MyOwnSoftware,2013-03-17 02:13:00,
2013-03-17 02:14:00,34.6,34.6,29.30,ESE,112,1.0,2.0,100,0.00,,,0.00,0,MyOwnSoftware,2013-03-17 02:14:00,
2013-03-17 02:15:00,34.6,34.6,29.30,ESE,112,1.0,2.0,100,0.00,,,0.00,0,MyOwnSoftware,2013-03-17 02:15:00,
2013-03-17 02:16:00,34.7,34.7,29.30,ESE,112,1.0,3.0,100,0.00,,,0.00,0,MyOwnSoftware,2013-03-17 02:16:00,
2013-03-17 02:17:00,34.7,35.0,29.30,ESE,102,2.0,-999.0,100,-99.99,,,0.00,0,weatherlink.com 1.10,2013-03-17 02:17:00,
2013-03-17 02:18:00,34.7,34.7,29.30,ESE,112,1.0,2.0,100,0.00,,,0.00,0,MyOwnSoftware,2013-03-17 02:18:00,
2013-03-17 02:19:00,34.7,34.7,29.30,ESE,112,1.0,2.0,100,0.00,,,0.00,0,MyOwnSoftware,2013-03-17 02:19:00,
2013-03-17 02:20:00,34.7,34.7,29.30,ESE,112,1.0,2.0,100,0.00,,,0.00,0,MyOwnSoftware,2013-03-17 02:20:00,
2013-03-17 02:21:00,34.7,34.7,29.30,ESE,112,1.0,2.0,100,0.00,,,0.00,0,MyOwnSoftware,2013-03-17 02:21:00,
2013-03-17 02:22:00,34.9,34.9,29.30,ESE,112,0.0,1.0,100,0.00,,,0.00,0,MyOwnSoftware,2013-03-17 02:22:00,
2013-03-17 02:23:00,34.9,34.9,29.30,North,0,0.0,0.0,100,0.00,,,0.00,0,MyOwnSoftware,2013-03-17 02:23:00,
2013-03-17 02:24:00,34.9,34.9,29.30,North,0,0.0,0.0,100,0.00,,,0.00,0,MyOwnSoftware,2013-03-17 02:24:00,
2013-03-17 02:25:00,34.9,34.9,29.30,North,0,0.0,0.0,100,0.00,,,0.00,0,MyOwnSoftware,2013-03-17 02:25:00,
2013-03-17 02:26:00,34.9,34.9,29.30,North,0,0.0,0.0,100,0.00,,,0.00,0,MyOwnSoftware,2013-03-17 02:26:00,
2013-03-17 02:27:00,34.9,34.9,29.30,North,0,0.0,0.0,100,0.00,,,0.00,0,MyOwnSoftware,2013-03-17 02:27:00,
2013-03-17 02:28:00,34.9,34.9,29.30,North,0,0.0,0.0,100,0.00,,,0.00,0,MyOwnSoftware,2013-03-17 02:28:00,
2013-03-17 02:29:00,34.9,34.9,29.30,North,0,0.0,0.0,100,0.00,,,0.00,0,MyOwnSoftware,2013-03-17 02:29:00,
2013-03-17 02:30:00,34.9,34.9,29.30,North,0,0.0,0.0,100,0.00,,,0.00,0,MyOwnSoftware,2013-03-17 02:30:00,
2013-03-17 02:31:00,34.9,34.9,29.30,North,0,0.0,0.0,100,0.00,,,0.00,0,MyOwnSoftware,2013-03-17 02:31:00,
2013-03-17 02:32:00,35.0,35.0,29.30,ESE,102,0.0,-999.0,100,-99.99,,,0.00,0,weatherlink.com 1.10,2013-03-17 02:32:00,
2013-03-17 02:33:00,35.0,35.0,29.30,North,0,0.0,0.0,100,0.00,,,0.00,0,MyOwnSoftware,2013-03-17 02:33:00,
2013-03-17 02:34:00,35.0,35.0,29.30,North,0,0.0,0.0,100,0.00,,,0.00,0,MyOwnSoftware,2013-03-17 02:34:00,
2013-03-17 02:35:00,35.0,35.0,29.30,ESE,112,0.0,1.0,100,0.00,,,0.00,0,MyOwnSoftware,2013-03-17 02:35:00,
2013-03-17 02:36:00,35.0,35.0,29.30,ESE,112,1.0,2.0,100,0.00,,,0.00,0,MyOwnSoftware,2013-03-17 02:36:00,
2013-03-17 02:37:00,35.0,35.0,29.30,North,0,0.0,0.0,100,0.00,,,0.00,0,MyOwnSoftware,2013-03-17 02:37:00,
2013-03-17 02:38:00,35.0,35.0,29.30,North,0,0.0,0.0,100,0.00,,,0.00,0,MyOwnSoftware,2013-03-17 02:38:00,
2013-03-17 02:39:00,34.9,34.9,29.30,North,0,0.0,0.0,100,0.00,,,0.00,0,MyOwnSoftware,2013-03-17 02:39:00,
2013-03-17 02:40:00,34.9,34.9,29.30,North,0,0.0,0.0,100,0.00,,,0.00,0,MyOwnSoftware,2013-03-17 02:40:00,
2013-03-17 02:41:00,34.9,34.9,29.30,North,0,0.0,0.0,100,0.00,,,0.00,0,MyOwnSoftware,2013-03-17 02:41:00,
2013-03-17 02:42:00,34.9,34.9,29.30,North,0,0.0,0.0,100,0.00,,,0.00,0,MyOwnSoftware,2013-03-17 02:42:00,
2013-03-17 02:43:00,34.9,34.9,29.30,ESE,112,0.0,1.0,100,0.00,,,0.00,0,MyOwnSoftware,2013-03-17 02:43:00,
2013-03-17 02:44:00,34.9,34.9,29.30,ESE,112,1.0,2.0,100,0.00,,,0.00,0,MyOwnSoftware,2013-03-17 02:44:00,
2013-03-17 02:45:00,34.9,34.9,29.29,ESE,112,0.0,1.0,100,0.00,,,0.00,0,MyOwnSoftware,2013-03-17 02:45:00,
2013-03-17 02:46:00,34.9,34.9,29.29,ESE,112,1.0,2.0,100,0.00,,,0.00,0,MyOwnSoftware,2013-03-17 02:46:00,
2013-03-17 02:47:00,34.9,35.0,29.29,ESE,102,0.0,-999.0,100,-99.99,,,0.00,0,weatherlink.com 1.10,2013-03-17 02:47:00,
2013-03-17 02:48:00,34.9,34.9,29.29,ESE,112,0.0,1.0,100,0.00,,,0.00,0,MyOwnSoftware,2013-03-17 02:48:00,
2013-03-17 02:49:00,34.9,34.9,29.29,ESE,112,0.0,2.0,100,0.00,,,0.00,0,MyOwnSoftware,2013-03-17 02:49:00,
2013-03-17 02:50:00,34.9,34.9,29.29,ESE,112,1.0,2.0,100,0.00,,,0.00,0,MyOwnSoftware,2013-03-17 02:50:00,
2013-03-17 02:51:00,34.9,34.9,29.29,ESE,112,1.0,3.0,100,0.00,,,0.00,0,MyOwnSoftware,2013-03-17 02:51:00,
2013-03-17 02:52:00,34.9,34.9,29.29,ESE,112,1.0,3.0,100,0.00,,,0.00,0,MyOwnSoftware,2013-03-17 02:52:00,
2013-03-17 02:53:00,35.0,35.0,29.29,North,0,0.0,0.0,100,0.00,,,0.00,0,MyOwnSoftware,2013-03-17 02:53:00,
2013-03-17 02:54:00,35.0,35.0,29.29,North,0,0.0,0.0,100,0.00,,,0.00,0,MyOwnSoftware,2013-03-17 02:54:00,
2013-03-17 02:55:00,35.0,35.0,29.29,ESE,112,1.0,2.0,100,0.00,,,0.00,0,MyOwnSoftware,2013-03-17 02:55:00,
2013-03-17 02:56:00,35.0,35.0,29.29,ESE,112,1.0,2.0,100,0.00,,,0.00,0,MyOwnSoftware,2013-03-17 02:56:00,
2013-03-17 02:57:00,35.0,35.0,29.29,ESE,112,1.0,3.0,100,0.00,,,0.00,0,MyOwnSoftware,2013-03-17 02:57:00,
2013-03-17 02:58:00,35.0,35.0,29.29,ESE,112,1.0,2.0,100,0.00,,,0.00,0,MyOwnSoftware,2013-03-17 02:58:00,
2013-03-17 02:59:00,35.0,35.0,29.29,ESE,112,2.0,3.0,100,0.00,,,0.00,0,MyOwnSoftware,2013-03-17 02:59:00,
2013-03-17 03:00:00,35.0,35.0,29.29,ESE,112,1.0,3.0,100,0.00,,,0.00,0,MyOwnSoftware,2013-03-17 03:00:00,
2013-03-17 03:01:00,35.0,35.0,29.29,ESE,112,1.0,2.0,100,0.00,,,0.00,0,MyOwnSoftware,2013-03-17 03:01:00,
2013-03-17 03:02:00,35.0,35.0,29.29,ESE,110,2.0,-999.0,100,-99.99,,,0.00,0,weatherlink.com 1.10,2013-03-17 03:02:00,
2013-03-17 03:03:00,35.0,35.0,29.29,ESE,112,1.0,2.0,100,0.00,,,0.00,0,MyOwnSoftware,2013-03-17 03:03:00,
2013-03-17 03:04:00,35.2,35.2,29.29,ESE,112,0.0,1.0,100,0.00,,,0.00,0,MyOwnSoftware,2013-03-17 03:04:00,
2013-03-17 03:05:00,35.2,35.2,29.29,North,0,0.0,0.0,100,0.00,,,0.00,0,MyOwnSoftware,2013-03-17 03:05:00,
2013-03-17 03:06:00,35.2,35.2,29.29,ESE,112,0.0,1.0,100,0.00,,,0.00,0,MyOwnSoftware,2013-03-17 03:06:00,
2013-03-17 03:07:00,35.2,35.2,29.29,ESE,112,1.0,2.0,100,0.00,,,0.00,0,MyOwnSoftware,2013-03-17 03:07:00,
2013-03-17 03:08:00,35.2,35.2,29.29,North,0,0.0,0.0,100,0.00,,,0.00,0,MyOwnSoftware,2013-03-17 03:08:00,
2013-03-17 03:09:00,35.2,35.2,29.29,ESE,112,0.0,2.0,100,0.00,,,0.00,0,MyOwnSoftware,2013-03-17 03:09:00,
2013-03-17 03:10:00,35.2,35.2,29.29,ESE,112,0.0,1.0,100,0.00,,,0.00,0,MyOwnSoftware,2013-03-17 03:10:00,
2013-03-17 03:11:00,35.2,35.2,29.29,North,0,0.0,0.0,100,0.00,,,0.00,0,MyOwnSoftware,2013-03-17 03:11:00,
2013-03-17 03:12:00,35.2,35.2,29.29,North,0,0.0,0.0,100,0.00,,,0.00,0,MyOwnSoftware,2013-03-17 03:12:00,
2013-03-17 03:13:00,35.2,35.2,29.29,North,0,0.0,0.0,100,0.00,,,0.00,0,MyOwnSoftware,2013-03-17 03:13:00,
2013-03-17 03:14:00,35.2,35.2,29.29,North,0,0.0,0.0,100,0.00,,,0.00,0,MyOwnSoftware,2013-03-17 03:14:00,
2013-03-17 03:15:00,35.2,35.2,29.29,North,0,0.0,0.0,100,0.00,,,0.00,0,MyOwnSoftware,2013-03-17 03:15:00,
2013-03-17 03:16:00,35.3,35.3,29.29,North,0,0.0,0.0,100,0.00,,,0.00,0,MyOwnSoftware,2013-03-17 03:16:00,
2013-03-17 03:17:00,35.3,35.0,29.29,ESE,110,0.0,-999.0,100,-99.99,,,0.00,0,weatherlink.com 1.10,2013-03-17 03:17:00,
2013-03-17 03:18:00,35.3,35.3,29.29,ESE,112,0.0,1.0,100,0.00,,,0.00,0,MyOwnSoftware,2013-03-17 03:18:00,
2013-03-17 03:19:00,35.3,35.3,29.29,North,0,0.0,0.0,100,0.00,,,0.00,0,MyOwnSoftware,2013-03-17 03:19:00,
2013-03-17 03:20:00,35.3,35.3,29.29,North,0,0.0,0.0,100,0.00,,,0.00,0,MyOwnSoftware,2013-03-17 03:20:00,
2013-03-17 03:21:00,35.3,35.3,29.29,North,0,0.0,0.0,100,0.00,,,0.00,0,MyOwnSoftware,2013-03-17 03:21:00,
2013-03-17 03:22:00,35.3,35.3,29.29,North,0,0.0,0.0,100,0.00,,,0.00,0,MyOwnSoftware,2013-03-17 03:22:00,
2013-03-17 03:23:00,35.3,35.3,29.29,North,0,0.0,0.0,100,0.00,,,0.00,0,MyOwnSoftware,2013-03-17 03:23:00,
2013-03-17 03:24:00,35.3,35.3,29.29,North,0,0.0,0.0,100,0.00,,,0.00,0,MyOwnSoftware,2013-03-17 03:24:00,
2013-03-17 03:25:00,35.3,35.3,29.29,North,0,0.0,0.0,100,0.00,,,0.00,0,MyOwnSoftware,2013-03-17 03:25:00,
2013-03-17 03:26:00,35.3,35.3,29.29,North,0,0.0,0.0,100,0.00,,,0.00,0,MyOwnSoftware,2013-03-17 03:26:00,
2013-03-17 03:27:00,35.3,35.3,29.29,North,0,0.0,0.0,100,0.00,,,0.00,0,MyOwnSoftware,2013-03-17 03:27:00,
2013-03-17 03:28:00,35.3,35.3,29.29,North,0,0.0,0.0,100,0.00,,,0.00,0,MyOwnSoftware,2013-03-17 03:28:00,
2013-03-17 03:29:00,35.3,35.3,29.29,North,0,0.0,0.0,100,0.00,,,0.00,0,MyOwnSoftware,2013-03-17 03:29:00,
2013-03-17 03:30:00,35.5,35.5,29.29,North,0,0.0,0.0,100,0.00,,,0.00,0,MyOwnSoftware,2013-03-17 03:30:00,
2013-03-17 03:31:00,35.5,35.5,29.29,North,0,0.0,0.0,100,0.00,,,0.00,0,MyOwnSoftware,2013-03-17 03:31:00,
2013-03-17 03:32:00,35.5,36.0,29.29,ESE,110,0.0,-999.0,100,-99.99,,,0.00,0,weatherlink.com 1.10,2013-03-17 03:32:00,
2013-03-17 03:33:00,35.5,35.5,29.29,North,0,0.0,0.0,100,0.00,,,0.00,0,MyOwnSoftware,2013-03-17 03:33:00,
2013-03-17 03:34:00,35.5,35.5,29.29,North,0,0.0,0.0,100,0.00,,,0.00,0,MyOwnSoftware,2013-03-17 03:34:00,
2013-03-17 03:35:00,35.5,35.5,29.29,ESE,112,0.0,1.0,100,0.00,,,0.00,0,MyOwnSoftware,2013-03-17 03:35:00,
2013-03-17 03:36:00,35.5,35.5,29.29,North,0,0.0,0.0,100,0.00,,,0.00,0,MyOwnSoftware,2013-03-17 03:36:00,
2013-03-17 03:37:00,35.5,35.5,29.29,North,0,0.0,0.0,100,0.00,,,0.00,0,MyOwnSoftware,2013-03-17 03:37:00,
2013-03-17 03:38:00,35.5,35.5,29.29,North,0,0.0,0.0,100,0.00,,,0.00,0,MyOwnSoftware,2013-03-17 03:38:00,
2013-03-17 03:39:00,35.5,35.5,29.29,North,0,0.0,0.0,100,0.00,,,0.00,0,MyOwnSoftware,2013-03-17 03:39:00,
2013-03-17 03:40:00,35.6,35.6,29.29,North,0,0.0,0.0,100,0.00,,,0.00,0,MyOwnSoftware,2013-03-17 03:40:00,
2013-03-17 03:41:00,35.6,35.6,29.29,North,0,0.0,0.0,100,0.00,,,0.00,0,MyOwnSoftware,2013-03-17 03:41:00,
2013-03-17 03:42:00,35.6,35.6,29.29,ESE,112,0.0,1.0,100,0.00,,,0.00,0,MyOwnSoftware,2013-03-17 03:42:00,
2013-03-17 03:43:00,35.6,35.6,29.29,North,0,0.0,0.0,100,0.00,,,0.00,0,MyOwnSoftware,2013-03-17 03:43:00,
2013-03-17 03:44:00,35.6,35.6,29.29,North,0,0.0,0.0,100,0.00,,,0.00,0,MyOwnSoftware,2013-03-17 03:44:00,
2013-03-17 03:45:00,35.8,35.8,29.28,North,0,0.0,0.0,100,0.00,,,0.00,0,MyOwnSoftware,2013-03-17 03:45:00,
2013-03-17 03:46:00,35.8,35.8,29.28,North,0,0.0,0.0,100,0.00,,,0.00,0,MyOwnSoftware,2013-03-17 03:46:00,
2013-03-17 03:47:00,35.8,36.0,29.28,ESE,110,0.0,-999.0,100,-99.99,,,0.00,0,weatherlink.com 1.10,2013-03-17 03:47:00,
2013-03-17 03:48:00,35.8,35.8,29.28,North,0,0.0,0.0,100,0.00,,,0.00,0,MyOwnSoftware,2013-03-17 03:48:00,
2013-03-17 03:49:00,35.9,35.9,29.28,North,0,0.0,0.0,100,0.00,,,0.00,0,MyOwnSoftware,2013-03-17 03:49:00,
2013-03-17 03:50:00,35.9,35.9,29.28,North,0,0.0,0.0,100,0.00,,,0.00,0,MyOwnSoftware,2013-03-17 03:50:00,
2013-03-17 03:51:00,35.9,35.9,29.28,North,0,0.0,0.0,100,0.00,,,0.00,0,MyOwnSoftware,2013-03-17 03:51:00,
2013-03-17 03:52:00,35.9,35.9,29.28,ESE,112,0.0,1.0,100,0.00,,,0.00,0,MyOwnSoftware,2013-03-17 03:52:00,
2013-03-17 03:53:00,36.0,36.0,29.28,North,0,0.0,0.0,100,0.00,,,0.00,0,MyOwnSoftware,2013-03-17 03:53:00,
2013-03-17 03:54:00,36.0,36.0,29.28,North,0,0.0,0.0,100,0.00,,,0.00,0,MyOwnSoftware,2013-03-17 03:54:00,
2013-03-17 03:55:00,36.0,36.0,29.28,ESE,112,1.0,2.0,100,0.00,,,0.00,0,MyOwnSoftware,2013-03-17 03:55:00,
2013-03-17 03:56:00,36.0,36.0,29.28,ESE,112,0.0,1.0,100,0.00,,,0.00,0,MyOwnSoftware,2013-03-17 03:56:00,
2013-03-17 03:57:00,36.0,36.0,29.28,North,0,0.0,0.0,100,0.00,,,0.00,0,MyOwnSoftware,2013-03-17 03:57:00,
2013-03-17 03:58:00,36.2,36.2,29.28,ESE,112,2.0,2.0,100,0.00,,,0.00,0,MyOwnSoftware,2013-03-17 03:58:00,
2013-03-17 03:59:00,36.2,36.2,29.28,ESE,112,2.0,3.0,100,0.00,,,0.00,0,MyOwnSoftware,2013-03-17 03:59:00,
2013-03-17 04:00:00,36.2,36.2,29.27,North,0,3.0,5.0,100,0.00,,,0.00,0,MyOwnSoftware,2013-03-17 04:00:00,
2013-03-17 04:01:00,36.2,36.2,29.27,North,0,3.0,7.0,100,0.00,,,0.00,0,MyOwnSoftware,2013-03-17 04:01:00,
2013-03-17 04:02:00,36.3,36.0,29.27,North,0,2.0,-999.0,100,-99.99,,,0.00,0,weatherlink.com 1.10,2013-03-17 04:02:00,
2013-03-17 04:03:00,36.3,36.3,29.27,North,0,2.0,3.0,100,0.00,,,0.00,0,MyOwnSoftware,2013-03-17 04:03:00,
2013-03-17 04:04:00,36.3,36.3,29.27,North,0,1.0,2.0,100,0.00,,,0.00,0,MyOwnSoftware,2013-03-17 04:04:00,
2013-03-17 04:05:00,36.3,36.3,29.27,North,0,3.0,6.0,100,0.00,,,0.00,0,MyOwnSoftware,2013-03-17 04:05:00,
2013-03-17 04:06:00,36.5,36.2,29.27,North,0,2.0,3.0,99,0.00,,,0.00,0,MyOwnSoftware,2013-03-17 04:06:00,
2013-03-17 04:07:00,36.5,36.2,29.27,North,0,1.0,2.0,99,0.00,,,0.00,0,MyOwnSoftware,2013-03-17 04:07:00,
2013-03-17 04:08:00,36.5,36.2,29.27,North,0,2.0,6.0,99,0.00,,,0.00,0,MyOwnSoftware,2013-03-17 04:08:00,
2013-03-17 04:09:00,36.6,36.3,29.27,North,0,3.0,6.0,99,0.00,,,0.00,0,MyOwnSoftware,2013-03-17 04:09:00,
2013-03-17 04:10:00,36.6,36.3,29.27,North,0,3.0,6.0,99,0.00,,,0.00,0,MyOwnSoftware,2013-03-17 04:10:00,
2013-03-17 04:11:00,36.8,36.3,29.27,North,0,2.0,3.0,98,0.00,,,0.00,0,MyOwnSoftware,2013-03-17 04:11:00,
2013-03-17 04:12:00,36.8,36.3,29.27,North,0,2.0,3.0,98,0.00,,,0.00,0,MyOwnSoftware,2013-03-17 04:12:00,
2013-03-17 04:13:00,36.9,36.4,29.27,North,0,2.0,3.0,98,0.00,,,0.00,0,MyOwnSoftware,2013-03-17 04:13:00,
2013-03-17 04:14:00,36.9,36.4,29.27,North,0,1.0,3.0,98,0.00,,,0.00,0,MyOwnSoftware,2013-03-17 04:14:00,
2013-03-17 04:15:00,37.0,36.5,29.27,North,0,2.0,5.0,98,0.00,,,0.00,0,MyOwnSoftware,2013-03-17 04:15:00,
2013-03-17 04:16:00,37.0,36.5,29.27,North,0,2.0,3.0,98,0.00,,,0.00,0,MyOwnSoftware,2013-03-17 04:16:00,
2013-03-17 04:17:00,37.2,37.0,29.27,ENE,65,3.0,-999.0,98,-99.99,,,0.00,0,weatherlink.com 1.10,2013-03-17 04:17:00,
2013-03-17 04:18:00,37.2,36.7,29.27,ENE,68,3.0,4.0,98,0.00,,,0.00,0,MyOwnSoftware,2013-03-17 04:18:00,
2013-03-17 04:19:00,37.3,36.8,29.27,North,0,3.0,5.0,98,0.00,,,0.00,0,MyOwnSoftware,2013-03-17 04:19:00,
2013-03-17 04:20:00,37.3,36.8,29.27,North,0,3.0,5.0,98,0.00,,,0.00,0,MyOwnSoftware,2013-03-17 04:20:00,
2013-03-17 04:21:00,37.5,37.0,29.27,North,0,4.0,10.0,98,0.00,,,0.00,0,MyOwnSoftware,2013-03-17 04:21:00,
2013-03-17 04:22:00,37.5,37.0,29.27,NNW,338,2.0,3.0,98,0.00,,,0.00,0,MyOwnSoftware,2013-03-17 04:22:00,
2013-03-17 04:23:00,37.5,37.0,29.27,NW,315,1.0,3.0,98,0.00,,,0.00,0,MyOwnSoftware,2013-03-17 04:23:00,
2013-03-17 04:24:00,37.6,37.1,29.27,North,0,4.0,7.0,98,0.00,,,0.00,0,MyOwnSoftware,2013-03-17 04:24:00,
2013-03-17 04:25:00,37.6,37.1,29.27,NNW,338,4.0,6.0,98,0.00,,,0.00,0,MyOwnSoftware,2013-03-17 04:25:00,
2013-03-17 04:26:00,37.6,37.1,29.27,NW,315,3.0,5.0,98,0.00,,,0.00,0,MyOwnSoftware,2013-03-17 04:26:00,
2013-03-17 04:27:00,37.6,37.3,29.27,North,0,1.0,4.0,99,0.00,,,0.00,0,MyOwnSoftware,2013-03-17 04:27:00,
2013-03-17 04:28:00,37.6,37.3,29.27,North,0,2.0,5.0,99,0.00,,,0.00,0,MyOwnSoftware,2013-03-17 04:28:00,
2013-03-17 04:29:00,37.6,37.3,29.27,North,0,2.0,4.0,99,0.00,,,0.00,0,MyOwnSoftware,2013-03-17 04:29:00,
2013-03-17 04:30:00,37.6,37.3,29.27,NNW,338,1.0,3.0,99,0.00,,,0.00,0,MyOwnSoftware,2013-03-17 04:30:00,
2013-03-17 04:31:00,37.6,37.3,29.27,North,0,1.0,3.0,99,0.00,,,0.00,0,MyOwnSoftware,2013-03-17 04:31:00,
2013-03-17 04:32:00,37.6,38.0,29.27,North,356,2.0,-999.0,100,-99.99,,,0.00,0,weatherlink.com 1.10,2013-03-17 04:32:00,
2013-03-17 04:33:00,37.6,37.6,29.27,North,0,2.0,2.0,100,0.00,,,0.00,0,MyOwnSoftware,2013-03-17 04:33:00,
2013-03-17 04:34:00,37.6,37.6,29.27,North,0,2.0,4.0,100,0.00,,,0.00,0,MyOwnSoftware,2013-03-17 04:34:00,
2013-03-17 04:35:00,37.6,37.6,29.27,NNW,338,3.0,6.0,100,0.00,,,0.00,0,MyOwnSoftware,2013-03-17 04:35:00,
2013-03-17 04:36:00,37.6,37.6,29.27,NW,315,2.0,4.0,100,0.00,,,0.00,0,MyOwnSoftware,2013-03-17 04:36:00,
2013-03-17 04:37:00,37.6,37.6,29.27,NNW,338,2.0,3.0,100,0.00,,,0.00,0,MyOwnSoftware,2013-03-17 04:37:00,
2013-03-17 04:38:00,37.6,37.6,29.27,NNW,338,3.0,5.0,100,0.00,,,0.00,0,MyOwnSoftware,2013-03-17 04:38:00,
2013-03-17 04:39:00,37.6,37.6,29.27,NNW,338,3.0,6.0,100,0.00,,,0.00,0,MyOwnSoftware,2013-03-17 04:39:00,
2013-03-17 04:40:00,37.6,37.6,29.27,NNW,338,3.0,6.0,100,0.00,,,0.00,0,MyOwnSoftware,2013-03-17 04:40:00,
2013-03-17 04:41:00,37.6,37.6,29.27,NNW,338,3.0,5.0,100,0.00,,,0.00,0,MyOwnSoftware,2013-03-17 04:41:00,
2013-03-17 04:42:00,37.6,37.6,29.27,NNW,338,3.0,5.0,100,0.00,,,0.00,0,MyOwnSoftware,2013-03-17 04:42:00,
2013-03-17 04:43:00,37.6,37.6,29.27,North,0,3.0,5.0,100,0.00,,,0.00,0,MyOwnSoftware,2013-03-17 04:43:00,
2013-03-17 04:44:00,37.5,37.5,29.27,North,0,3.0,5.0,100,0.00,,,0.00,0,MyOwnSoftware,2013-03-17 04:44:00,
2013-03-17 04:45:00,37.5,37.5,29.27,North,0,1.0,2.0,100,0.00,,,0.00,0,MyOwnSoftware,2013-03-17 04:45:00,
2013-03-17 04:46:00,37.5,37.5,29.27,North,0,1.0,2.0,100,0.00,,,0.00,0,MyOwnSoftware,2013-03-17 04:46:00,
2013-03-17 04:47:00,37.5,38.0,29.27,North,354,1.0,-999.0,100,-99.99,,,0.00,0,weatherlink.com 1.10,2013-03-17 04:47:00,
2013-03-17 04:48:00,37.5,37.5,29.27,North,0,1.0,4.0,100,0.00,,,0.00,0,MyOwnSoftware,2013-03-17 04:48:00,
2013-03-17 04:49:00,37.3,37.3,29.27,North,0,3.0,5.0,100,0.00,,,0.00,0,MyOwnSoftware,2013-03-17 04:49:00,
2013-03-17 04:50:00,37.3,37.3,29.27,North,0,4.0,6.0,100,0.00,,,0.00,0,MyOwnSoftware,2013-03-17 04:50:00,
2013-03-17 04:51:00,37.3,37.3,29.27,North,0,4.0,6.0,100,0.00,,,0.00,0,MyOwnSoftware,2013-03-17 04:51:00,
2013-03-17 04:52:00,37.3,37.3,29.27,North,0,1.0,2.0,100,0.00,,,0.00,0,MyOwnSoftware,2013-03-17 04:52:00,
2013-03-17 04:53:00,37.3,37.3,29.27,North,0,2.0,3.0,100,0.00,,,0.00,0,MyOwnSoftware,2013-03-17 04:53:00,
2013-03-17 04:54:00,37.3,37.3,29.27,North,0,2.0,3.0,100,0.00,,,0.00,0,MyOwnSoftware,2013-03-17 04:54:00,
2013-03-17 04:55:00,37.3,37.3,29.27,North,0,2.0,4.0,100,0.00,,,0.00,0,MyOwnSoftware,2013-03-17 04:55:00,
2013-03-17 04:56:00,37.3,37.3,29.27,North,0,1.0,3.0,100,0.00,,,0.00,0,MyOwnSoftware,2013-03-17 04:56:00,
2013-03-17 04:57:00,37.3,37.3,29.27,North,0,2.0,4.0,100,0.00,,,0.00,0,MyOwnSoftware,2013-03-17 04:57:00,
2013-03-17 04:58:00,37.3,37.3,29.27,North,0,2.0,3.0,100,0.00,,,0.00,0,MyOwnSoftware,2013-03-17 04:58:00,
2013-03-17 04:59:00,37.3,37.3,29.27,NNW,338,1.0,2.0,100,0.00,,,0.00,0,MyOwnSoftware,2013-03-17 04:59:00,
2013-03-17 05:00:00,37.3,37.3,29.26,NNE,22,3.0,5.0,100,0.00,,,0.00,0,MyOwnSoftware,2013-03-17 05:00:00,
2013-03-17 05:01:00,37.3,37.3,29.26,NNE,22,2.0,3.0,100,0.00,,,0.00,0,MyOwnSoftware,2013-03-17 05:01:00,
2013-03-17 05:02:00,37.3,37.0,29.26,NNE,31,1.0,-999.0,100,-99.99,,,0.00,0,weatherlink.com 1.10,2013-03-17 05:02:00,
2013-03-17 05:03:00,37.3,37.3,29.26,NNE,22,2.0,5.0,100,0.00,,,0.00,0,MyOwnSoftware,2013-03-17 05:03:00,
2013-03-17 05:04:00,37.3,37.3,29.26,NNE,22,2.0,5.0,100,0.00,,,0.00,0,MyOwnSoftware,2013-03-17 05:04:00,
2013-03-17 05:05:00,37.3,37.3,29.26,North,0,2.0,3.0,100,0.00,,,0.00,0,MyOwnSoftware,2013-03-17 05:05:00,
2013-03-17 05:06:00,37.3,37.3,29.26,North,0,1.0,2.0,100,0.00,,,0.00,0,MyOwnSoftware,2013-03-17 05:06:00,
2013-03-17 05:07:00,37.3,37.3,29.26,North,0,2.0,3.0,100,0.00,,,0.00,0,MyOwnSoftware,2013-03-17 05:07:00,
2013-03-17 05:08:00,37.3,37.3,29.26,North,0,2.0,6.0,100,0.00,,,0.00,0,MyOwnSoftware,2013-03-17 05:08:00,
2013-03-17 05:09:00,37.3,37.3,29.26,North,0,3.0,6.0,100,0.00,,,0.00,0,MyOwnSoftware,2013-03-17 05:09:00,
2013-03-17 05:10:00,37.3,37.3,29.26,NNW,338,3.0,6.0,100,0.00,,,0.00,0,MyOwnSoftware,2013-03-17 05:10:00,
2013-03-17 05:11:00,37.3,37.3,29.26,NNW,338,1.0,3.0,100,0.00,,,0.00,0,MyOwnSoftware,2013-03-17 05:11:00,
2013-03-17 05:12:00,37.3,37.3,29.26,North,0,2.0,3.0,100,0.00,,,0.00,0,MyOwnSoftware,2013-03-17 05:12:00,
2013-03-17 05:13:00,37.3,37.3,29.26,North,0,2.0,4.0,100,0.00,,,0.00,0,MyOwnSoftware,2013-03-17 05:13:00,
2013-03-17 05:14:00,37.3,37.3,29.26,North,0,2.0,3.0,100,0.00,,,0.00,0,MyOwnSoftware,2013-03-17 05:14:00,
2013-03-17 05:15:00,37.3,37.3,29.26,NNE,22,2.0,3.0,100,0.00,,,0.00,0,MyOwnSoftware,2013-03-17 05:15:00,
2013-03-17 05:16:00,37.3,37.3,29.26,East,90,2.0,3.0,100,0.00,,,0.00,0,MyOwnSoftware,2013-03-17 05:16:00,
2013-03-17 05:17:00,37.5,38.0,29.26,NNE,28,3.0,-999.0,100,-99.99,,,0.00,0,weatherlink.com 1.10,2013-03-17 05:17:00,
2013-03-17 05:18:00,37.3,37.3,29.26,NNE,22,1.0,3.0,100,0.00,,,0.00,0,MyOwnSoftware,2013-03-17 05:18:00,
2013-03-17 05:19:00,37.5,37.5,29.26,NW,315,1.0,2.0,100,0.00,,,0.00,0,MyOwnSoftware,2013-03-17 05:19:00,
2013-03-17 05:20:00,37.5,37.5,29.26,NW,315,0.0,1.0,100,0.00,,,0.00,0,MyOwnSoftware,2013-03-17 05:20:00,
2013-03-17 05:21:00,37.5,37.5,29.26,NW,315,2.0,3.0,100,0.00,,,0.00,0,MyOwnSoftware,2013-03-17 05:21:00,
2013-03-17 05:22:00,37.5,37.5,29.26,NW,315,1.0,2.0,100,0.00,,,0.00,0,MyOwnSoftware,2013-03-17 05:22:00,
2013-03-17 05:23:00,37.5,37.5,29.26,NW,315,1.0,2.0,100,0.00,,,0.00,0,MyOwnSoftware,2013-03-17 05:23:00,
2013-03-17 05:24:00,37.5,37.5,29.26,NW,315,1.0,3.0,100,0.00,,,0.00,0,MyOwnSoftware,2013-03-17 05:24:00,
2013-03-17 05:25:00,37.5,37.5,29.26,NW,315,2.0,3.0,100,0.00,,,0.00,0,MyOwnSoftware,2013-03-17 05:25:00,
2013-03-17 05:26:00,37.5,37.5,29.26,North,0,4.0,7.0,100,0.00,,,0.00,0,MyOwnSoftware,2013-03-17 05:26:00,
2013-03-17 05:27:00,37.5,37.5,29.26,North,0,3.0,5.0,100,0.00,,,0.00,0,MyOwnSoftware,2013-03-17 05:27:00,
2013-03-17 05:28:00,37.6,37.6,29.26,North,0,2.0,2.0,100,0.00,,,0.00,0,MyOwnSoftware,2013-03-17 05:28:00,
2013-03-17 05:29:00,37.6,37.6,29.26,North,0,1.0,2.0,100,0.00,,,0.00,0,MyOwnSoftware,2013-03-17 05:29:00,
2013-03-17 05:30:00,37.6,37.6,29.25,North,0,1.0,3.0,100,0.00,,,0.00,0,MyOwnSoftware,2013-03-17 05:30:00,
2013-03-17 05:31:00,37.6,37.6,29.25,North,0,2.0,3.0,100,0.00,,,0.00,0,MyOwnSoftware,2013-03-17 05:31:00,
2013-03-17 05:32:00,37.6,38.0,29.25,NNE,31,2.0,-999.0,100,-99.99,,,0.00,0,weatherlink.com 1.10,2013-03-17 05:32:00,
2013-03-17 05:33:00,37.8,37.8,29.25,NNE,22,4.0,6.0,100,0.00,,,0.00,0,MyOwnSoftware,2013-03-17 05:33:00,
2013-03-17 05:34:00,37.8,37.8,29.25,North,0,4.0,7.0,100,0.00,,,0.00,0,MyOwnSoftware,2013-03-17 05:34:00,
2013-03-17 05:35:00,37.8,37.8,29.25,North,0,4.0,7.0,100,0.00,,,0.00,0,MyOwnSoftware,2013-03-17 05:35:00,
2013-03-17 05:36:00,37.8,37.8,29.25,North,0,5.0,8.0,100,0.00,,,0.00,0,MyOwnSoftware,2013-03-17 05:36:00,
2013-03-17 05:37:00,37.8,37.8,29.25,North,0,3.0,6.0,100,0.00,,,0.00,0,MyOwnSoftware,2013-03-17 05:37:00,
2013-03-17 05:38:00,37.8,37.8,29.25,North,0,2.0,5.0,100,0.00,,,0.00,0,MyOwnSoftware,2013-03-17 05:38:00,
2013-03-17 05:39:00,37.8,37.8,29.25,NNW,338,1.0,3.0,100,0.00,,,0.00,0,MyOwnSoftware,2013-03-17 05:39:00,
2013-03-17 05:40:00,37.8,37.8,29.25,NNW,338,2.0,6.0,100,0.00,,,0.00,0,MyOwnSoftware,2013-03-17 05:40:00,
2013-03-17 05:41:00,37.8,37.8,29.25,NNW,338,4.0,6.0,100,0.00,,,0.00,0,MyOwnSoftware,2013-03-17 05:41:00,
2013-03-17 05:42:00,37.8,37.8,29.25,North,0,3.0,7.0,100,0.00,,,0.00,0,MyOwnSoftware,2013-03-17 05:42:00,
2013-03-17 05:43:00,37.8,37.8,29.25,North,0,3.0,7.0,100,0.00,,,0.00,0,MyOwnSoftware,2013-03-17 05:43:00,
2013-03-17 05:44:00,37.8,37.8,29.25,North,0,5.0,6.0,100,0.00,,,0.00,0,MyOwnSoftware,2013-03-17 05:44:00,
2013-03-17 05:45:00,37.8,37.8,29.25,North,0,3.0,5.0,100,0.00,,,0.00,0,MyOwnSoftware,2013-03-17 05:45:00,
2013-03-17 05:46:00,37.8,37.8,29.25,NE,45,4.0,6.0,100,0.00,,,0.00,0,MyOwnSoftware,2013-03-17 05:46:00,
2013-03-17 05:47:00,37.9,38.0,29.25,North,359,8.0,-999.0,100,-99.99,,,0.00,0,weatherlink.com 1.10,2013-03-17 05:47:00,
2013-03-17 05:48:00,37.9,37.9,29.25,NNE,22,5.0,10.0,100,0.00,,,0.00,0,MyOwnSoftware,2013-03-17 05:48:00,
2013-03-17 05:49:00,37.9,37.9,29.25,North,0,6.0,9.0,100,0.00,,,0.00,0,MyOwnSoftware,2013-03-17 05:49:00,
2013-03-17 05:50:00,38.0,38.0,29.25,North,0,4.0,6.0,100,0.00,,,0.00,0,MyOwnSoftware,2013-03-17 05:50:00,
2013-03-17 05:51:00,38.0,38.0,29.25,North,0,4.0,7.0,100,0.00,,,0.00,0,MyOwnSoftware,2013-03-17 05:51:00,
2013-03-17 05:52:00,38.2,38.2,29.25,NE,45,4.0,6.0,100,0.00,,,0.00,0,MyOwnSoftware,2013-03-17 05:52:00,
2013-03-17 05:53:00,38.3,38.3,29.25,NE,45,5.0,6.0,100,0.00,,,0.00,0,MyOwnSoftware,2013-03-17 05:53:00,
2013-03-17 05:54:00,38.3,38.3,29.25,North,0,6.0,11.0,100,0.00,,,0.00,0,MyOwnSoftware,2013-03-17 05:54:00,
2013-03-17 05:55:00,38.5,38.5,29.25,North,0,4.0,7.0,100,0.00,,,0.00,0,MyOwnSoftware,2013-03-17 05:55:00,
2013-03-17 05:56:00,38.6,38.6,29.25,NNE,22,4.0,7.0,100,0.00,,,0.00,0,MyOwnSoftware,2013-03-17 05:56:00,
2013-03-17 05:57:00,38.6,38.6,29.25,NNE,22,4.0,7.0,100,0.00,,,0.00,0,MyOwnSoftware,2013-03-17 05:57:00,
2013-03-17 05:58:00,38.6,38.6,29.25,ENE,68,5.0,6.0,100,0.00,,,0.00,0,MyOwnSoftware,2013-03-17 05:58:00,
2013-03-17 05:59:00,38.8,38.8,29.25,North,0,4.0,6.0,100,0.00,,,0.00,0,MyOwnSoftware,2013-03-17 05:59:00,
2013-03-17 06:00:00,38.8,38.8,29.25,North,0,3.0,6.0,100,0.00,,,0.00,0,MyOwnSoftware,2013-03-17 06:00:00,
2013-03-17 06:01:00,38.8,38.8,29.25,North,0,4.0,9.0,100,0.00,,,0.00,0,MyOwnSoftware,2013-03-17 06:01:00,
2013-03-17 06:02:00,38.9,39.0,29.25,NE,40,2.0,-999.0,100,-99.99,,,0.00,0,weatherlink.com 1.10,2013-03-17 06:02:00,
2013-03-17 06:03:00,38.9,38.9,29.25,NE,45,4.0,6.0,100,0.00,,,0.00,0,MyOwnSoftware,2013-03-17 06:03:00,
2013-03-17 06:04:00,39.1,39.1,29.25,NNE,22,4.0,6.0,100,0.00,,,0.00,0,MyOwnSoftware,2013-03-17 06:04:00,
2013-03-17 06:05:00,39.2,39.2,29.25,North,0,4.0,7.0,100,0.00,,,0.00,0,MyOwnSoftware,2013-03-17 06:05:00,
2013-03-17 06:06:00,39.2,39.2,29.25,North,0,4.0,6.0,100,0.00,,,0.00,0,MyOwnSoftware,2013-03-17 06:06:00,
2013-03-17 06:07:00,39.3,39.3,29.25,North,0,4.0,6.0,100,0.00,,,0.00,0,MyOwnSoftware,2013-03-17 06:07:00,
2013-03-17 06:08:00,39.3,39.3,29.25,North,0,4.0,8.0,100,0.00,,,0.00,0,MyOwnSoftware,2013-03-17 06:08:00,
2013-03-17 06:09:00,39.3,39.3,29.25,North,0,5.0,7.0,100,0.00,,,0.00,0,MyOwnSoftware,2013-03-17 06:09:00,
2013-03-17 06:10:00,39.3,39.3,29.25,NNE,22,5.0,6.0,100,0.00,,,0.00,0,MyOwnSoftware,2013-03-17 06:10:00,
2013-03-17 06:11:00,39.5,39.5,29.25,NNE,22,5.0,9.0,100,0.00,,,0.00,0,MyOwnSoftware,2013-03-17 06:11:00,
2013-03-17 06:12:00,39.5,39.5,29.25,NNE,22,5.0,8.0,100,0.00,,,0.00,0,MyOwnSoftware,2013-03-17 06:12:00,
2013-03-17 06:13:00,39.5,39.5,29.25,North,0,5.0,7.0,100,0.00,,,0.00,0,MyOwnSoftware,2013-03-17 06:13:00,
2013-03-17 06:14:00,39.5,39.5,29.25,North,0,4.0,7.0,100,0.00,,,0.00,0,MyOwnSoftware,2013-03-17 06:14:00,
2013-03-17 06:15:00,39.5,39.5,29.25,North,0,4.0,6.0,100,0.00,,,0.00,0,MyOwnSoftware,2013-03-17 06:15:00,
2013-03-17 06:16:00,39.5,39.5,29.25,North,0,5.0,7.0,100,0.00,,,0.00,0,MyOwnSoftware,2013-03-17 06:16:00,
2013-03-17 06:17:00,39.5,39.5,29.25,NNE,22,3.0,6.0,100,0.00,,,0.00,0,MyOwnSoftware,2013-03-17 06:17:00,
2013-03-17 06:18:00,39.5,40.0,29.25,North,1,5.0,-999.0,100,-99.99,,,0.00,0,weatherlink.com 1.10,2013-03-17 06:18:00,
2013-03-17 06:19:00,39.5,39.5,29.25,North,0,2.0,4.0,100,0.00,,,0.00,0,MyOwnSoftware,2013-03-17 06:19:00,
2013-03-17 06:20:00,39.5,39.5,29.25,NNW,338,3.0,3.0,100,0.00,,,0.00,0,MyOwnSoftware,2013-03-17 06:20:00,
2013-03-17 06:21:00,39.5,39.5,29.25,NNW,338,2.0,3.0,100,0.00,,,0.00,0,MyOwnSoftware,2013-03-17 06:21:00,
2013-03-17 06:22:00,39.5,39.5,29.25,NNW,338,2.0,3.0,100,0.00,,,0.00,0,MyOwnSoftware,2013-03-17 06:22:00,
2013-03-17 06:23:00,39.5,39.5,29.25,NNW,338,3.0,5.0,100,0.00,,,0.00,0,MyOwnSoftware,2013-03-17 06:23:00,
2013-03-17 06:24:00,39.5,39.5,29.25,NNW,338,2.0,3.0,100,0.00,,,0.00,0,MyOwnSoftware,2013-03-17 06:24:00,
2013-03-17 06:25:00,39.5,39.5,29.25,NE,45,2.0,4.0,100,0.00,,,0.00,0,MyOwnSoftware,2013-03-17 06:25:00,
2013-03-17 06:26:00,39.5,39.5,29.25,NE,45,2.0,3.0,100,0.00,,,0.00,0,MyOwnSoftware,2013-03-17 06:26:00,
2013-03-17 06:27:00,39.5,39.5,29.25,NE,45,2.0,3.0,100,0.00,,,0.00,0,MyOwnSoftware,2013-03-17 06:27:00,
2013-03-17 06:28:00,39.5,39.5,29.25,NNE,22,2.0,4.0,100,0.00,,,0.00,0,MyOwnSoftware,2013-03-17 06:28:00,
2013-03-17 06:29:00,39.5,39.5,29.25,NNE,22,1.0,3.0,100,0.00,,,0.00,0,MyOwnSoftware,2013-03-17 06:29:00,
2013-03-17 06:30:00,39.3,39.3,29.25,NNE,22,1.0,2.0,100,0.00,,,0.00,0,MyOwnSoftware,2013-03-17 06:30:00,
2013-03-17 06:31:00,39.3,39.3,29.25,NNE,22,1.0,2.0,100,0.00,,,0.00,0,MyOwnSoftware,2013-03-17 06:31:00,
2013-03-17 06:32:00,39.3,39.3,29.25,NNE,22,2.0,3.0,100,0.00,,,0.00,0,MyOwnSoftware,2013-03-17 06:32:00,
2013-03-17 06:33:00,39.3,39.0,29.25,NE,35,3.0,-999.0,100,-99.99,,,0.00,0,weatherlink.com 1.10,2013-03-17 06:33:00,
2013-03-17 06:34:00,39.3,39.3,29.25,North,0,2.0,5.0,100,0.00,,,0.00,0,MyOwnSoftware,2013-03-17 06:34:00,
2013-03-17 06:35:00,39.3,39.3,29.25,North,0,2.0,3.0,100,0.00,,,0.00,0,MyOwnSoftware,2013-03-17 06:35:00,
2013-03-17 06:36:00,39.3,39.3,29.25,North,0,1.0,2.0,100,0.00,,,0.00,0,MyOwnSoftware,2013-03-17 06:36:00,
2013-03-17 06:37:00,39.3,39.3,29.25,North,0,1.0,3.0,100,0.00,,,0.00,0,MyOwnSoftware,2013-03-17 06:37:00,
2013-03-17 06:38:00,39.3,39.3,29.25,East,90,3.0,5.0,100,0.00,,,0.00,0,MyOwnSoftware,2013-03-17 06:38:00,
2013-03-17 06:39:00,39.3,39.3,29.25,NE,45,2.0,4.0,100,0.00,,,0.00,0,MyOwnSoftware,2013-03-17 06:39:00,
2013-03-17 06:40:00,39.3,39.3,29.25,NE,45,2.0,3.0,100,0.00,,,0.00,0,MyOwnSoftware,2013-03-17 06:40:00,
2013-03-17 06:41:00,39.3,39.3,29.25,NNE,22,2.0,3.0,100,0.00,,,0.00,0,MyOwnSoftware,2013-03-17 06:41:00,
2013-03-17 06:42:00,39.3,39.3,29.25,NNE,22,2.0,3.0,100,0.00,,,0.00,0,MyOwnSoftware,2013-03-17 06:42:00,
2013-03-17 06:43:00,39.3,39.3,29.25,NNE,22,2.0,5.0,100,0.00,,,0.00,0,MyOwnSoftware,2013-03-17 06:43:00,
2013-03-17 06:44:00,39.3,39.3,29.25,NNE,22,2.0,3.0,100,0.00,,,0.00,0,MyOwnSoftware,2013-03-17 06:44:00,
2013-03-17 06:45:00,39.2,39.2,29.25,NNE,22,2.0,2.0,100,0.00,,,0.00,0,MyOwnSoftware,2013-03-17 06:45:00,
2013-03-17 06:48:00,39.2,39.0,29.25,North,4,5.0,-999.0,100,-99.99,,,0.00,0,weatherlink.com 1.10,2013-03-17 06:48:00,
2013-03-17 06:49:00,39.2,39.2,29.25,North,0,2.0,6.0,100,0.00,,,0.00,0,MyOwnSoftware,2013-03-17 06:49:00,
2013-03-17 06:50:00,39.2,39.2,29.25,North,0,2.0,5.0,100,0.00,,,0.00,0,MyOwnSoftware,2013-03-17 06:50:00,
2013-03-17 06:51:00,39.2,39.2,29.25,North,0,2.0,2.0,100,0.00,,,0.00,0,MyOwnSoftware,2013-03-17 06:51:00,
2013-03-17 06:52:00,39.2,39.2,29.25,North,0,2.0,3.0,100,0.00,,,0.00,0,MyOwnSoftware,2013-03-17 06:52:00,
2013-03-17 06:53:00,39.2,39.2,29.25,North,0,3.0,6.0,100,0.00,,,0.00,0,MyOwnSoftware,2013-03-17 06:53:00,
2013-03-17 06:54:00,39.2,39.2,29.25,North,0,2.0,4.0,100,0.00,,,0.00,0,MyOwnSoftware,2013-03-17 06:54:00,
2013-03-17 06:55:00,39.2,39.2,29.25,NE,45,3.0,5.0,100,0.00,,,0.00,0,MyOwnSoftware,2013-03-17 06:55:00,
2013-03-17 06:56:00,39.1,39.1,29.25,NNE,22,2.0,3.0,100,0.00,,,0.00,0,MyOwnSoftware,2013-03-17 06:56:00,
2013-03-17 06:57:00,39.1,39.1,29.25,NNE,22,4.0,5.0,100,0.00,,,0.00,0,MyOwnSoftware,2013-03-17 06:57:00,
2013-03-17 06:58:00,39.1,39.1,29.25,NE,45,4.0,6.0,100,0.00,,,0.00,0,MyOwnSoftware,2013-03-17 06:58:00,
2013-03-17 06:59:00,39.1,39.1,29.25,NE,45,3.0,5.0,100,0.00,,,0.00,0,MyOwnSoftware,2013-03-17 06:59:00,
2013-03-17 07:00:00,39.1,39.1,29.25,NE,45,2.0,3.0,100,0.00,,,0.00,0,MyOwnSoftware,2013-03-17 07:00:00,
2013-03-17 07:01:00,39.1,39.1,29.25,NE,45,4.0,7.0,100,0.00,,,0.00,0,MyOwnSoftware,2013-03-17 07:01:00,
2013-03-17 07:02:00,39.1,39.1,29.25,North,0,2.0,5.0,100,0.00,,,0.00,0,MyOwnSoftware,2013-03-17 07:02:00,
2013-03-17 07:03:00,39.1,39.0,29.25,North,0,2.0,-999.0,100,-99.99,,,0.00,0,weatherlink.com 1.10,2013-03-17 07:03:00,
2013-03-17 07:04:00,39.1,39.1,29.25,NNE,22,4.0,6.0,100,0.00,,,0.00,0,MyOwnSoftware,2013-03-17 07:04:00,
2013-03-17 07:05:00,39.1,39.1,29.25,NNE,22,3.0,5.0,100,0.00,,,0.00,0,MyOwnSoftware,2013-03-17 07:05:00,
2013-03-17 07:09:00,39.1,39.1,29.25,North,0,5.0,7.0,100,0.00,,,0.00,0,MyOwnSoftware,2013-03-17 07:09:00,
2013-03-17 07:10:00,39.1,39.1,29.25,NE,45,4.0,6.0,100,0.00,,,0.00,0,MyOwnSoftware,2013-03-17 07:10:00,
2013-03-17 07:11:00,39.1,39.1,29.25,North,0,4.0,7.0,100,0.00,,,0.00,0,MyOwnSoftware,2013-03-17 07:11:00,
2013-03-17 07:12:00,39.1,39.1,29.25,NNE,22,5.0,6.0,100,0.00,,,0.00,0,MyOwnSoftware,2013-03-17 07:12:00,
2013-03-17 07:13:00,39.1,39.1,29.25,North,0,3.0,6.0,100,0.00,,,0.00,7,MyOwnSoftware,2013-03-17 07:13:00,
2013-03-17 07:14:00,39.1,39.1,29.25,NNW,338,3.0,5.0,100,0.00,,,0.00,7,MyOwnSoftware,2013-03-17 07:14:00,
2013-03-17 07:15:00,39.1,39.1,29.25,NNE,22,3.0,4.0,100,0.00,,,0.00,0,MyOwnSoftware,2013-03-17 07:15:00,
2013-03-17 07:16:00,39.2,39.2,29.24,North,0,4.0,6.0,100,0.00,,,0.00,7,MyOwnSoftware,2013-03-17 07:16:00,
2013-03-17 07:17:00,39.2,39.2,29.24,NNE,22,5.0,7.0,100,0.00,,,0.00,7,MyOwnSoftware,2013-03-17 07:17:00,
2013-03-17 07:18:00,39.2,39.2,29.24,North,0,5.0,6.0,100,0.00,,,0.00,7,MyOwnSoftware,2013-03-17 07:18:00,
2013-03-17 07:19:00,39.2,39.2,29.24,North,0,3.0,6.0,100,0.00,,,0.00,7,MyOwnSoftware,2013-03-17 07:19:00,
2013-03-17 07:20:00,39.2,39.2,29.24,NNE,22,4.0,7.0,100,0.00,,,0.00,7,MyOwnSoftware,2013-03-17 07:20:00,
2013-03-17 07:21:00,39.2,39.2,29.24,North,0,4.0,7.0,100,0.00,,,0.00,5,MyOwnSoftware,2013-03-17 07:21:00,
2013-03-17 07:22:00,39.2,39.2,29.24,North,0,5.0,6.0,100,0.00,,,0.00,5,MyOwnSoftware,2013-03-17 07:22:00,
2013-03-17 07:23:00,39.2,39.2,29.24,North,0,6.0,8.0,100,0.00,,,0.00,5,MyOwnSoftware,2013-03-17 07:23:00,
2013-03-17 07:24:00,39.2,39.2,29.24,North,0,5.0,7.0,100,0.00,,,0.00,5,MyOwnSoftware,2013-03-17 07:24:00,
2013-03-17 07:25:00,39.3,39.3,29.24,NNE,22,6.0,7.0,100,0.00,,,0.00,5,MyOwnSoftware,2013-03-17 07:25:00,
2013-03-17 07:29:00,39.3,39.3,29.24,NNE,22,4.0,6.0,100,0.00,,,0.00,5,MyOwnSoftware,2013-03-17 07:29:00,
2013-03-17 07:30:00,39.3,39.3,29.24,NE,45,4.0,6.0,100,0.00,,,0.00,5,MyOwnSoftware,2013-03-17 07:30:00,
2013-03-17 07:31:00,39.3,39.3,29.24,North,0,6.0,11.0,100,0.00,,,0.00,5,MyOwnSoftware,2013-03-17 07:31:00,
2013-03-17 07:32:00,39.3,39.3,29.24,NNE,22,4.0,6.0,100,0.00,,,0.00,5,MyOwnSoftware,2013-03-17 07:32:00,
2013-03-17 07:33:00,39.3,39.0,29.24,North,3,2.0,-999.0,100,-99.99,,,0.00,7,weatherlink.com 1.10,2013-03-17 07:33:00,
2013-03-17 07:34:00,39.5,39.5,29.24,NNE,22,5.0,7.0,100,0.00,,,0.00,7,MyOwnSoftware,2013-03-17 07:34:00,
2013-03-17 07:35:00,39.5,39.5,29.24,NNE,22,6.0,11.0,100,0.00,,,0.00,7,MyOwnSoftware,2013-03-17 07:35:00,
2013-03-17 07:39:00,39.5,39.5,29.24,North,0,4.0,7.0,100,0.00,,,0.00,5,MyOwnSoftware,2013-03-17 07:39:00,
2013-03-17 07:40:00,39.5,39.5,29.24,NNE,22,5.0,10.0,100,0.00,,,0.00,5,MyOwnSoftware,2013-03-17 07:40:00,
2013-03-17 07:41:00,39.5,39.5,29.24,NE,45,4.0,6.0,100,0.00,,,0.00,5,MyOwnSoftware,2013-03-17 07:41:00,
2013-03-17 07:42:00,39.5,39.5,29.24,NE,45,2.0,4.0,100,0.00,,,0.00,16,MyOwnSoftware,2013-03-17 07:42:00,
2013-03-17 07:43:00,39.5,39.5,29.24,NNE,22,4.0,6.0,100,0.00,,,0.00,16,MyOwnSoftware,2013-03-17 07:43:00,
2013-03-17 07:44:00,39.6,39.6,29.24,North,0,4.0,7.0,100,0.00,,,0.00,16,MyOwnSoftware,2013-03-17 07:44:00,
2013-03-17 07:45:00,39.5,39.5,29.24,NE,45,4.0,6.0,100,0.00,,,0.00,7,MyOwnSoftware,2013-03-17 07:45:00,
2013-03-17 07:49:00,39.6,39.6,29.24,North,0,5.0,8.0,100,0.00,,,0.00,12,MyOwnSoftware,2013-03-17 07:49:00,
2013-03-17 07:50:00,39.6,39.6,29.24,North,0,5.0,8.0,100,0.00,,,0.00,18,MyOwnSoftware,2013-03-17 07:50:00,
2013-03-17 07:51:00,39.6,39.6,29.24,NNE,22,5.0,7.0,100,0.00,,,0.00,18,MyOwnSoftware,2013-03-17 07:51:00,
2013-03-17 07:52:00,39.6,39.6,29.24,NNE,22,6.0,9.0,100,0.00,,,0.00,18,MyOwnSoftware,2013-03-17 07:52:00,
2013-03-17 07:53:00,39.8,39.8,29.24,North,0,5.0,8.0,100,0.00,,,0.00,18,MyOwnSoftware,2013-03-17 07:53:00,
2013-03-17 07:54:00,39.8,39.8,29.24,North,0,6.0,11.0,100,0.00,,,0.00,14,MyOwnSoftware,2013-03-17 07:54:00,
2013-03-17 07:55:00,39.6,39.6,29.24,NNE,22,4.0,6.0,100,0.00,,,0.00,12,MyOwnSoftware,2013-03-17 07:55:00,
2013-03-17 07:56:00,39.8,39.8,29.24,North,0,5.0,8.0,100,0.00,,,0.00,14,MyOwnSoftware,2013-03-17 07:56:00,
2013-03-17 07:57:00,39.8,39.8,29.24,NE,45,5.0,7.0,100,0.00,,,0.00,14,MyOwnSoftware,2013-03-17 07:57:00,
2013-03-17 07:58:00,39.8,39.8,29.24,North,0,6.0,8.0,100,0.00,,,0.00,14,MyOwnSoftware,2013-03-17 07:58:00,
2013-03-17 07:59:00,39.8,39.8,29.24,NE,45,5.0,8.0,100,0.00,,,0.00,14,MyOwnSoftware,2013-03-17 07:59:00,
2013-03-17 08:00:00,39.9,39.9,29.23,North,0,5.0,8.0,100,0.00,,,0.00,14,MyOwnSoftware,2013-03-17 08:00:00,
2013-03-17 08:01:00,39.9,39.9,29.23,NNE,22,6.0,8.0,100,0.00,,,0.00,14,MyOwnSoftware,2013-03-17 08:01:00,
2013-03-17 08:02:00,39.9,39.9,29.23,North,0,7.0,10.0,100,0.00,,,0.00,14,MyOwnSoftware,2013-03-17 08:02:00,
2013-03-17 08:03:00,39.9,40.0,29.23,NNW,330,5.0,-999.0,100,-99.99,,,0.00,18,weatherlink.com 1.10,2013-03-17 08:03:00,
2013-03-17 08:04:00,39.9,39.9,29.23,North,0,6.0,8.0,100,0.00,,,0.00,18,MyOwnSoftware,2013-03-17 08:04:00,
2013-03-17 08:05:00,39.9,39.9,29.23,NNE,22,5.0,8.0,100,0.00,,,0.00,18,MyOwnSoftware,2013-03-17 08:05:00,
2013-03-17 08:09:00,39.9,39.9,29.23,NNE,22,6.0,11.0,100,0.00,,,0.00,21,MyOwnSoftware,2013-03-17 08:09:00,
2013-03-17 08:10:00,39.9,39.9,29.23,North,0,5.0,7.0,100,0.00,,,0.00,21,MyOwnSoftware,2013-03-17 08:10:00,
2013-03-17 08:11:00,39.9,39.9,29.23,NNE,22,6.0,12.0,100,0.00,,,0.00,19,MyOwnSoftware,2013-03-17 08:11:00,
2013-03-17 08:12:00,39.9,39.9,29.23,North,0,7.0,13.0,100,0.00,,,0.00,19,MyOwnSoftware,2013-03-17 08:12:00,
2013-03-17 08:13:00,39.9,39.9,29.23,NNE,22,6.0,8.0,100,0.00,,,0.00,19,MyOwnSoftware,2013-03-17 08:13:00,
2013-03-17 08:14:00,39.9,39.9,29.23,North,0,7.0,12.0,100,0.00,,,0.00,19,MyOwnSoftware,2013-03-17 08:14:00,
2013-03-17 08:15:00,39.9,39.9,29.23,North,0,6.0,8.0,100,0.00,,,0.00,18,MyOwnSoftware,2013-03-17 08:15:00,
2013-03-17 08:16:00,40.1,40.1,29.23,North,0,7.0,12.0,100,0.00,,,0.00,16,MyOwnSoftware,2013-03-17 08:16:00,
2013-03-17 08:17:00,40.1,40.1,29.23,North,0,7.0,11.0,100,0.00,,,0.00,16,MyOwnSoftware,2013-03-17 08:17:00,
2013-03-17 08:18:00,40.1,40.1,29.23,NNE,22,7.0,11.0,100,0.00,,,0.00,16,MyOwnSoftware,2013-03-17 08:18:00,
2013-03-17 08:19:00,40.1,40.1,29.23,NNE,22,8.0,11.0,100,0.00,,,0.00,19,MyOwnSoftware,2013-03-17 08:19:00,
2013-03-17 08:20:00,40.1,40.1,29.23,North,0,7.0,11.0,100,0.00,,,0.00,19,MyOwnSoftware,2013-03-17 08:20:00,
2013-03-17 08:21:00,40.1,40.1,29.23,NE,45,7.0,10.0,100,0.00,,,0.00,19,MyOwnSoftware,2013-03-17 08:21:00,
2013-03-17 08:22:00,40.1,40.1,29.23,NNE,22,6.0,10.0,100,0.00,,,0.00,19,MyOwnSoftware,2013-03-17 08:22:00,
2013-03-17 08:23:00,40.1,40.1,29.23,North,0,6.0,10.0,100,0.00,,,0.00,20,MyOwnSoftware,2013-03-17 08:23:00,
2013-03-17 08:24:00,40.1,40.1,29.23,North,0,6.0,12.0,100,0.00,,,0.00,21,MyOwnSoftware,2013-03-17 08:24:00,
2013-03-17 08:25:00,40.1,40.1,29.23,NNE,22,8.0,13.0,100,0.00,,,0.00,21,MyOwnSoftware,2013-03-17 08:25:00,
2013-03-17 08:26:00,40.1,40.1,29.23,North,0,6.0,11.0,100,0.00,,,0.00,21,MyOwnSoftware,2013-03-17 08:26:00,
2013-03-17 08:29:00,40.1,40.1,29.23,NE,45,5.0,10.0,100,0.00,,,0.00,23,MyOwnSoftware,2013-03-17 08:29:00,
2013-03-17 08:30:00,40.1,40.1,29.23,NE,45,6.0,8.0,100,0.00,,,0.00,23,MyOwnSoftware,2013-03-17 08:30:00,
2013-03-17 08:31:00,40.1,40.1,29.23,NE,45,5.0,7.0,100,0.00,,,0.00,23,MyOwnSoftware,2013-03-17 08:31:00,
2013-03-17 08:32:00,40.1,40.1,29.23,NE,45,5.0,7.0,100,0.00,,,0.00,30,MyOwnSoftware,2013-03-17 08:32:00,
2013-03-17 08:33:00,40.1,40.0,29.23,NE,56,9.0,-999.0,100,-99.99,,,0.00,30,weatherlink.com 1.10,2013-03-17 08:33:00,
2013-03-17 08:34:00,40.1,40.1,29.23,ENE,68,8.0,12.0,100,0.00,,,0.00,30,MyOwnSoftware,2013-03-17 08:34:00,
2013-03-17 08:35:00,40.1,40.1,29.23,NNE,22,6.0,8.0,100,0.00,,,0.00,30,MyOwnSoftware,2013-03-17 08:35:00,
2013-03-17 08:39:00,40.1,40.1,29.23,NNE,22,5.0,8.0,100,0.00,,,0.00,26,MyOwnSoftware,2013-03-17 08:39:00,
2013-03-17 08:40:00,40.2,40.2,29.23,North,0,6.0,8.0,100,0.00,,,0.00,30,MyOwnSoftware,2013-03-17 08:40:00,
2013-03-17 08:41:00,40.2,40.2,29.23,NNE,22,7.0,11.0,100,0.00,,,0.00,30,MyOwnSoftware,2013-03-17 08:41:00,
2013-03-17 08:42:00,40.2,40.2,29.23,NNE,22,5.0,7.0,100,0.00,,,0.00,30,MyOwnSoftware,2013-03-17 08:42:00,
2013-03-17 08:43:00,40.2,40.2,29.23,NNW,338,6.0,8.0,100,0.00,,,0.00,30,MyOwnSoftware,2013-03-17 08:43:00,
2013-03-17 08:44:00,40.2,40.2,29.23,North,0,4.0,7.0,100,0.00,,,0.00,30,MyOwnSoftware,2013-03-17 08:44:00,
2013-03-17 08:45:00,40.1,40.1,29.23,NNE,22,7.0,11.0,100,0.00,,,0.00,26,MyOwnSoftware,2013-03-17 08:45:00,
2013-03-17 08:49:00,40.2,40.2,29.23,North,0,6.0,8.0,100,0.00,,,0.00,42,MyOwnSoftware,2013-03-17 08:49:00,
2013-03-17 08:50:00,40.3,40.3,29.23,North,0,4.0,8.0,100,0.00,,,0.00,42,MyOwnSoftware,2013-03-17 08:50:00,
2013-03-17 08:51:00,40.3,40.3,29.23,North,0,6.0,9.0,100,0.00,,,0.00,42,MyOwnSoftware,2013-03-17 08:51:00,
2013-03-17 08:52:00,40.3,40.3,29.23,North,0,5.0,10.0,100,0.00,,,0.00,42,MyOwnSoftware,2013-03-17 08:52:00,
2013-03-17 08:53:00,40.3,40.3,29.23,NNE,22,7.0,10.0,100,0.00,,,0.00,84,MyOwnSoftware,2013-03-17 08:53:00,
2013-03-17 08:54:00,40.3,40.3,29.23,North,0,6.0,7.0,100,0.00,,,0.00,118,MyOwnSoftware,2013-03-17 08:54:00,
2013-03-17 08:55:00,40.2,40.2,29.23,NNE,22,7.0,10.0,100,0.00,,,0.00,30,MyOwnSoftware,2013-03-17 08:55:00,
2013-03-17 08:56:00,40.3,40.3,29.23,NNE,22,6.0,10.0,100,0.00,,,0.00,125,MyOwnSoftware,2013-03-17 08:56:00,
2013-03-17 08:57:00,40.5,40.5,29.23,North,0,7.0,10.0,100,0.00,,,0.00,137,MyOwnSoftware,2013-03-17 08:57:00,
2013-03-17 08:58:00,40.5,40.5,29.23,North,0,7.0,12.0,100,0.00,,,0.00,116,MyOwnSoftware,2013-03-17 08:58:00,
2013-03-17 08:59:00,40.5,40.5,29.23,NNE,22,8.0,12.0,100,0.00,,,0.00,99,MyOwnSoftware,2013-03-17 08:59:00,
2013-03-17 09:00:00,40.5,40.5,29.22,NNE,22,8.0,11.0,100,0.00,,,0.00,100,MyOwnSoftware,2013-03-17 09:00:00,
2013-03-17 09:01:00,40.5,40.5,29.22,North,0,6.0,12.0,100,0.00,,,0.00,97,MyOwnSoftware,2013-03-17 09:01:00,
2013-03-17 09:02:00,40.5,40.5,29.22,NNE,22,9.0,13.0,100,0.00,,,0.00,83,MyOwnSoftware,2013-03-17 09:02:00,
2013-03-17 09:03:00,40.5,41.0,29.22,North,3,7.0,-999.0,100,-99.99,,,0.00,63,weatherlink.com 1.10,2013-03-17 09:03:00,
2013-03-17 09:04:00,40.5,40.5,29.22,North,0,6.0,11.0,100,0.00,,,0.00,58,MyOwnSoftware,2013-03-17 09:04:00,
2013-03-17 09:05:00,40.5,40.5,29.22,NNE,22,6.0,8.0,100,0.00,,,0.00,56,MyOwnSoftware,2013-03-17 09:05:00,
2013-03-17 09:09:00,40.5,40.5,29.22,North,0,6.0,8.0,100,0.00,,,0.00,58,MyOwnSoftware,2013-03-17 09:09:00,
2013-03-17 09:10:00,40.5,40.5,29.22,North,0,7.0,11.0,100,0.00,,,0.00,56,MyOwnSoftware,2013-03-17 09:10:00,
2013-03-17 09:11:00,40.5,40.5,29.22,North,0,7.0,11.0,100,0.00,,,0.00,53,MyOwnSoftware,2013-03-17 09:11:00,
2013-03-17 09:12:00,40.5,40.5,29.22,North,0,7.0,11.0,100,0.00,,,0.00,53,MyOwnSoftware,2013-03-17 09:12:00,
2013-03-17 09:13:00,40.5,40.5,29.22,NE,45,8.0,13.0,100,0.00,,,0.00,51,MyOwnSoftware,2013-03-17 09:13:00,
2013-03-17 09:14:00,40.5,40.5,29.22,North,0,6.0,12.0,100,0.00,,,0.00,48,MyOwnSoftware,2013-03-17 09:14:00,
2013-03-17 09:15:00,40.5,40.5,29.22,NNE,22,8.0,11.0,100,0.00,,,0.00,62,MyOwnSoftware,2013-03-17 09:15:00,
2013-03-17 09:16:00,40.5,40.5,29.22,North,0,8.0,12.0,100,0.00,,,0.00,37,MyOwnSoftware,2013-03-17 09:16:00,
2013-03-17 09:17:00,40.5,40.5,29.22,North,0,6.0,10.0,100,0.00,,,0.00,39,MyOwnSoftware,2013-03-17 09:17:00,
2013-03-17 09:18:00,40.5,40.5,29.22,NE,45,6.0,10.0,100,0.00,,,0.01,37,MyOwnSoftware,2013-03-17 09:18:00,
2013-03-17 09:19:00,40.5,40.5,29.22,NE,45,5.0,7.0,100,0.00,,,0.01,35,MyOwnSoftware,2013-03-17 09:19:00,
2013-03-17 09:20:00,40.5,40.5,29.22,North,0,6.0,13.0,100,0.00,,,0.01,44,MyOwnSoftware,2013-03-17 09:20:00,
2013-03-17 09:21:00,40.5,40.5,29.22,North,0,8.0,16.0,100,0.00,,,0.01,42,MyOwnSoftware,2013-03-17 09:21:00,
2013-03-17 09:22:00,40.5,40.5,29.22,North,0,6.0,10.0,100,0.00,,,0.01,42,MyOwnSoftware,2013-03-17 09:22:00,
2013-03-17 09:23:00,40.5,40.5,29.22,North,0,5.0,8.0,100,0.00,,,0.01,40,MyOwnSoftware,2013-03-17 09:23:00,
2013-03-17 09:24:00,40.5,40.5,29.22,NE,45,6.0,10.0,100,0.00,,,0.01,40,MyOwnSoftware,2013-03-17 09:24:00,
2013-03-17 09:25:00,40.3,40.3,29.22,North,0,6.0,10.0,100,0.00,,,0.01,40,MyOwnSoftware,2013-03-17 09:25:00,
2013-03-17 09:29:00,40.3,40.3,29.22,NNE,22,7.0,12.0,100,0.00,,,0.00,51,MyOwnSoftware,2013-03-17 09:29:00,
2013-03-17 09:30:00,40.3,40.3,29.22,NE,45,4.0,7.0,100,0.00,,,0.00,51,MyOwnSoftware,2013-03-17 09:30:00,
2013-03-17 09:31:00,40.3,40.3,29.22,NNE,22,6.0,10.0,100,0.00,,,0.00,46,MyOwnSoftware,2013-03-17 09:31:00,
2013-03-17 09:32:00,40.3,40.3,29.22,North,0,7.0,11.0,100,0.00,,,0.00,46,MyOwnSoftware,2013-03-17 09:32:00,
2013-03-17 09:33:00,40.3,40.0,29.22,ENE,68,4.0,-999.0,100,-99.99,,,0.01,46,weatherlink.com 1.10,2013-03-17 09:33:00,
2013-03-17 09:34:00,40.3,40.3,29.22,NE,45,6.0,9.0,100,0.00,,,0.00,46,MyOwnSoftware,2013-03-17 09:34:00,
2013-03-17 09:35:00,40.3,40.3,29.22,North,0,6.0,8.0,100,0.00,,,0.00,65,MyOwnSoftware,2013-03-17 09:35:00,
2013-03-17 09:39:00,40.3,40.3,29.22,NE,45,7.0,9.0,100,0.00,,,0.00,72,MyOwnSoftware,2013-03-17 09:39:00,
2013-03-17 09:40:00,40.3,40.3,29.22,North,0,7.0,13.0,100,0.00,,,0.00,79,MyOwnSoftware,2013-03-17 09:40:00,
2013-03-17 09:41:00,40.3,40.3,29.22,NE,45,5.0,7.0,100,0.00,,,0.00,76,MyOwnSoftware,2013-03-17 09:41:00,
2013-03-17 09:42:00,40.3,40.3,29.22,NE,45,5.0,10.0,100,0.00,,,0.00,76,MyOwnSoftware,2013-03-17 09:42:00,
2013-03-17 09:43:00,40.3,40.3,29.22,NNE,22,7.0,10.0,100,0.00,,,0.00,90,MyOwnSoftware,2013-03-17 09:43:00,
2013-03-17 09:44:00,40.3,40.3,29.22,NNE,22,5.0,8.0,100,0.00,,,0.00,135,MyOwnSoftware,2013-03-17 09:44:00,
2013-03-17 09:45:00,40.3,40.3,29.22,North,0,7.0,9.0,100,0.00,,,0.00,76,MyOwnSoftware,2013-03-17 09:45:00,
2013-03-17 09:49:00,40.5,40.5,29.21,NNE,22,5.0,8.0,100,0.00,,,0.00,65,MyOwnSoftware,2013-03-17 09:49:00,
2013-03-17 09:50:00,40.5,40.5,29.21,ENE,68,5.0,7.0,100,0.00,,,0.00,69,MyOwnSoftware,2013-03-17 09:50:00,
2013-03-17 09:51:00,40.5,40.5,29.21,NNE,22,5.0,8.0,100,0.00,,,0.00,91,MyOwnSoftware,2013-03-17 09:51:00,
2013-03-17 09:52:00,40.5,40.5,29.21,NE,45,6.0,8.0,100,0.00,,,0.00,97,MyOwnSoftware,2013-03-17 09:52:00,
2013-03-17 09:53:00,40.5,40.5,29.21,North,0,5.0,8.0,100,0.00,,,0.00,130,MyOwnSoftware,2013-03-17 09:53:00,
2013-03-17 09:54:00,40.5,40.5,29.21,North,0,5.0,8.0,100,0.00,,,0.00,125,MyOwnSoftware,2013-03-17 09:54:00,
2013-03-17 09:55:00,40.3,40.3,29.21,NE,45,6.0,10.0,100,0.00,,,0.00,84,MyOwnSoftware,2013-03-17 09:55:00,
2013-03-17 09:56:00,40.5,40.5,29.21,NE,45,6.0,8.0,100,0.00,,,0.00,90,MyOwnSoftware,2013-03-17 09:56:00,
2013-03-17 09:57:00,40.5,40.5,29.21,NNE,22,6.0,12.0,100,0.00,,,0.00,91,MyOwnSoftware,2013-03-17 09:57:00,
2013-03-17 09:58:00,40.6,40.6,29.21,North,0,5.0,8.0,100,0.00,,,0.00,90,MyOwnSoftware,2013-03-17 09:58:00,
2013-03-17 09:59:00,40.6,40.6,29.21,NE,45,6.0,10.0,100,0.00,,,0.00,86,MyOwnSoftware,2013-03-17 09:59:00,
2013-03-17 10:00:00,40.6,40.6,29.21,NNE,22,7.0,11.0,100,0.00,,,0.00,88,MyOwnSoftware,2013-03-17 10:00:00,
2013-03-17 10:01:00,40.6,40.6,29.21,North,0,6.0,8.0,100,0.00,,,0.00,70,MyOwnSoftware,2013-03-17 10:01:00,
2013-03-17 10:02:00,40.6,40.6,29.21,NE,45,7.0,11.0,100,0.00,,,0.00,76,MyOwnSoftware,2013-03-17 10:02:00,
2013-03-17 10:03:00,40.6,41.0,29.21,NNE,30,7.0,-999.0,100,-99.99,,,0.01,53,weatherlink.com 1.10,2013-03-17 10:03:00,
2013-03-17 10:04:00,40.6,40.6,29.21,North,0,5.0,7.0,100,0.00,,,0.00,39,MyOwnSoftware,2013-03-17 10:04:00,
2013-03-17 10:05:00,40.6,40.6,29.21,North,0,6.0,10.0,100,0.00,,,0.00,40,MyOwnSoftware,2013-03-17 10:05:00,
2013-03-17 10:09:00,40.6,40.6,29.21,NE,45,5.0,10.0,100,0.00,,,0.00,39,MyOwnSoftware,2013-03-17 10:09:00,
2013-03-17 10:10:00,40.6,40.6,29.21,North,0,7.0,10.0,100,0.00,,,0.00,42,MyOwnSoftware,2013-03-17 10:10:00,
2013-03-17 10:11:00,40.6,40.6,29.21,North,0,8.0,13.0,100,0.00,,,0.00,55,MyOwnSoftware,2013-03-17 10:11:00,
2013-03-17 10:12:00,40.6,40.6,29.21,NNE,22,7.0,13.0,100,0.00,,,0.00,74,MyOwnSoftware,2013-03-17 10:12:00,
2013-03-17 10:13:00,40.6,40.6,29.21,North,0,5.0,8.0,100,0.00,,,0.00,95,MyOwnSoftware,2013-03-17 10:13:00,
2013-03-17 10:14:00,40.6,40.6,29.21,North,0,5.0,7.0,100,0.00,,,0.00,91,MyOwnSoftware,2013-03-17 10:14:00,
2013-03-17 10:15:00,40.6,40.6,29.21,North,0,6.0,11.0,100,0.00,,,0.00,32,MyOwnSoftware,2013-03-17 10:15:00,
2013-03-17 10:16:00,40.6,40.6,29.21,NNE,22,7.0,10.0,100,0.00,,,0.00,79,MyOwnSoftware,2013-03-17 10:16:00,
2013-03-17 10:17:00,40.6,40.6,29.21,NNE,22,5.0,8.0,100,0.00,,,0.00,60,MyOwnSoftware,2013-03-17 10:17:00,
2013-03-17 10:18:00,40.6,40.6,29.21,NNE,22,5.0,8.0,100,0.00,,,0.00,62,MyOwnSoftware,2013-03-17 10:18:00,
2013-03-17 10:19:00,40.8,40.8,29.21,NNE,22,5.0,10.0,100,0.00,,,0.00,70,MyOwnSoftware,2013-03-17 10:19:00,
2013-03-17 10:20:00,40.8,40.8,29.21,NE,45,6.0,8.0,100,0.00,,,0.00,90,MyOwnSoftware,2013-03-17 10:20:00,
2013-03-17 10:21:00,40.8,40.8,29.21,NNE,22,6.0,11.0,100,0.00,,,0.00,72,MyOwnSoftware,2013-03-17 10:21:00,
2013-03-17 10:22:00,40.8,40.8,29.21,NNE,22,6.0,8.0,100,0.00,,,0.00,63,MyOwnSoftware,2013-03-17 10:22:00,
2013-03-17 10:23:00,40.8,40.8,29.21,North,0,5.0,7.0,100,0.00,,,0.00,46,MyOwnSoftware,2013-03-17 10:23:00,
2013-03-17 10:24:00,40.8,40.8,29.21,NNE,22,4.0,7.0,100,0.00,,,0.00,58,MyOwnSoftware,2013-03-17 10:24:00,
2013-03-17 10:25:00,40.8,40.8,29.21,NNE,22,4.0,7.0,100,0.00,,,0.00,74,MyOwnSoftware,2013-03-17 10:25:00,
2013-03-17 10:29:00,40.8,40.8,29.21,NNE,22,5.0,8.0,100,0.00,,,0.00,69,MyOwnSoftware,2013-03-17 10:29:00,
2013-03-17 10:30:00,40.8,40.8,29.21,North,0,5.0,8.0,100,0.00,,,0.00,67,MyOwnSoftware,2013-03-17 10:30:00,
2013-03-17 10:31:00,40.8,40.8,29.21,North,0,5.0,8.0,100,0.00,,,0.00,60,MyOwnSoftware,2013-03-17 10:31:00,
2013-03-17 10:32:00,40.8,40.8,29.21,North,0,4.0,6.0,100,0.00,,,0.00,83,MyOwnSoftware,2013-03-17 10:32:00,
2013-03-17 10:33:00,40.8,41.0,29.21,North,3,5.0,-999.0,100,-99.99,,,0.01,69,weatherlink.com 1.10,2013-03-17 10:33:00,
2013-03-17 10:34:00,40.8,40.8,29.21,North,0,6.0,11.0,100,0.00,,,0.00,70,MyOwnSoftware,2013-03-17 10:34:00,
2013-03-17 10:35:00,40.8,40.8,29.21,North,0,6.0,11.0,100,0.00,,,0.00,62,MyOwnSoftware,2013-03-17 10:35:00,
2013-03-17 10:39:00,40.8,40.8,29.21,North,0,7.0,11.0,100,0.00,,,0.00,95,MyOwnSoftware,2013-03-17 10:39:00,
2013-03-17 10:40:00,40.8,40.8,29.21,North,0,5.0,7.0,100,0.00,,,0.00,99,MyOwnSoftware,2013-03-17 10:40:00,
2013-03-17 10:41:00,40.8,40.8,29.21,NE,45,7.0,10.0,100,0.00,,,0.00,100,MyOwnSoftware,2013-03-17 10:41:00,
2013-03-17 10:42:00,40.8,40.8,29.21,NE,45,7.0,11.0,100,0.00,,,0.00,107,MyOwnSoftware,2013-03-17 10:42:00,
2013-03-17 10:43:00,40.8,40.8,29.21,NE,45,7.0,10.0,100,0.00,,,0.00,109,MyOwnSoftware,2013-03-17 10:43:00,
2013-03-17 10:44:00,40.8,40.8,29.21,NNE,22,6.0,11.0,100,0.00,,,0.00,100,MyOwnSoftware,2013-03-17 10:44:00,
2013-03-17 10:45:00,40.8,40.8,29.21,North,0,7.0,11.0,100,0.00,,,0.00,58,MyOwnSoftware,2013-03-17 10:45:00,
2013-03-17 10:49:00,40.8,40.8,29.20,NE,45,5.0,7.0,100,0.00,,,0.00,81,MyOwnSoftware,2013-03-17 10:49:00,
2013-03-17 10:50:00,40.8,40.8,29.20,NNE,22,5.0,7.0,100,0.00,,,0.00,69,MyOwnSoftware,2013-03-17 10:50:00,
2013-03-17 10:51:00,40.8,40.8,29.20,North,0,4.0,5.0,100,0.00,,,0.00,63,MyOwnSoftware,2013-03-17 10:51:00,
2013-03-17 10:52:00,40.8,40.8,29.20,North,0,4.0,10.0,100,0.00,,,0.00,83,MyOwnSoftware,2013-03-17 10:52:00,
2013-03-17 10:53:00,40.8,40.8,29.20,NNE,22,7.0,11.0,100,0.00,,,0.00,78,MyOwnSoftware,2013-03-17 10:53:00,
2013-03-17 10:54:00,40.8,40.8,29.20,NE,45,6.0,8.0,100,0.00,,,0.00,62,MyOwnSoftware,2013-03-17 10:54:00,
2013-03-17 10:55:00,40.8,40.8,29.20,NNE,22,5.0,8.0,100,0.00,,,0.00,72,MyOwnSoftware,2013-03-17 10:55:00,
2013-03-17 10:56:00,40.8,40.8,29.20,North,0,6.0,8.0,100,0.00,,,0.00,46,MyOwnSoftware,2013-03-17 10:56:00,
2013-03-17 10:57:00,40.8,40.8,29.20,NNE,22,7.0,11.0,100,0.00,,,0.00,44,MyOwnSoftware,2013-03-17 10:57:00,
2013-03-17 10:58:00,40.6,40.6,29.20,North,0,6.0,8.0,100,0.00,,,0.00,53,MyOwnSoftware,2013-03-17 10:58:00,
2013-03-17 10:59:00,40.6,40.6,29.20,NNE,22,6.0,9.0,100,0.00,,,0.00,56,MyOwnSoftware,2013-03-17 10:59:00,
2013-03-17 11:00:00,40.5,40.5,29.20,North,0,6.0,8.0,100,0.00,,,0.00,60,MyOwnSoftware,2013-03-17 11:00:00,
2013-03-17 11:01:00,40.3,40.3,29.20,North,0,5.0,10.0,100,0.00,,,0.00,58,MyOwnSoftware,2013-03-17 11:01:00,
2013-03-17 11:02:00,40.3,40.3,29.20,ENE,68,5.0,7.0,100,0.00,,,0.00,58,MyOwnSoftware,2013-03-17 11:02:00,
2013-03-17 11:03:00,40.2,40.0,29.20,ENE,69,6.0,-999.0,100,-99.99,,,0.01,60,weatherlink.com 1.10,2013-03-17 11:03:00,
2013-03-17 11:04:00,40.2,40.2,29.20,North,0,6.0,11.0,100,0.00,,,0.00,58,MyOwnSoftware,2013-03-17 11:04:00,
2013-03-17 11:05:00,40.1,40.1,29.20,North,0,5.0,10.0,100,0.00,,,0.00,56,MyOwnSoftware,2013-03-17 11:05:00,
2013-03-17 11:09:00,39.6,39.6,29.20,NNE,22,6.0,10.0,100,0.00,,,0.00,42,MyOwnSoftware,2013-03-17 11:09:00,
2013-03-17 11:10:00,39.6,39.6,29.20,North,0,6.0,13.0,100,0.00,,,0.00,39,MyOwnSoftware,2013-03-17 11:10:00,
2013-03-17 11:11:00,39.5,39.5,29.20,NNE,22,7.0,11.0,100,0.00,,,0.00,37,MyOwnSoftware,2013-03-17 11:11:00,
2013-03-17 11:12:00,39.3,39.3,29.20,North,0,5.0,8.0,100,0.00,,,0.00,37,MyOwnSoftware,2013-03-17 11:12:00,
2013-03-17 11:13:00,39.3,39.3,29.20,North,0,6.0,13.0,100,0.00,,,0.00,40,MyOwnSoftware,2013-03-17 11:13:00,
2013-03-17 11:14:00,39.2,39.2,29.20,North,0,6.0,8.0,100,0.00,,,0.00,39,MyOwnSoftware,2013-03-17 11:14:00,
2013-03-17 11:15:00,40.1,40.1,29.20,North,0,7.0,13.0,100,0.00,,,0.00,55,MyOwnSoftware,2013-03-17 11:15:00,
2013-03-17 11:16:00,39.1,39.1,29.20,NE,45,5.0,10.0,100,0.00,,,0.00,42,MyOwnSoftware,2013-03-17 11:16:00,
2013-03-17 11:17:00,39.1,39.1,29.20,North,0,5.0,7.0,100,0.00,,,0.01,46,MyOwnSoftware,2013-03-17 11:17:00,
2013-03-17 11:18:00,38.9,38.9,29.20,North,0,6.0,10.0,100,0.00,,,0.01,48,MyOwnSoftware,2013-03-17 11:18:00,
2013-03-17 11:19:00,38.9,38.9,29.20,North,0,7.0,10.0,100,0.00,,,0.01,48,MyOwnSoftware,2013-03-17 11:19:00,
2013-03-17 11:20:00,38.9,38.9,29.20,NNE,22,7.0,11.0,100,0.00,,,0.01,48,MyOwnSoftware,2013-03-17 11:20:00,
2013-03-17 11:21:00,38.8,38.8,29.20,North,0,6.0,10.0,100,0.00,,,0.01,48,MyOwnSoftware,2013-03-17 11:21:00,
2013-03-17 11:22:00,38.8,38.8,29.20,NNE,22,4.0,6.0,100,0.00,,,0.01,63,MyOwnSoftware,2013-03-17 11:22:00,
2013-03-17 11:23:00,38.8,38.8,29.20,NNE,22,3.0,6.0,100,0.00,,,0.01,69,MyOwnSoftware,2013-03-17 11:23:00,
2013-03-17 11:24:00,38.8,38.8,29.20,NNE,22,4.0,6.0,100,0.00,,,0.01,69,MyOwnSoftware,2013-03-17 11:24:00,
2013-03-17 11:25:00,38.9,38.9,29.20,NNE,22,5.0,7.0,100,0.00,,,0.01,65,MyOwnSoftware,2013-03-17 11:25:00,
2013-03-17 11:29:00,38.9,38.9,29.20,North,0,3.0,5.0,100,0.00,,,0.00,70,MyOwnSoftware,2013-03-17 11:29:00,
2013-03-17 11:30:00,38.9,38.9,29.20,NNE,22,2.0,5.0,100,0.00,,,0.00,72,MyOwnSoftware,2013-03-17 11:30:00,
2013-03-17 11:31:00,38.9,38.9,29.20,North,0,4.0,7.0,100,0.00,,,0.00,74,MyOwnSoftware,2013-03-17 11:31:00,
2013-03-17 11:32:00,38.9,38.9,29.20,NNE,22,4.0,6.0,100,0.04,,,0.01,69,MyOwnSoftware,2013-03-17 11:32:00,
2013-03-17 11:33:00,39.1,39.0,29.20,North,4,4.0,-999.0,100,-99.99,,,0.03,62,weatherlink.com 1.10,2013-03-17 11:33:00,
2013-03-17 11:34:00,39.1,39.1,29.20,NE,45,4.0,6.0,100,0.04,,,0.01,70,MyOwnSoftware,2013-03-17 11:34:00,
2013-03-17 11:35:00,39.1,39.1,29.20,NE,45,4.0,7.0,100,0.04,,,0.01,84,MyOwnSoftware,2013-03-17 11:35:00,
2013-03-17 11:39:00,39.1,39.1,29.20,NNE,22,4.0,7.0,100,0.04,,,0.00,79,MyOwnSoftware,2013-03-17 11:39:00,
2013-03-17 11:40:00,39.1,39.1,29.20,North,0,4.0,7.0,100,0.04,,,0.00,77,MyOwnSoftware,2013-03-17 11:40:00,
2013-03-17 11:41:00,39.1,39.1,29.20,NNE,22,6.0,8.0,100,0.04,,,0.00,76,MyOwnSoftware,2013-03-17 11:41:00,
2013-03-17 11:42:00,39.1,39.1,29.20,ENE,68,4.0,7.0,100,0.04,,,0.00,76,MyOwnSoftware,2013-03-17 11:42:00,
2013-03-17 11:43:00,39.1,39.1,29.20,NE,45,4.0,6.0,100,0.04,,,0.00,84,MyOwnSoftware,2013-03-17 11:43:00,
2013-03-17 11:44:00,39.1,39.1,29.20,NE,45,3.0,5.0,100,0.04,,,0.00,93,MyOwnSoftware,2013-03-17 11:44:00,
2013-03-17 11:45:00,39.1,39.1,29.20,North,0,6.0,8.0,100,0.04,,,0.01,86,MyOwnSoftware,2013-03-17 11:45:00,
2013-03-17 11:49:00,39.2,39.2,29.20,North,0,5.0,8.0,100,0.00,,,0.00,88,MyOwnSoftware,2013-03-17 11:49:00,
2013-03-17 11:50:00,39.2,39.2,29.20,NNE,22,4.0,6.0,100,0.00,,,0.00,79,MyOwnSoftware,2013-03-17 11:50:00,
2013-03-17 11:51:00,39.2,39.2,29.20,North,0,6.0,8.0,100,0.00,,,0.00,77,MyOwnSoftware,2013-03-17 11:51:00,
2013-03-17 11:52:00,39.2,39.2,29.20,NNW,338,4.0,7.0,100,0.00,,,0.00,77,MyOwnSoftware,2013-03-17 11:52:00,
2013-03-17 11:53:00,39.2,39.2,29.20,North,0,7.0,11.0,100,0.00,,,0.00,90,MyOwnSoftware,2013-03-17 11:53:00,
2013-03-17 11:54:00,39.2,39.2,29.20,North,0,7.0,12.0,100,0.00,,,0.00,128,MyOwnSoftware,2013-03-17 11:54:00,
2013-03-17 11:55:00,39.1,39.1,29.20,NNE,22,5.0,7.0,100,0.04,,,0.00,106,MyOwnSoftware,2013-03-17 11:55:00,
2013-03-17 11:56:00,39.3,39.3,29.20,North,0,5.0,8.0,100,0.00,,,0.00,153,MyOwnSoftware,2013-03-17 11:56:00,
2013-03-17 11:57:00,39.3,39.3,29.20,NNE,22,6.0,11.0,100,0.00,,,0.00,164,MyOwnSoftware,2013-03-17 11:57:00,
2013-03-17 11:58:00,39.3,39.3,29.20,NNW,338,4.0,7.0,100,0.00,,,0.00,197,MyOwnSoftware,2013-03-17 11:58:00,
2013-03-17 11:59:00,39.3,39.3,29.20,NNE,22,6.0,10.0,100,0.00,,,0.00,208,MyOwnSoftware,2013-03-17 11:59:00,
2013-03-17 12:00:00,39.3,39.3,29.20,NNE,22,5.0,7.0,100,0.00,,,0.00,197,MyOwnSoftware,2013-03-17 12:00:00,
2013-03-17 12:01:00,39.5,39.5,29.20,NE,45,6.0,8.0,100,0.00,,,0.00,176,MyOwnSoftware,2013-03-17 12:01:00,
2013-03-17 12:02:00,39.5,39.5,29.20,NNW,338,4.0,7.0,100,0.00,,,0.00,158,MyOwnSoftware,2013-03-17 12:02:00,
2013-03-17 12:03:00,39.5,40.0,29.20,NNE,21,8.0,-999.0,100,-99.99,,,0.03,162,weatherlink.com 1.10,2013-03-17 12:03:00,
2013-03-17 12:04:00,39.5,39.5,29.20,North,0,6.0,8.0,100,0.00,,,0.00,178,MyOwnSoftware,2013-03-17 12:04:00,
2013-03-17 12:05:00,39.6,39.6,29.20,North,0,5.0,8.0,100,0.00,,,0.00,204,MyOwnSoftware,2013-03-17 12:05:00,
2013-03-17 12:09:00,39.8,39.8,29.20,North,0,6.0,11.0,100,0.00,,,0.00,313,MyOwnSoftware,2013-03-17 12:09:00,
2013-03-17 12:10:00,39.8,39.8,29.20,NNE,22,5.0,7.0,100,0.00,,,0.00,340,MyOwnSoftware,2013-03-17 12:10:00,
2013-03-17 12:11:00,39.9,39.9,29.20,North,0,5.0,8.0,100,0.00,,,0.00,343,MyOwnSoftware,2013-03-17 12:11:00,
2013-03-17 12:12:00,39.9,39.9,29.20,NNE,22,6.0,9.0,100,0.00,,,0.00,315,MyOwnSoftware,2013-03-17 12:12:00,
2013-03-17 12:13:00,39.9,39.9,29.20,NNE,22,6.0,8.0,100,0.00,,,0.00,278,MyOwnSoftware,2013-03-17 12:13:00,
2013-03-17 12:14:00,39.9,39.9,29.20,NNE,22,5.0,7.0,100,0.00,,,0.00,227,MyOwnSoftware,2013-03-17 12:14:00,
2013-03-17 12:15:00,39.6,39.6,29.20,North,0,4.0,6.0,100,0.00,,,0.00,239,MyOwnSoftware,2013-03-17 12:15:00,
2013-03-17 12:16:00,39.9,39.9,29.20,NE,45,5.0,10.0,100,0.00,,,0.00,185,MyOwnSoftware,2013-03-17 12:16:00,
2013-03-17 12:17:00,39.9,39.9,29.20,North,0,5.0,10.0,100,0.00,,,0.00,172,MyOwnSoftware,2013-03-17 12:17:00,
2013-03-17 12:18:00,39.9,39.9,29.20,ENE,68,5.0,9.0,100,0.00,,,0.00,151,MyOwnSoftware,2013-03-17 12:18:00,
2013-03-17 12:19:00,39.9,39.9,29.20,NE,45,5.0,8.0,100,0.00,,,0.00,128,MyOwnSoftware,2013-03-17 12:19:00,
2013-03-17 12:20:00,39.8,39.8,29.20,NE,45,5.0,6.0,100,0.00,,,0.00,116,MyOwnSoftware,2013-03-17 12:20:00,
2013-03-17 12:21:00,39.8,39.8,29.20,NNE,22,5.0,6.0,100,0.00,,,0.00,106,MyOwnSoftware,2013-03-17 12:21:00,
2013-03-17 12:22:00,39.8,39.8,29.20,North,0,5.0,7.0,100,0.00,,,0.00,97,MyOwnSoftware,2013-03-17 12:22:00,
2013-03-17 12:23:00,39.8,39.8,29.20,North,0,5.0,8.0,100,0.00,,,0.00,93,MyOwnSoftware,2013-03-17 12:23:00,
2013-03-17 12:24:00,39.8,39.8,29.20,NNE,22,5.0,7.0,100,0.00,,,0.00,91,MyOwnSoftware,2013-03-17 12:24:00,
2013-03-17 12:25:00,39.8,39.8,29.20,North,0,5.0,7.0,100,0.00,,,0.00,88,MyOwnSoftware,2013-03-17 12:25:00,
2013-03-17 12:29:00,39.8,39.8,29.20,NNE,22,5.0,7.0,100,0.00,,,0.00,53,MyOwnSoftware,2013-03-17 12:29:00,
2013-03-17 12:30:00,39.6,39.6,29.20,NNE,22,5.0,6.0,100,0.00,,,0.00,46,MyOwnSoftware,2013-03-17 12:30:00,
2013-03-17 12:31:00,39.6,39.6,29.20,North,0,5.0,7.0,100,0.00,,,0.00,46,MyOwnSoftware,2013-03-17 12:31:00,
2013-03-17 12:32:00,39.6,39.6,29.20,NNE,22,6.0,8.0,100,0.00,,,0.00,37,MyOwnSoftware,2013-03-17 12:32:00,
2013-03-17 12:33:00,39.5,40.0,29.20,NE,54,6.0,-999.0,100,-99.99,,,0.03,35,weatherlink.com 1.10,2013-03-17 12:33:00,
2013-03-17 12:34:00,39.5,39.5,29.20,North,0,6.0,8.0,100,0.00,,,0.00,39,MyOwnSoftware,2013-03-17 12:34:00,
2013-03-17 12:35:00,39.5,39.5,29.20,North,0,7.0,11.0,100,0.00,,,0.00,39,MyOwnSoftware,2013-03-17 12:35:00,
2013-03-17 12:39:00,39.3,39.3,29.20,NE,45,3.0,5.0,100,0.00,,,0.00,60,MyOwnSoftware,2013-03-17 12:39:00,
2013-03-17 12:40:00,39.3,39.3,29.20,NW,315,2.0,3.0,100,0.00,,,0.00,60,MyOwnSoftware,2013-03-17 12:40:00,
2013-03-17 12:41:00,39.3,39.3,29.20,North,0,4.0,8.0,100,0.00,,,0.00,62,MyOwnSoftware,2013-03-17 12:41:00,
2013-03-17 12:42:00,39.3,39.3,29.20,NE,45,4.0,8.0,100,0.00,,,0.00,58,MyOwnSoftware,2013-03-17 12:42:00,
2013-03-17 12:43:00,39.3,39.3,29.20,NNW,338,2.0,5.0,100,0.00,,,0.01,56,MyOwnSoftware,2013-03-17 12:43:00,
2013-03-17 12:44:00,39.3,39.3,29.20,North,0,3.0,6.0,100,0.00,,,0.01,72,MyOwnSoftware,2013-03-17 12:44:00,
2013-03-17 12:45:00,39.5,39.5,29.20,North,0,5.0,9.0,100,0.00,,,0.00,44,MyOwnSoftware,2013-03-17 12:45:00,
2013-03-17 12:49:00,39.3,39.3,29.20,NNE,22,4.0,7.0,100,0.00,,,0.00,162,MyOwnSoftware,2013-03-17 12:49:00,
2013-03-17 12:50:00,39.5,39.5,29.20,North,0,3.0,6.0,100,0.00,,,0.00,143,MyOwnSoftware,2013-03-17 12:50:00,
2013-03-17 12:51:00,39.5,39.5,29.20,NNE,22,3.0,6.0,100,0.00,,,0.00,144,MyOwnSoftware,2013-03-17 12:51:00,
2013-03-17 12:52:00,39.5,39.5,29.20,NE,45,6.0,7.0,100,0.00,,,0.00,150,MyOwnSoftware,2013-03-17 12:52:00,
2013-03-17 12:53:00,39.5,39.5,29.20,ENE,68,5.0,7.0,100,0.00,,,0.00,179,MyOwnSoftware,2013-03-17 12:53:00,
2013-03-17 12:54:00,39.5,39.5,29.20,NNE,22,4.0,7.0,100,0.00,,,0.00,144,MyOwnSoftware,2013-03-17 12:54:00,
2013-03-17 12:55:00,39.3,39.3,29.20,NNE,22,5.0,8.0,100,0.00,,,0.01,77,MyOwnSoftware,2013-03-17 12:55:00,
2013-03-17 12:56:00,39.5,39.5,29.20,NE,45,5.0,7.0,100,0.00,,,0.00,86,MyOwnSoftware,2013-03-17 12:56:00,
2013-03-17 12:57:00,39.5,39.5,29.20,North,0,4.0,6.0,100,0.00,,,0.00,88,MyOwnSoftware,2013-03-17 12:57:00,
2013-03-17 12:58:00,39.5,39.5,29.20,NNE,22,6.0,8.0,100,0.00,,,0.00,86,MyOwnSoftware,2013-03-17 12:58:00,
2013-03-17 12:59:00,39.5,39.5,29.20,NNE,22,6.0,9.0,100,0.00,,,0.00,84,MyOwnSoftware,2013-03-17 12:59:00,
2013-03-17 13:00:00,39.5,39.5,29.20,NE,45,5.0,7.0,100,0.00,,,0.00,69,MyOwnSoftware,2013-03-17 13:00:00,
2013-03-17 13:01:00,39.3,39.3,29.20,ENE,68,3.0,6.0,100,0.00,,,0.00,67,MyOwnSoftware,2013-03-17 13:01:00,
2013-03-17 13:02:00,39.3,39.3,29.20,ENE,68,3.0,5.0,100,0.00,,,0.00,67,MyOwnSoftware,2013-03-17 13:02:00,
2013-03-17 13:03:00,39.5,40.0,29.20,North,0,3.0,-999.0,100,-99.99,,,0.04,169,weatherlink.com 1.10,2013-03-17 13:03:00,
2013-03-17 13:04:00,39.5,39.5,29.20,North,0,3.0,6.0,100,0.00,,,0.00,188,MyOwnSoftware,2013-03-17 13:04:00,
2013-03-17 13:05:00,39.6,39.6,29.20,North,0,2.0,3.0,100,0.00,,,0.00,220,MyOwnSoftware,2013-03-17 13:05:00,
2013-03-17 13:09:00,40.1,40.1,29.20,NNE,22,4.0,6.0,100,0.00,,,0.00,236,MyOwnSoftware,2013-03-17 13:09:00,
2013-03-17 13:10:00,40.1,40.1,29.20,NE,45,3.0,6.0,100,0.00,,,0.00,218,MyOwnSoftware,2013-03-17 13:10:00,
2013-03-17 13:11:00,40.2,40.2,29.20,NE,45,4.0,8.0,100,0.00,,,0.00,197,MyOwnSoftware,2013-03-17 13:11:00,
2013-03-17 13:12:00,40.2,40.2,29.20,North,0,3.0,7.0,100,0.00,,,0.01,183,MyOwnSoftware,2013-03-17 13:12:00,
2013-03-17 13:13:00,40.3,40.3,29.20,ENE,68,3.0,6.0,100,0.00,,,0.01,163,MyOwnSoftware,2013-03-17 13:13:00,
2013-03-17 13:14:00,40.3,40.3,29.20,North,0,4.0,6.0,100,0.00,,,0.01,148,MyOwnSoftware,2013-03-17 13:14:00,
2013-03-17 13:15:00,39.6,39.6,29.20,NNW,338,3.0,4.0,100,0.00,,,0.00,230,MyOwnSoftware,2013-03-17 13:15:00,
2013-03-17 13:16:00,40.3,40.3,29.20,NNE,22,4.0,6.0,100,0.00,,,0.01,153,MyOwnSoftware,2013-03-17 13:16:00,
2013-03-17 13:17:00,40.5,40.5,29.20,NNE,22,4.0,7.0,100,0.00,,,0.01,167,MyOwnSoftware,2013-03-17 13:17:00,
2013-03-17 13:18:00,40.5,40.5,29.20,NE,45,4.0,10.0,100,0.00,,,0.01,197,MyOwnSoftware,2013-03-17 13:18:00,
2013-03-17 13:19:00,40.5,40.5,29.20,NNE,22,3.0,5.0,100,0.00,,,0.01,179,MyOwnSoftware,2013-03-17 13:19:00,
2013-03-17 13:20:00,40.5,40.5,29.20,ENE,68,3.0,6.0,100,0.00,,,0.01,153,MyOwnSoftware,2013-03-17 13:20:00,
2013-03-17 13:21:00,40.5,40.5,29.20,North,0,1.0,2.0,100,0.00,,,0.01,144,MyOwnSoftware,2013-03-17 13:21:00,
2013-03-17 13:22:00,40.6,40.6,29.20,North,0,1.0,2.0,100,0.00,,,0.01,151,MyOwnSoftware,2013-03-17 13:22:00,
2013-03-17 13:23:00,40.6,40.6,29.20,North,0,0.0,2.0,100,0.00,,,0.01,151,MyOwnSoftware,2013-03-17 13:23:00,
2013-03-17 13:24:00,40.6,40.6,29.20,North,0,3.0,6.0,100,0.00,,,0.01,333,MyOwnSoftware,2013-03-17 13:24:00,
2013-03-17 13:25:00,40.8,40.8,29.20,SE,135,4.0,6.0,100,0.00,,,0.01,345,MyOwnSoftware,2013-03-17 13:25:00,
2013-03-17 13:29:00,41.1,41.1,29.20,ESE,112,3.0,6.0,100,0.00,,,0.00,334,MyOwnSoftware,2013-03-17 13:29:00,
2013-03-17 13:30:00,41.1,41.1,29.20,South,180,3.0,7.0,100,0.00,,,0.00,334,MyOwnSoftware,2013-03-17 13:30:00,
2013-03-17 13:31:00,41.1,41.1,29.20,East,90,4.0,7.0,100,0.00,,,0.00,334,MyOwnSoftware,2013-03-17 13:31:00,
2013-03-17 13:32:00,41.1,41.1,29.20,East,90,4.0,7.0,100,0.00,,,0.00,364,MyOwnSoftware,2013-03-17 13:32:00,
2013-03-17 13:33:00,41.2,41.0,29.20,South,172,3.0,-999.0,100,-99.99,,,0.05,327,weatherlink.com 1.10,2013-03-17 13:33:00,
2013-03-17 13:34:00,41.2,41.2,29.20,South,180,4.0,6.0,100,0.00,,,0.00,327,MyOwnSoftware,2013-03-17 13:34:00,
2013-03-17 13:35:00,41.1,41.1,29.20,ENE,68,5.0,8.0,100,0.00,,,0.00,327,MyOwnSoftware,2013-03-17 13:35:00,
2013-03-17 13:39:00,41.1,41.1,29.20,South,180,1.0,3.0,100,0.00,,,0.00,241,MyOwnSoftware,2013-03-17 13:39:00,
2013-03-17 13:40:00,41.1,41.1,29.20,SSE,158,4.0,7.0,100,0.00,,,0.00,165,MyOwnSoftware,2013-03-17 13:40:00,
2013-03-17 13:41:00,41.1,41.1,29.20,SSE,158,6.0,10.0,100,0.00,,,0.00,157,MyOwnSoftware,2013-03-17 13:41:00,
2013-03-17 13:42:00,41.1,41.1,29.20,South,180,6.0,12.0,100,0.00,,,0.00,153,MyOwnSoftware,2013-03-17 13:42:00,
2013-03-17 13:43:00,41.1,41.1,29.20,South,180,6.0,12.0,100,0.00,,,0.00,140,MyOwnSoftware,2013-03-17 13:43:00,
2013-03-17 13:44:00,41.1,41.1,29.20,South,180,3.0,8.0,100,0.00,,,0.00,130,MyOwnSoftware,2013-03-17 13:44:00,
2013-03-17 13:45:00,41.1,41.1,29.20,ENE,68,6.0,7.0,100,0.00,,,0.00,176,MyOwnSoftware,2013-03-17 13:45:00,
2013-03-17 13:49:00,40.8,40.3,29.21,SE,135,3.0,6.0,98,0.00,,,0.00,95,MyOwnSoftware,2013-03-17 13:49:00,
2013-03-17 13:50:00,40.8,40.0,29.21,NE,45,6.0,13.0,97,0.00,,,0.00,95,MyOwnSoftware,2013-03-17 13:50:00,
2013-03-17 13:51:00,40.8,40.0,29.21,ESE,112,6.0,11.0,97,0.00,,,0.00,95,MyOwnSoftware,2013-03-17 13:51:00,
2013-03-17 13:52:00,40.6,39.5,29.21,ESE,112,7.0,11.0,96,0.00,,,0.00,97,MyOwnSoftware,2013-03-17 13:52:00,
2013-03-17 13:53:00,40.6,39.5,29.21,ESE,112,6.0,8.0,96,0.00,,,0.00,101,MyOwnSoftware,2013-03-17 13:53:00,
2013-03-17 13:54:00,40.6,39.5,29.21,ESE,112,6.0,10.0,96,0.00,,,0.00,106,MyOwnSoftware,2013-03-17 13:54:00,
2013-03-17 13:55:00,41.1,41.1,29.21,ESE,112,6.0,11.0,100,0.00,,,0.00,116,MyOwnSoftware,2013-03-17 13:55:00,
2013-03-17 13:56:00,40.6,39.3,29.21,SSE,158,3.0,6.0,95,0.00,,,0.00,107,MyOwnSoftware,2013-03-17 13:56:00,
2013-03-17 13:57:00,40.6,39.5,29.21,ENE,68,3.0,5.0,96,0.00,,,0.00,109,MyOwnSoftware,2013-03-17 13:57:00,
2013-03-17 13:58:00,40.5,39.5,29.21,South,180,4.0,7.0,96,0.00,,,0.00,108,MyOwnSoftware,2013-03-17 13:58:00,
2013-03-17 13:59:00,40.5,39.5,29.21,SE,135,3.0,6.0,96,0.00,,,0.00,104,MyOwnSoftware,2013-03-17 13:59:00,
2013-03-17 14:00:00,40.5,39.5,29.21,ENE,68,1.0,2.0,96,0.00,,,0.00,104,MyOwnSoftware,2013-03-17 14:00:00,
2013-03-17 14:01:00,40.5,39.5,29.21,ENE,68,2.0,3.0,96,0.00,,,0.00,102,MyOwnSoftware,2013-03-17 14:01:00,
2013-03-17 14:02:00,40.5,39.5,29.21,SE,135,2.0,3.0,96,0.00,,,0.00,104,MyOwnSoftware,2013-03-17 14:02:00,
2013-03-17 14:03:00,40.5,40.0,29.21,SE,136,5.0,-999.0,96,-99.99,,,0.05,113,weatherlink.com 1.10,2013-03-17 14:03:00,
2013-03-17 14:04:00,40.5,39.5,29.21,SE,135,3.0,5.0,96,0.00,,,0.00,118,MyOwnSoftware,2013-03-17 14:04:00,
2013-03-17 14:05:00,40.5,39.5,29.21,SSE,158,3.0,6.0,96,0.00,,,0.00,121,MyOwnSoftware,2013-03-17 14:05:00,
2013-03-17 14:09:00,40.5,38.9,29.21,ESE,112,7.0,14.0,94,0.00,,,0.00,148,MyOwnSoftware,2013-03-17 14:09:00,
2013-03-17 14:10:00,40.5,38.9,29.21,ENE,68,3.0,6.0,94,0.00,,,0.00,155,MyOwnSoftware,2013-03-17 14:10:00,
2013-03-17 14:11:00,40.5,38.9,29.21,ENE,68,3.0,8.0,94,0.00,,,0.00,162,MyOwnSoftware,2013-03-17 14:11:00,
2013-03-17 14:12:00,40.5,38.9,29.21,SE,135,3.0,5.0,94,0.00,,,0.00,171,MyOwnSoftware,2013-03-17 14:12:00,
2013-03-17 14:13:00,40.5,38.9,29.21,ESE,112,3.0,6.0,94,0.00,,,0.00,182,MyOwnSoftware,2013-03-17 14:13:00,
2013-03-17 14:14:00,40.5,38.9,29.21,ESE,112,4.0,10.0,94,0.00,,,0.00,190,MyOwnSoftware,2013-03-17 14:14:00,
2013-03-17 14:15:00,40.5,39.5,29.21,ESE,112,6.0,13.0,96,0.00,,,0.00,125,MyOwnSoftware,2013-03-17 14:15:00,
2013-03-17 14:16:00,40.5,38.9,29.22,ESE,112,6.0,11.0,94,0.00,,,0.00,201,MyOwnSoftware,2013-03-17 14:16:00,
2013-03-17 14:17:00,40.5,38.6,29.22,ESE,112,5.0,7.0,93,0.00,,,0.00,204,MyOwnSoftware,2013-03-17 14:17:00,
2013-03-17 14:18:00,40.5,38.9,29.22,SSE,158,5.0,8.0,94,0.00,,,0.00,211,MyOwnSoftware,2013-03-17 14:18:00,
2013-03-17 14:19:00,40.5,38.9,29.22,SE,135,4.0,10.0,94,0.00,,,0.00,218,MyOwnSoftware,2013-03-17 14:19:00,
2013-03-17 14:20:00,40.5,38.9,29.22,ESE,112,4.0,6.0,94,0.00,,,0.00,215,MyOwnSoftware,2013-03-17 14:20:00,
2013-03-17 14:21:00,40.5,38.9,29.22,SSE,158,4.0,10.0,94,0.00,,,0.00,229,MyOwnSoftware,2013-03-17 14:21:00,
2013-03-17 14:22:00,40.6,39.0,29.22,East,90,3.0,5.0,94,0.00,,,0.00,202,MyOwnSoftware,2013-03-17 14:22:00,
2013-03-17 14:23:00,40.6,38.7,29.22,SE,135,5.0,8.0,93,0.00,,,0.00,198,MyOwnSoftware,2013-03-17 14:23:00,
2013-03-17 14:24:00,40.6,38.7,29.22,SSE,158,6.0,12.0,93,0.00,,,0.00,179,MyOwnSoftware,2013-03-17 14:24:00,
2013-03-17 14:25:00,40.6,38.7,29.22,SSE,158,3.0,8.0,93,0.00,,,0.00,169,MyOwnSoftware,2013-03-17 14:25:00,
2013-03-17 14:29:00,40.6,38.7,29.22,South,180,2.0,5.0,93,0.00,,,0.00,153,MyOwnSoftware,2013-03-17 14:29:00,
2013-03-17 14:30:00,40.6,38.7,29.22,South,180,1.0,3.0,93,0.00,,,0.00,151,MyOwnSoftware,2013-03-17 14:30:00,
2013-03-17 14:31:00,40.6,38.7,29.22,SSE,158,6.0,12.0,93,0.00,,,0.00,151,MyOwnSoftware,2013-03-17 14:31:00,
2013-03-17 14:32:00,40.6,38.7,29.22,ESE,112,4.0,7.0,93,0.00,,,0.00,153,MyOwnSoftware,2013-03-17 14:32:00,
2013-03-17 14:33:00,40.8,39.0,29.22,SSE,151,2.0,-999.0,93,-99.99,,,0.05,141,weatherlink.com 1.10,2013-03-17 14:33:00,
2013-03-17 14:34:00,40.8,38.9,29.22,SSE,158,2.0,6.0,93,0.00,,,0.00,141,MyOwnSoftware,2013-03-17 14:34:00,
2013-03-17 14:35:00,40.8,38.9,29.22,ESE,112,4.0,7.0,93,0.00,,,0.00,132,MyOwnSoftware,2013-03-17 14:35:00,
2013-03-17 14:39:00,40.6,38.5,29.22,South,180,3.0,6.0,92,0.00,,,0.00,109,MyOwnSoftware,2013-03-17 14:39:00,
2013-03-17 14:40:00,40.6,38.5,29.22,ESE,112,2.0,4.0,92,0.00,,,0.00,109,MyOwnSoftware,2013-03-17 14:40:00,
2013-03-17 14:41:00,40.8,38.7,29.22,SE,135,1.0,5.0,92,0.00,,,0.00,109,MyOwnSoftware,2013-03-17 14:41:00,
2013-03-17 14:42:00,40.8,38.7,29.22,SE,135,2.0,7.0,92,0.00,,,0.00,106,MyOwnSoftware,2013-03-17 14:42:00,
2013-03-17 14:43:00,40.8,38.7,29.22,ENE,68,3.0,6.0,92,0.00,,,0.00,102,MyOwnSoftware,2013-03-17 14:43:00,
2013-03-17 14:44:00,40.8,38.7,29.22,SSE,158,2.0,3.0,92,0.00,,,0.00,99,MyOwnSoftware,2013-03-17 14:44:00,
2013-03-17 14:45:00,40.8,38.7,29.22,ESE,112,4.0,8.0,92,0.00,,,0.00,121,MyOwnSoftware,2013-03-17 14:45:00,
2013-03-17 14:49:00,40.8,38.1,29.23,SE,135,6.0,12.0,90,0.00,,,0.00,141,MyOwnSoftware,2013-03-17 14:49:00,
2013-03-17 14:50:00,40.8,38.1,29.23,East,90,6.0,11.0,90,0.00,,,0.00,141,MyOwnSoftware,2013-03-17 14:50:00,
2013-03-17 14:51:00,40.8,37.8,29.23,ESE,112,6.0,8.0,89,0.00,,,0.00,120,MyOwnSoftware,2013-03-17 14:51:00,
2013-03-17 14:52:00,40.8,37.5,29.23,NE,45,4.0,7.0,88,0.00,,,0.00,135,MyOwnSoftware,2013-03-17 14:52:00,
2013-03-17 14:53:00,40.8,37.5,29.23,East,90,5.0,8.0,88,0.00,,,0.00,132,MyOwnSoftware,2013-03-17 14:53:00,
2013-03-17 14:54:00,40.8,37.5,29.23,ESE,112,4.0,8.0,88,0.00,,,0.00,144,MyOwnSoftware,2013-03-17 14:54:00,
2013-03-17 14:55:00,40.8,38.4,29.23,ESE,112,4.0,7.0,91,0.00,,,0.00,97,MyOwnSoftware,2013-03-17 14:55:00,
2013-03-17 14:56:00,40.9,37.6,29.23,SE,135,3.0,6.0,88,0.00,,,0.00,153,MyOwnSoftware,2013-03-17 14:56:00,
2013-03-17 14:57:00,41.1,37.8,29.23,East,90,3.0,5.0,88,0.00,,,0.00,158,MyOwnSoftware,2013-03-17 14:57:00,
2013-03-17 14:58:00,41.2,37.9,29.23,SSE,158,5.0,8.0,88,0.00,,,0.00,173,MyOwnSoftware,2013-03-17 14:58:00,
2013-03-17 14:59:00,41.2,37.9,29.23,SSE,158,3.0,6.0,88,0.00,,,0.00,162,MyOwnSoftware,2013-03-17 14:59:00,
2013-03-17 15:00:00,41.3,38.0,29.23,SSE,158,6.0,8.0,88,0.00,,,0.00,151,MyOwnSoftware,2013-03-17 15:00:00,
2013-03-17 15:01:00,41.3,37.7,29.23,SSW,202,4.0,7.0,87,0.00,,,0.00,141,MyOwnSoftware,2013-03-17 15:01:00,
2013-03-17 15:02:00,41.5,37.6,29.23,SE,135,5.0,10.0,86,0.00,,,0.00,135,MyOwnSoftware,2013-03-17 15:02:00,
2013-03-17 15:03:00,41.5,37.3,29.23,East,90,3.0,6.0,85,0.00,,,0.00,117,MyOwnSoftware,2013-03-17 15:03:00,
2013-03-17 15:04:00,41.6,37.0,29.23,WSW,239,3.0,-999.0,85,-99.99,,,0.05,104,weatherlink.com 1.10,2013-03-17 15:04:00,
2013-03-17 15:05:00,41.6,37.4,29.23,SSE,158,5.0,9.0,85,0.00,,,0.00,104,MyOwnSoftware,2013-03-17 15:05:00,
2013-03-17 15:09:00,41.9,37.7,29.23,SE,135,2.0,5.0,85,0.00,,,0.00,106,MyOwnSoftware,2013-03-17 15:09:00,
2013-03-17 15:10:00,41.9,37.7,29.23,SE,135,2.0,3.0,85,0.00,,,0.00,107,MyOwnSoftware,2013-03-17 15:10:00,
2013-03-17 15:11:00,41.9,37.7,29.23,SE,135,2.0,5.0,85,0.00,,,0.00,106,MyOwnSoftware,2013-03-17 15:11:00,
2013-03-17 15:12:00,42.1,37.6,29.23,South,180,1.0,3.0,84,0.00,,,0.00,99,MyOwnSoftware,2013-03-17 15:12:00,
2013-03-17 15:13:00,42.1,37.6,29.23,NE,45,2.0,10.0,84,0.00,,,0.00,90,MyOwnSoftware,2013-03-17 15:13:00,
2013-03-17 15:14:00,42.2,37.7,29.23,ESE,112,3.0,6.0,84,0.00,,,0.00,81,MyOwnSoftware,2013-03-17 15:14:00,
2013-03-17 15:15:00,41.8,37.6,29.23,SSE,158,2.0,5.0,85,0.00,,,0.00,109,MyOwnSoftware,2013-03-17 15:15:00,
2013-03-17 15:16:00,42.2,37.4,29.23,ESE,112,5.0,7.0,83,0.00,,,0.00,72,MyOwnSoftware,2013-03-17 15:16:00,
2013-03-17 15:17:00,42.2,37.1,29.23,SSE,158,3.0,6.0,82,0.00,,,0.00,72,MyOwnSoftware,2013-03-17 15:17:00,
2013-03-17 15:18:00,42.3,37.2,29.23,SSE,158,4.0,6.0,82,0.00,,,0.00,70,MyOwnSoftware,2013-03-17 15:18:00,
2013-03-17 15:19:00,42.3,37.5,29.23,SSE,158,5.0,10.0,83,0.00,,,0.00,60,MyOwnSoftware,2013-03-17 15:19:00,
2013-03-17 15:20:00,42.5,37.7,29.23,SSE,158,5.0,8.0,83,0.00,,,0.00,56,MyOwnSoftware,2013-03-17 15:20:00,
2013-03-17 15:21:00,42.5,37.4,29.23,SSE,158,6.0,13.0,82,0.00,,,0.00,55,MyOwnSoftware,2013-03-17 15:21:00,
2013-03-17 15:22:00,42.5,37.4,29.23,SSE,158,5.0,9.0,82,0.00,,,0.00,55,MyOwnSoftware,2013-03-17 15:22:00,
2013-03-17 15:23:00,42.5,37.1,29.23,East,90,3.0,6.0,81,0.00,,,0.00,67,MyOwnSoftware,2013-03-17 15:23:00,
2013-03-17 15:24:00,42.5,37.1,29.23,SSE,158,4.0,8.0,81,0.00,,,0.00,86,MyOwnSoftware,2013-03-17 15:24:00,
2013-03-17 15:25:00,42.6,37.2,29.23,ESE,112,3.0,7.0,81,0.00,,,0.00,91,MyOwnSoftware,2013-03-17 15:25:00,
2013-03-17 15:29:00,42.6,36.9,29.23,ESE,112,3.0,4.0,80,0.00,,,0.00,63,MyOwnSoftware,2013-03-17 15:29:00,
2013-03-17 15:30:00,42.8,37.1,29.24,ESE,112,2.0,5.0,80,0.00,,,0.00,58,MyOwnSoftware,2013-03-17 15:30:00,
2013-03-17 15:31:00,42.8,37.1,29.24,ENE,68,3.0,5.0,80,0.00,,,0.00,55,MyOwnSoftware,2013-03-17 15:31:00,
2013-03-17 15:32:00,42.8,37.4,29.24,ENE,68,3.0,7.0,81,0.00,,,0.00,56,MyOwnSoftware,2013-03-17 15:32:00,
2013-03-17 15:33:00,42.8,37.4,29.24,SE,135,5.0,9.0,81,0.00,,,0.00,71,MyOwnSoftware,2013-03-17 15:33:00,
2013-03-17 15:34:00,42.9,37.0,29.24,SSE,157,5.0,-999.0,80,-99.99,,,0.05,67,weatherlink.com 1.10,2013-03-17 15:34:00,
2013-03-17 15:35:00,42.9,37.2,29.24,SE,135,4.0,8.0,80,0.00,,,0.00,67,MyOwnSoftware,2013-03-17 15:35:00,
2013-03-17 15:39:00,42.9,36.8,29.24,SE,135,5.0,8.0,79,0.00,,,0.00,100,MyOwnSoftware,2013-03-17 15:39:00,
2013-03-17 15:40:00,42.9,36.8,29.24,North,0,4.0,10.0,79,0.00,,,0.00,90,MyOwnSoftware,2013-03-17 15:40:00,
2013-03-17 15:41:00,42.9,37.2,29.24,SE,135,2.0,3.0,80,0.00,,,0.00,81,MyOwnSoftware,2013-03-17 15:41:00,
2013-03-17 15:42:00,42.9,37.2,29.24,SSE,158,3.0,7.0,80,0.00,,,0.00,86,MyOwnSoftware,2013-03-17 15:42:00,
2013-03-17 15:43:00,42.9,37.5,29.24,ESE,112,4.0,7.0,81,0.00,,,0.00,89,MyOwnSoftware,2013-03-17 15:43:00,
2013-03-17 15:44:00,42.9,37.5,29.24,ESE,112,4.0,6.0,81,0.00,,,0.00,88,MyOwnSoftware,2013-03-17 15:44:00,
2013-03-17 15:45:00,42.9,37.2,29.24,ESE,112,5.0,8.0,80,0.00,,,0.00,79,MyOwnSoftware,2013-03-17 15:45:00,
2013-03-17 15:49:00,42.9,37.5,29.25,SE,135,3.0,5.0,81,0.00,,,0.00,74,MyOwnSoftware,2013-03-17 15:49:00,
2013-03-17 15:50:00,43.1,38.0,29.25,SSE,158,4.0,8.0,82,0.00,,,0.00,81,MyOwnSoftware,2013-03-17 15:50:00,
2013-03-17 15:51:00,43.1,38.0,29.25,SSE,158,3.0,5.0,82,0.00,,,0.00,95,MyOwnSoftware,2013-03-17 15:51:00,
2013-03-17 15:52:00,43.1,37.7,29.25,SSE,158,4.0,8.0,81,0.00,,,0.00,104,MyOwnSoftware,2013-03-17 15:52:00,
2013-03-17 15:53:00,43.1,37.7,29.25,SSE,158,4.0,9.0,81,0.00,,,0.00,109,MyOwnSoftware,2013-03-17 15:53:00,
2013-03-17 15:54:00,43.1,37.7,29.25,SE,135,4.0,7.0,81,0.00,,,0.00,111,MyOwnSoftware,2013-03-17 15:54:00,
2013-03-17 15:55:00,42.9,37.5,29.25,SE,135,3.0,5.0,81,0.00,,,0.00,100,MyOwnSoftware,2013-03-17 15:55:00,
2013-03-17 15:56:00,43.1,37.4,29.25,East,90,4.0,8.0,80,0.00,,,0.00,93,MyOwnSoftware,2013-03-17 15:56:00,
2013-03-17 15:57:00,43.1,37.0,29.25,SE,135,4.0,13.0,79,0.00,,,0.00,90,MyOwnSoftware,2013-03-17 15:57:00,
2013-03-17 15:58:00,43.1,37.0,29.25,ESE,112,6.0,10.0,79,0.00,,,0.00,94,MyOwnSoftware,2013-03-17 15:58:00,
2013-03-17 15:59:00,43.1,37.0,29.25,SSE,158,5.0,7.0,79,0.00,,,0.00,104,MyOwnSoftware,2013-03-17 15:59:00,
2013-03-17 16:00:00,43.1,37.0,29.25,SSE,158,3.0,6.0,79,0.00,,,0.00,114,MyOwnSoftware,2013-03-17 16:00:00,
2013-03-17 16:01:00,43.1,37.0,29.25,ESE,112,5.0,7.0,79,0.00,,,0.00,121,MyOwnSoftware,2013-03-17 16:01:00,
2013-03-17 16:02:00,43.1,36.7,29.25,ESE,112,4.0,6.0,78,0.00,,,0.00,118,MyOwnSoftware,2013-03-17 16:02:00,
2013-03-17 16:03:00,43.1,36.7,29.25,ESE,112,4.0,8.0,78,0.00,,,0.00,109,MyOwnSoftware,2013-03-17 16:03:00,
2013-03-17 16:04:00,43.1,37.0,29.25,SSE,162,1.0,-999.0,78,-99.99,,,0.05,107,weatherlink.com 1.10,2013-03-17 16:04:00,
2013-03-17 16:05:00,43.1,37.0,29.25,SSE,158,2.0,3.0,79,0.00,,,0.00,113,MyOwnSoftware,2013-03-17 16:05:00,
2013-03-17 16:09:00,43.1,37.0,29.25,ESE,112,6.0,10.0,79,0.00,,,0.00,134,MyOwnSoftware,2013-03-17 16:09:00,
2013-03-17 16:10:00,43.1,37.0,29.25,ESE,112,3.0,5.0,79,0.00,,,0.00,128,MyOwnSoftware,2013-03-17 16:10:00,
2013-03-17 16:11:00,43.1,37.0,29.25,SSE,158,3.0,7.0,79,0.00,,,0.00,125,MyOwnSoftware,2013-03-17 16:11:00,
2013-03-17 16:12:00,43.1,37.4,29.25,South,180,4.0,8.0,80,0.00,,,0.00,120,MyOwnSoftware,2013-03-17 16:12:00,
2013-03-17 16:13:00,43.1,37.4,29.25,SSE,158,4.0,7.0,80,0.00,,,0.00,111,MyOwnSoftware,2013-03-17 16:13:00,
2013-03-17 16:14:00,43.1,37.0,29.25,ESE,112,4.0,8.0,79,0.00,,,0.00,102,MyOwnSoftware,2013-03-17 16:14:00,
2013-03-17 16:15:00,43.1,37.0,29.25,SE,135,3.0,7.0,79,0.00,,,0.00,118,MyOwnSoftware,2013-03-17 16:15:00,
2013-03-17 16:16:00,43.1,37.0,29.25,SSE,158,5.0,10.0,79,0.00,,,0.00,93,MyOwnSoftware,2013-03-17 16:16:00,
2013-03-17 16:17:00,43.1,36.7,29.25,ESE,112,5.0,7.0,78,0.00,,,0.00,90,MyOwnSoftware,2013-03-17 16:17:00,
2013-03-17 16:18:00,43.1,36.7,29.25,SE,135,4.0,7.0,78,0.00,,,0.00,82,MyOwnSoftware,2013-03-17 16:18:00,
2013-03-17 16:19:00,42.9,36.5,29.25,SE,135,4.0,6.0,78,0.00,,,0.00,74,MyOwnSoftware,2013-03-17 16:19:00,
2013-03-17 16:20:00,42.9,36.5,29.25,ESE,112,6.0,11.0,78,0.00,,,0.00,74,MyOwnSoftware,2013-03-17 16:20:00,
2013-03-17 16:21:00,42.9,36.5,29.25,ESE,112,5.0,7.0,78,0.00,,,0.00,70,MyOwnSoftware,2013-03-17 16:21:00,
2013-03-17 16:22:00,42.9,36.8,29.25,SE,135,4.0,8.0,79,0.00,,,0.00,69,MyOwnSoftware,2013-03-17 16:22:00,
2013-03-17 16:23:00,42.9,36.5,29.25,ESE,112,4.0,6.0,78,0.00,,,0.00,65,MyOwnSoftware,2013-03-17 16:23:00,
2013-03-17 16:24:00,42.9,36.5,29.25,SE,135,3.0,6.0,78,0.00,,,0.00,62,MyOwnSoftware,2013-03-17 16:24:00,
2013-03-17 16:25:00,42.9,36.8,29.25,SE,135,3.0,6.0,79,0.00,,,0.00,63,MyOwnSoftware,2013-03-17 16:25:00,
2013-03-17 16:29:00,42.9,36.8,29.25,ESE,112,2.0,6.0,79,0.00,,,0.00,88,MyOwnSoftware,2013-03-17 16:29:00,
2013-03-17 16:30:00,42.9,36.8,29.26,East,90,3.0,5.0,79,0.00,,,0.00,88,MyOwnSoftware,2013-03-17 16:30:00,
2013-03-17 16:31:00,42.9,36.8,29.26,SE,135,1.0,3.0,79,0.00,,,0.00,90,MyOwnSoftware,2013-03-17 16:31:00,
2013-03-17 16:32:00,42.9,36.8,29.26,SE,135,3.0,5.0,79,0.00,,,0.00,91,MyOwnSoftware,2013-03-17 16:32:00,
2013-03-17 16:33:00,42.9,36.8,29.26,East,90,2.0,3.0,79,0.00,,,0.00,101,MyOwnSoftware,2013-03-17 16:33:00,
2013-03-17 16:34:00,42.9,37.0,29.26,SSE,161,2.0,-999.0,80,-99.99,,,0.05,104,weatherlink.com 1.10,2013-03-17 16:34:00,
2013-03-17 16:35:00,42.9,37.2,29.26,SSE,158,3.0,6.0,80,0.00,,,0.00,106,MyOwnSoftware,2013-03-17 16:35:00,
2013-03-17 16:39:00,42.9,37.2,29.26,South,180,1.0,2.0,80,0.00,,,0.00,127,MyOwnSoftware,2013-03-17 16:39:00,
2013-03-17 16:40:00,42.9,37.2,29.26,South,180,0.0,2.0,80,0.00,,,0.00,120,MyOwnSoftware,2013-03-17 16:40:00,
2013-03-17 16:41:00,42.9,37.5,29.26,SE,135,3.0,5.0,81,0.00,,,0.00,109,MyOwnSoftware,2013-03-17 16:41:00,
2013-03-17 16:42:00,43.1,37.4,29.26,SSE,158,1.0,2.0,80,0.00,,,0.00,100,MyOwnSoftware,2013-03-17 16:42:00,
2013-03-17 16:43:00,43.1,37.4,29.26,NE,45,3.0,6.0,80,0.00,,,0.00,92,MyOwnSoftware,2013-03-17 16:43:00,
2013-03-17 16:44:00,43.1,37.7,29.26,North,0,3.0,5.0,81,0.00,,,0.00,88,MyOwnSoftware,2013-03-17 16:44:00,
2013-03-17 16:45:00,42.9,37.2,29.26,ESE,112,3.0,5.0,80,0.00,,,0.00,106,MyOwnSoftware,2013-03-17 16:45:00,
2013-03-17 16:49:00,43.2,37.8,29.26,SSE,158,0.0,1.0,81,0.00,,,0.00,86,MyOwnSoftware,2013-03-17 16:49:00,
2013-03-17 16:50:00,43.3,37.9,29.26,SSE,158,2.0,5.0,81,0.00,,,0.00,79,MyOwnSoftware,2013-03-17 16:50:00,
2013-03-17 16:51:00,43.3,37.9,29.26,ENE,68,1.0,2.0,81,0.00,,,0.00,69,MyOwnSoftware,2013-03-17 16:51:00,
2013-03-17 16:52:00,43.3,37.6,29.26,East,90,2.0,3.0,80,0.00,,,0.00,58,MyOwnSoftware,2013-03-17 16:52:00,
2013-03-17 16:53:00,43.3,37.6,29.26,ESE,112,2.0,3.0,80,0.00,,,0.00,50,MyOwnSoftware,2013-03-17 16:53:00,
2013-03-17 16:54:00,43.3,37.6,29.26,ESE,112,1.0,3.0,80,0.00,,,0.00,49,MyOwnSoftware,2013-03-17 16:54:00,
2013-03-17 16:55:00,43.2,37.8,29.26,SE,135,3.0,7.0,81,0.00,,,0.00,83,MyOwnSoftware,2013-03-17 16:55:00,
2013-03-17 16:56:00,43.3,37.6,29.26,SE,135,5.0,7.0,80,0.00,,,0.00,48,MyOwnSoftware,2013-03-17 16:56:00,
2013-03-17 16:57:00,43.3,37.6,29.26,SE,135,4.0,8.0,80,0.00,,,0.00,48,MyOwnSoftware,2013-03-17 16:57:00,
2013-03-17 16:58:00,43.3,37.6,29.26,North,0,6.0,8.0,80,0.00,,,0.00,46,MyOwnSoftware,2013-03-17 16:58:00,
2013-03-17 16:59:00,43.3,37.6,29.26,North,0,2.0,4.0,80,0.00,,,0.00,44,MyOwnSoftware,2013-03-17 16:59:00,
2013-03-17 17:00:00,43.3,37.9,29.27,NNE,22,4.0,8.0,81,0.00,,,0.00,44,MyOwnSoftware,2013-03-17 17:00:00,
2013-03-17 17:01:00,43.3,37.9,29.27,NE,45,2.0,5.0,81,0.00,,,0.00,44,MyOwnSoftware,2013-03-17 17:01:00,
2013-03-17 17:02:00,43.3,37.9,29.27,East,90,3.0,5.0,81,0.00,,,0.00,40,MyOwnSoftware,2013-03-17 17:02:00,
2013-03-17 17:03:00,43.2,37.8,29.27,ESE,112,3.0,4.0,81,0.00,,,0.00,40,MyOwnSoftware,2013-03-17 17:03:00,
2013-03-17 17:04:00,43.2,38.0,29.27,ESE,121,2.0,-999.0,81,-99.99,,,0.05,42,weatherlink.com 1.10,2013-03-17 17:04:00,
2013-03-17 17:05:00,43.2,38.1,29.27,ESE,112,1.0,2.0,82,0.00,,,0.00,42,MyOwnSoftware,2013-03-17 17:05:00,
2013-03-17 17:09:00,43.2,38.1,29.27,ESE,112,4.0,10.0,82,0.00,,,0.00,48,MyOwnSoftware,2013-03-17 17:09:00,
2013-03-17 17:10:00,43.2,38.1,29.27,SE,135,3.0,6.0,82,0.00,,,0.00,48,MyOwnSoftware,2013-03-17 17:10:00,
2013-03-17 17:11:00,43.1,37.7,29.27,North,0,5.0,8.0,81,0.00,,,0.00,48,MyOwnSoftware,2013-03-17 17:11:00,
2013-03-17 17:12:00,43.1,37.7,29.27,NE,45,4.0,8.0,81,0.00,,,0.00,48,MyOwnSoftware,2013-03-17 17:12:00,
2013-03-17 17:13:00,43.1,37.7,29.27,East,90,5.0,8.0,81,0.00,,,0.00,55,MyOwnSoftware,2013-03-17 17:13:00,
2013-03-17 17:14:00,42.9,37.5,29.27,NE,45,5.0,8.0,81,0.00,,,0.00,55,MyOwnSoftware,2013-03-17 17:14:00,
2013-03-17 17:15:00,43.2,38.1,29.27,ESE,112,1.0,3.0,82,0.00,,,0.00,42,MyOwnSoftware,2013-03-17 17:15:00,
2013-03-17 17:16:00,42.9,37.5,29.27,NNE,22,1.0,2.0,81,0.00,,,0.00,55,MyOwnSoftware,2013-03-17 17:16:00,
2013-03-17 17:17:00,42.9,37.8,29.27,NNE,22,4.0,7.0,82,0.00,,,0.00,49,MyOwnSoftware,2013-03-17 17:17:00,
2013-03-17 17:18:00,42.9,37.8,29.27,ENE,68,4.0,5.0,82,0.00,,,0.00,49,MyOwnSoftware,2013-03-17 17:18:00,
2013-03-17 17:19:00,42.9,37.8,29.27,North,0,4.0,6.0,82,0.00,,,0.00,49,MyOwnSoftware,2013-03-17 17:19:00,
2013-03-17 17:20:00,42.9,37.8,29.27,NE,45,4.0,6.0,82,0.00,,,0.00,49,MyOwnSoftware,2013-03-17 17:20:00,
2013-03-17 17:21:00,42.9,37.8,29.27,NNE,22,5.0,6.0,82,0.00,,,0.00,42,MyOwnSoftware,2013-03-17 17:21:00,
2013-03-17 17:22:00,42.8,37.7,29.27,NNE,22,3.0,5.0,82,0.00,,,0.00,42,MyOwnSoftware,2013-03-17 17:22:00,
2013-03-17 17:23:00,42.8,37.7,29.27,North,0,3.0,5.0,82,0.00,,,0.00,42,MyOwnSoftware,2013-03-17 17:23:00,
2013-03-17 17:24:00,42.8,38.0,29.27,North,0,4.0,5.0,83,0.00,,,0.00,42,MyOwnSoftware,2013-03-17 17:24:00,
2013-03-17 17:25:00,42.8,38.0,29.27,North,0,3.0,6.0,83,0.00,,,0.00,32,MyOwnSoftware,2013-03-17 17:25:00,
2013-03-17 17:29:00,42.8,38.0,29.27,East,90,3.0,5.0,83,0.00,,,0.00,32,MyOwnSoftware,2013-03-17 17:29:00,
2013-03-17 17:30:00,42.8,38.0,29.28,NE,45,3.0,6.0,83,0.00,,,0.00,32,MyOwnSoftware,2013-03-17 17:30:00,
2013-03-17 17:31:00,42.8,38.0,29.28,NNE,22,3.0,6.0,83,0.00,,,0.00,32,MyOwnSoftware,2013-03-17 17:31:00,
2013-03-17 17:32:00,42.8,38.3,29.28,NNE,22,2.0,3.0,84,0.00,,,0.00,32,MyOwnSoftware,2013-03-17 17:32:00,
2013-03-17 17:33:00,42.8,38.3,29.28,NNE,22,3.0,6.0,84,0.00,,,0.00,36,MyOwnSoftware,2013-03-17 17:33:00,
2013-03-17 17:34:00,42.8,38.0,29.28,NNE,17,3.0,-999.0,84,-99.99,,,0.05,40,weatherlink.com 1.10,2013-03-17 17:34:00,
2013-03-17 17:35:00,42.8,38.3,29.28,NNE,22,3.0,6.0,84,0.00,,,0.00,40,MyOwnSoftware,2013-03-17 17:35:00,
2013-03-17 17:39:00,42.6,38.7,29.28,NE,45,2.0,3.0,86,0.00,,,0.00,25,MyOwnSoftware,2013-03-17 17:39:00,
2013-03-17 17:40:00,42.6,38.7,29.28,NE,45,3.0,5.0,86,0.00,,,0.00,25,MyOwnSoftware,2013-03-17 17:40:00,
2013-03-17 17:41:00,42.6,38.7,29.28,NNE,22,3.0,5.0,86,0.00,,,0.00,25,MyOwnSoftware,2013-03-17 17:41:00,
2013-03-17 17:42:00,42.6,38.7,29.28,NE,45,3.0,4.0,86,0.00,,,0.00,21,MyOwnSoftware,2013-03-17 17:42:00,
2013-03-17 17:43:00,42.6,39.0,29.28,NNE,22,2.0,4.0,87,0.00,,,0.00,21,MyOwnSoftware,2013-03-17 17:43:00,
2013-03-17 17:44:00,42.6,39.0,29.28,NNE,22,3.0,5.0,87,0.00,,,0.00,21,MyOwnSoftware,2013-03-17 17:44:00,
2013-03-17 17:45:00,42.8,38.6,29.28,NE,45,4.0,6.0,85,0.00,,,0.00,40,MyOwnSoftware,2013-03-17 17:45:00,
2013-03-17 17:49:00,42.5,38.9,29.28,North,0,7.0,12.0,87,0.00,,,0.00,9,MyOwnSoftware,2013-03-17 17:49:00,
2013-03-17 17:50:00,42.3,39.0,29.28,NE,45,7.0,16.0,88,0.00,,,0.00,7,MyOwnSoftware,2013-03-17 17:50:00,
2013-03-17 17:51:00,42.3,38.7,29.28,NE,45,4.0,8.0,87,0.00,,,0.00,7,MyOwnSoftware,2013-03-17 17:51:00,
2013-03-17 17:52:00,42.3,39.0,29.28,NE,45,4.0,7.0,88,0.00,,,0.00,7,MyOwnSoftware,2013-03-17 17:52:00,
2013-03-17 17:53:00,42.3,39.0,29.28,ESE,112,6.0,10.0,88,0.00,,,0.00,7,MyOwnSoftware,2013-03-17 17:53:00,
2013-03-17 17:54:00,42.3,39.0,29.28,NNE,22,4.0,8.0,88,0.00,,,0.00,7,MyOwnSoftware,2013-03-17 17:54:00,
2013-03-17 17:55:00,42.5,38.9,29.28,NNE,22,5.0,7.0,87,0.00,,,0.00,9,MyOwnSoftware,2013-03-17 17:55:00,
2013-03-17 17:56:00,42.2,38.9,29.28,SE,135,4.0,8.0,88,0.00,,,0.00,7,MyOwnSoftware,2013-03-17 17:56:00,
2013-03-17 17:57:00,42.2,38.9,29.28,ENE,68,6.0,11.0,88,0.00,,,0.00,7,MyOwnSoftware,2013-03-17 17:57:00,
2013-03-17 17:58:00,42.1,39.1,29.28,North,0,2.0,5.0,89,0.00,,,0.00,7,MyOwnSoftware,2013-03-17 17:58:00,
2013-03-17 17:59:00,42.1,39.1,29.28,North,0,2.0,5.0,89,0.00,,,0.00,7,MyOwnSoftware,2013-03-17 17:59:00,
2013-03-17 18:00:00,42.1,39.1,29.28,ENE,68,4.0,7.0,89,0.00,,,0.00,7,MyOwnSoftware,2013-03-17 18:00:00,
2013-03-17 18:01:00,42.1,39.1,29.28,ESE,112,5.0,7.0,89,0.00,,,0.00,7,MyOwnSoftware,2013-03-17 18:01:00,
2013-03-17 18:02:00,41.9,39.2,29.28,ENE,68,3.0,6.0,90,0.00,,,0.00,7,MyOwnSoftware,2013-03-17 18:02:00,
2013-03-17 18:03:00,41.9,39.2,29.28,NNE,22,5.0,10.0,90,0.00,,,0.00,9,MyOwnSoftware,2013-03-17 18:03:00,
2013-03-17 18:04:00,41.9,39.0,29.28,North,359,7.0,-999.0,90,-99.99,,,0.05,9,weatherlink.com 1.10,2013-03-17 18:04:00,
2013-03-17 18:05:00,41.8,39.1,29.28,North,0,4.0,7.0,90,0.00,,,0.00,9,MyOwnSoftware,2013-03-17 18:05:00,
2013-03-17 18:09:00,41.8,39.4,29.28,NNW,338,2.0,3.0,91,0.00,,,0.00,7,MyOwnSoftware,2013-03-17 18:09:00,
2013-03-17 18:10:00,41.6,39.2,29.28,NNW,338,1.0,2.0,91,0.00,,,0.00,7,MyOwnSoftware,2013-03-17 18:10:00,
2013-03-17 18:11:00,41.6,39.2,29.28,NNE,22,2.0,5.0,91,0.00,,,0.00,7,MyOwnSoftware,2013-03-17 18:11:00,
2013-03-17 18:12:00,41.6,39.2,29.28,NNE,22,2.0,3.0,91,0.00,,,0.00,7,MyOwnSoftware,2013-03-17 18:12:00,
2013-03-17 18:13:00,41.6,39.2,29.28,NNE,22,3.0,5.0,91,0.00,,,0.00,7,MyOwnSoftware,2013-03-17 18:13:00,
2013-03-17 18:14:00,41.6,39.2,29.28,NE,45,3.0,5.0,91,0.00,,,0.00,7,MyOwnSoftware,2013-03-17 18:14:00,
2013-03-17 18:15:00,41.8,39.4,29.28,ESE,112,5.0,12.0,91,0.00,,,0.00,9,MyOwnSoftware,2013-03-17 18:15:00,
2013-03-17 18:16:00,41.6,39.5,29.29,East,90,3.0,5.0,92,0.00,,,0.00,5,MyOwnSoftware,2013-03-17 18:16:00,
2013-03-17 18:17:00,41.6,39.2,29.29,NNE,22,3.0,6.0,91,0.00,,,0.00,5,MyOwnSoftware,2013-03-17 18:17:00,
2013-03-17 18:18:00,41.6,39.2,29.29,NNE,22,3.0,5.0,91,0.00,,,0.00,5,MyOwnSoftware,2013-03-17 18:18:00,
2013-03-17 18:19:00,41.6,39.2,29.29,NNE,22,3.0,5.0,91,0.00,,,0.00,5,MyOwnSoftware,2013-03-17 18:19:00,
2013-03-17 18:20:00,41.6,39.5,29.29,NNE,22,2.0,5.0,92,0.00,,,0.00,5,MyOwnSoftware,2013-03-17 18:20:00,
2013-03-17 18:21:00,41.6,39.5,29.29,NE,45,5.0,6.0,92,0.00,,,0.00,5,MyOwnSoftware,2013-03-17 18:21:00,
2013-03-17 18:22:00,41.5,39.1,29.29,NNE,22,4.0,6.0,91,0.00,,,0.00,5,MyOwnSoftware,2013-03-17 18:22:00,
2013-03-17 18:23:00,41.5,39.1,29.29,North,0,3.0,5.0,91,0.00,,,0.00,3,MyOwnSoftware,2013-03-17 18:23:00,
2013-03-17 18:24:00,41.5,39.1,29.29,NE,45,3.0,6.0,91,0.00,,,0.00,0,MyOwnSoftware,2013-03-17 18:24:00,
2013-03-17 18:25:00,41.5,39.1,29.29,ENE,68,4.0,7.0,91,0.00,,,0.00,0,MyOwnSoftware,2013-03-17 18:25:00,
2013-03-17 18:29:00,41.5,39.1,29.29,North,0,4.0,6.0,91,0.00,,,0.00,0,MyOwnSoftware,2013-03-17 18:29:00,
2013-03-17 18:30:00,41.5,39.1,29.29,NNE,22,7.0,12.0,91,0.00,,,0.00,0,MyOwnSoftware,2013-03-17 18:30:00,
2013-03-17 18:31:00,41.5,38.8,29.29,NE,45,5.0,7.0,90,0.00,,,0.00,0,MyOwnSoftware,2013-03-17 18:31:00,
2013-03-17 18:32:00,41.5,38.8,29.29,North,0,4.0,6.0,90,0.00,,,0.00,0,MyOwnSoftware,2013-03-17 18:32:00,
2013-03-17 18:33:00,41.5,38.8,29.29,NNE,22,4.0,6.0,90,0.00,,,0.00,0,MyOwnSoftware,2013-03-17 18:33:00,
2013-03-17 18:34:00,41.5,39.0,29.29,NNE,30,2.0,-999.0,90,-99.99,,,0.05,0,weatherlink.com 1.10,2013-03-17 18:34:00,
2013-03-17 18:35:00,41.5,38.8,29.29,NNE,22,2.0,5.0,90,0.00,,,0.00,0,MyOwnSoftware,2013-03-17 18:35:00,
2013-03-17 18:39:00,41.3,38.3,29.29,NNW,338,5.0,11.0,89,0.00,,,0.00,0,MyOwnSoftware,2013-03-17 18:39:00,
2013-03-17 18:40:00,41.3,38.6,29.29,East,90,5.0,8.0,90,0.00,,,0.00,0,MyOwnSoftware,2013-03-17 18:40:00,
2013-03-17 18:41:00,41.3,38.6,29.29,NE,45,4.0,6.0,90,0.00,,,0.00,0,MyOwnSoftware,2013-03-17 18:41:00,
2013-03-17 18:42:00,41.3,38.6,29.29,NNE,22,4.0,8.0,90,0.00,,,0.00,0,MyOwnSoftware,2013-03-17 18:42:00,
2013-03-17 18:43:00,41.3,38.3,29.29,ESE,112,4.0,7.0,89,0.00,,,0.00,0,MyOwnSoftware,2013-03-17 18:43:00,
2013-03-17 18:44:00,41.3,38.3,29.29,North,0,3.0,6.0,89,0.00,,,0.00,0,MyOwnSoftware,2013-03-17 18:44:00,
2013-03-17 18:45:00,41.5,39.1,29.29,NE,45,5.0,10.0,91,0.00,,,0.00,0,MyOwnSoftware,2013-03-17 18:45:00,
2013-03-17 18:49:00,41.2,38.2,29.30,NE,45,3.0,6.0,89,0.00,,,0.00,0,MyOwnSoftware,2013-03-17 18:49:00,
2013-03-17 18:50:00,41.2,38.2,29.30,NNE,22,3.0,6.0,89,0.00,,,0.00,0,MyOwnSoftware,2013-03-17 18:50:00,
2013-03-17 18:51:00,41.2,38.2,29.30,East,90,4.0,7.0,89,0.00,,,0.00,0,MyOwnSoftware,2013-03-17 18:51:00,
2013-03-17 18:52:00,41.2,38.2,29.30,North,0,4.0,7.0,89,0.00,,,0.00,0,MyOwnSoftware,2013-03-17 18:52:00,
2013-03-17 18:53:00,41.2,38.2,29.30,NE,45,3.0,5.0,89,0.00,,,0.00,0,MyOwnSoftware,2013-03-17 18:53:00,
2013-03-17 18:54:00,41.1,38.1,29.30,NNE,22,3.0,6.0,89,0.00,,,0.00,0,MyOwnSoftware,2013-03-17 18:54:00,
2013-03-17 18:55:00,41.2,38.2,29.30,NE,45,3.0,6.0,89,0.00,,,0.00,0,MyOwnSoftware,2013-03-17 18:55:00,
2013-03-17 18:56:00,41.1,38.1,29.30,North,0,5.0,13.0,89,0.00,,,0.00,0,MyOwnSoftware,2013-03-17 18:56:00,
2013-03-17 18:57:00,41.1,38.1,29.30,NNE,22,3.0,7.0,89,0.00,,,0.00,0,MyOwnSoftware,2013-03-17 18:57:00,
2013-03-17 18:58:00,41.1,38.1,29.30,ENE,68,5.0,8.0,89,0.00,,,0.00,0,MyOwnSoftware,2013-03-17 18:58:00,
2013-03-17 18:59:00,41.1,38.1,29.30,East,90,5.0,6.0,89,0.00,,,0.00,0,MyOwnSoftware,2013-03-17 18:59:00,
2013-03-17 19:00:00,40.9,37.6,29.31,ENE,68,5.0,6.0,88,0.00,,,0.00,0,MyOwnSoftware,2013-03-17 19:00:00,
2013-03-17 19:01:00,40.9,37.6,29.31,ENE,68,5.0,8.0,88,0.00,,,0.00,0,MyOwnSoftware,2013-03-17 19:01:00,
2013-03-17 19:02:00,40.9,37.6,29.31,ENE,68,4.0,7.0,88,0.00,,,0.00,0,MyOwnSoftware,2013-03-17 19:02:00,
2013-03-17 19:03:00,40.9,37.6,29.31,NNE,22,6.0,7.0,88,0.00,,,0.00,0,MyOwnSoftware,2013-03-17 19:03:00,
2013-03-17 19:04:00,40.9,38.0,29.31,NE,37,7.0,-999.0,88,-99.99,,,0.05,0,weatherlink.com 1.10,2013-03-17 19:04:00,
2013-03-17 19:05:00,40.8,37.2,29.31,NNE,22,5.0,7.0,87,0.00,,,0.00,0,MyOwnSoftware,2013-03-17 19:05:00,
2013-03-17 19:09:00,40.8,37.2,29.31,ENE,68,5.0,7.0,87,0.00,,,0.00,0,MyOwnSoftware,2013-03-17 19:09:00,
2013-03-17 19:10:00,40.8,37.2,29.31,ENE,68,4.0,6.0,87,0.00,,,0.00,0,MyOwnSoftware,2013-03-17 19:10:00,
2013-03-17 19:11:00,40.8,37.2,29.31,East,90,4.0,6.0,87,0.00,,,0.00,0,MyOwnSoftware,2013-03-17 19:11:00,
2013-03-17 19:12:00,40.8,37.2,29.31,NNE,22,4.0,8.0,87,0.00,,,0.00,0,MyOwnSoftware,2013-03-17 19:12:00,
2013-03-17 19:13:00,40.8,37.2,29.31,NE,45,5.0,6.0,87,0.00,,,0.00,0,MyOwnSoftware,2013-03-17 19:13:00,
2013-03-17 19:14:00,40.8,37.5,29.31,NNE,22,4.0,7.0,88,0.00,,,0.00,0,MyOwnSoftware,2013-03-17 19:14:00,
2013-03-17 19:15:00,40.8,37.2,29.31,North,0,7.0,11.0,87,0.00,,,0.00,0,MyOwnSoftware,2013-03-17 19:15:00,
2013-03-17 19:16:00,40.8,37.5,29.31,NNE,22,4.0,7.0,88,0.00,,,0.00,0,MyOwnSoftware,2013-03-17 19:16:00,
2013-03-17 19:17:00,40.8,37.5,29.31,NNE,22,3.0,6.0,88,0.00,,,0.00,0,MyOwnSoftware,2013-03-17 19:17:00,
2013-03-17 19:18:00,40.8,37.5,29.31,NNE,22,4.0,6.0,88,0.00,,,0.00,0,MyOwnSoftware,2013-03-17 19:18:00,
2013-03-17 19:19:00,40.6,37.6,29.31,North,0,4.0,6.0,89,0.00,,,0.00,0,MyOwnSoftware,2013-03-17 19:19:00,
2013-03-17 19:20:00,40.6,37.6,29.31,NNE,22,6.0,8.0,89,0.00,,,0.00,0,MyOwnSoftware,2013-03-17 19:20:00,
2013-03-17 19:21:00,40.6,37.6,29.31,NNE,22,4.0,6.0,89,0.00,,,0.00,0,MyOwnSoftware,2013-03-17 19:21:00,
2013-03-17 19:22:00,40.6,37.6,29.31,North,0,5.0,6.0,89,0.00,,,0.00,0,MyOwnSoftware,2013-03-17 19:22:00,
2013-03-17 19:23:00,40.6,37.6,29.31,NNE,22,4.0,7.0,89,0.00,,,0.00,0,MyOwnSoftware,2013-03-17 19:23:00,
2013-03-17 19:24:00,40.6,37.6,29.31,NNE,22,3.0,6.0,89,0.00,,,0.00,0,MyOwnSoftware,2013-03-17 19:24:00,
2013-03-17 19:25:00,40.6,37.6,29.31,NNE,22,4.0,6.0,89,0.00,,,0.00,0,MyOwnSoftware,2013-03-17 19:25:00,
2013-03-17 19:26:00,40.6,37.9,29.31,NE,45,4.0,6.0,90,0.00,,,0.00,0,MyOwnSoftware,2013-03-17 19:26:00,
2013-03-17 19:29:00,40.5,37.5,29.31,North,0,7.0,10.0,89,0.00,,,0.00,0,MyOwnSoftware,2013-03-17 19:29:00,
2013-03-17 19:30:00,40.5,37.2,29.32,NE,45,6.0,9.0,88,0.00,,,0.00,0,MyOwnSoftware,2013-03-17 19:30:00,
2013-03-17 19:31:00,40.5,37.2,29.32,North,0,6.0,7.0,88,0.00,,,0.00,0,MyOwnSoftware,2013-03-17 19:31:00,
2013-03-17 19:32:00,40.3,37.0,29.32,NNE,22,7.0,11.0,88,0.00,,,0.00,0,MyOwnSoftware,2013-03-17 19:32:00,
2013-03-17 19:33:00,40.3,37.0,29.32,NE,45,6.0,8.0,88,0.00,,,0.00,0,MyOwnSoftware,2013-03-17 19:33:00,
2013-03-17 19:34:00,40.3,37.0,29.32,NNE,20,5.0,-999.0,88,-99.99,,,0.05,0,weatherlink.com 1.10,2013-03-17 19:34:00,
2013-03-17 19:35:00,40.3,37.0,29.32,NNE,22,5.0,7.0,88,0.00,,,0.00,0,MyOwnSoftware,2013-03-17 19:35:00,
2013-03-17 19:39:00,40.2,36.6,29.32,NNE,22,6.0,11.0,87,0.00,,,0.00,0,MyOwnSoftware,2013-03-17 19:39:00,
2013-03-17 19:40:00,40.2,36.6,29.32,NE,45,4.0,7.0,87,0.00,,,0.00,0,MyOwnSoftware,2013-03-17 19:40:00,
2013-03-17 19:41:00,40.2,36.9,29.32,North,0,7.0,13.0,88,0.00,,,0.00,0,MyOwnSoftware,2013-03-17 19:41:00,
2013-03-17 19:42:00,40.2,36.9,29.32,North,0,7.0,11.0,88,0.00,,,0.00,0,MyOwnSoftware,2013-03-17 19:42:00,
2013-03-17 19:43:00,40.1,37.1,29.32,NE,45,6.0,9.0,89,0.00,,,0.00,0,MyOwnSoftware,2013-03-17 19:43:00,
2013-03-17 19:44:00,40.1,37.1,29.32,East,90,6.0,8.0,89,0.00,,,0.00,0,MyOwnSoftware,2013-03-17 19:44:00,
2013-03-17 19:45:00,40.3,37.0,29.32,NE,45,5.0,7.0,88,0.00,,,0.00,0,MyOwnSoftware,2013-03-17 19:45:00,
2013-03-17 19:49:00,39.5,37.4,29.33,NNE,22,6.0,12.0,92,0.00,,,0.00,0,MyOwnSoftware,2013-03-17 19:49:00,
2013-03-17 19:50:00,39.5,37.6,29.33,NE,45,7.0,12.0,93,0.00,,,0.00,0,MyOwnSoftware,2013-03-17 19:50:00,
2013-03-17 19:51:00,39.3,37.4,29.33,North,0,6.0,8.0,93,0.00,,,0.00,0,MyOwnSoftware,2013-03-17 19:51:00,
2013-03-17 19:52:00,39.2,37.6,29.33,NE,45,7.0,12.0,94,0.00,,,0.00,0,MyOwnSoftware,2013-03-17 19:52:00,
2013-03-17 19:53:00,39.2,37.6,29.33,ENE,68,5.0,7.0,94,0.00,,,0.00,0,MyOwnSoftware,2013-03-17 19:53:00,
2013-03-17 19:54:00,39.2,37.6,29.33,NNE,22,4.0,6.0,94,0.00,,,0.00,0,MyOwnSoftware,2013-03-17 19:54:00,
2013-03-17 19:55:00,39.9,37.5,29.33,NNE,22,10.0,14.0,91,0.00,,,0.00,0,MyOwnSoftware,2013-03-17 19:55:00,
2013-03-17 19:56:00,39.1,37.8,29.33,East,90,5.0,6.0,95,0.00,,,0.00,0,MyOwnSoftware,2013-03-17 19:56:00,
2013-03-17 19:58:00,38.9,37.9,29.33,North,0,5.0,7.0,96,0.00,,,0.00,0,MyOwnSoftware,2013-03-17 19:58:00,
2013-03-17 19:59:00,38.9,37.9,29.33,NE,45,5.0,11.0,96,0.00,,,0.00,0,MyOwnSoftware,2013-03-17 19:59:00,
2013-03-17 20:00:00,38.9,37.9,29.33,NE,45,4.0,6.0,96,0.00,,,0.00,0,MyOwnSoftware,2013-03-17 20:00:00,
2013-03-17 20:01:00,38.8,37.8,29.33,NNE,22,5.0,10.0,96,0.00,,,0.00,0,MyOwnSoftware,2013-03-17 20:01:00,
2013-03-17 20:02:00,38.8,38.0,29.33,NE,45,6.0,10.0,97,0.00,,,0.00,0,MyOwnSoftware,2013-03-17 20:02:00,
2013-03-17 20:03:00,38.8,38.0,29.33,NE,45,7.0,10.0,97,0.00,,,0.00,0,MyOwnSoftware,2013-03-17 20:03:00,
2013-03-17 20:04:00,38.6,38.0,29.33,North,356,3.0,-999.0,97,-99.99,,,0.05,0,weatherlink.com 1.10,2013-03-17 20:04:00,
2013-03-17 20:09:00,38.6,38.1,29.33,NE,45,7.0,12.0,98,0.00,,,0.00,0,MyOwnSoftware,2013-03-17 20:09:00,
2013-03-17 20:10:00,38.5,38.0,29.33,NE,45,6.0,8.0,98,0.00,,,0.00,0,MyOwnSoftware,2013-03-17 20:10:00,
2013-03-17 20:11:00,38.5,38.2,29.33,NNE,22,6.0,8.0,99,0.00,,,0.00,0,MyOwnSoftware,2013-03-17 20:11:00,
2013-03-17 20:12:00,38.5,38.2,29.33,NE,45,6.0,10.0,99,0.00,,,0.00,0,MyOwnSoftware,2013-03-17 20:12:00,
2013-03-17 20:13:00,38.3,38.0,29.33,NNE,22,8.0,11.0,99,0.00,,,0.00,0,MyOwnSoftware,2013-03-17 20:13:00,
2013-03-17 20:14:00,38.3,38.0,29.33,NNE,22,6.0,10.0,99,0.00,,,0.00,0,MyOwnSoftware,2013-03-17 20:14:00,
2013-03-17 20:15:00,38.6,38.1,29.33,NE,45,5.0,11.0,98,0.00,,,0.00,0,MyOwnSoftware,2013-03-17 20:15:00,
2013-03-17 20:16:00,38.3,38.0,29.34,NE,45,3.0,5.0,99,0.00,,,0.00,0,MyOwnSoftware,2013-03-17 20:16:00,
2013-03-17 20:17:00,38.3,38.3,29.34,SE,135,4.0,8.0,100,0.00,,,0.00,0,MyOwnSoftware,2013-03-17 20:17:00,
2013-03-17 20:18:00,38.2,38.2,29.34,North,0,4.0,7.0,100,0.00,,,0.00,0,MyOwnSoftware,2013-03-17 20:18:00,
2013-03-17 20:19:00,38.2,38.2,29.34,North,0,4.0,8.0,100,0.00,,,0.01,0,MyOwnSoftware,2013-03-17 20:19:00,
2013-03-17 20:20:00,38.2,38.2,29.34,North,0,6.0,10.0,100,0.00,,,0.02,0,MyOwnSoftware,2013-03-17 20:20:00,
2013-03-17 20:21:00,38.2,38.2,29.34,NE,45,4.0,7.0,100,0.00,,,0.02,0,MyOwnSoftware,2013-03-17 20:21:00,
2013-03-17 20:22:00,38.2,38.2,29.34,NNE,22,2.0,5.0,100,0.00,,,0.02,0,MyOwnSoftware,2013-03-17 20:22:00,
2013-03-17 20:23:00,38.2,38.2,29.34,NNE,22,5.0,8.0,100,0.00,,,0.02,0,MyOwnSoftware,2013-03-17 20:23:00,
2013-03-17 20:24:00,38.0,38.0,29.34,NNE,22,4.0,5.0,100,0.00,,,0.02,0,MyOwnSoftware,2013-03-17 20:24:00,
2013-03-17 20:25:00,38.0,38.0,29.34,ENE,68,4.0,7.0,100,0.00,,,0.02,0,MyOwnSoftware,2013-03-17 20:25:00,
2013-03-17 20:29:00,37.9,37.9,29.34,North,0,4.0,6.0,100,0.00,,,0.00,0,MyOwnSoftware,2013-03-17 20:29:00,
2013-03-17 20:30:00,37.9,37.9,29.34,North,0,3.0,7.0,100,0.00,,,0.00,0,MyOwnSoftware,2013-03-17 20:30:00,
2013-03-17 20:31:00,37.9,37.9,29.34,North,0,4.0,7.0,100,0.00,,,0.00,0,MyOwnSoftware,2013-03-17 20:31:00,
2013-03-17 20:32:00,37.9,37.9,29.34,NNE,22,3.0,5.0,100,0.00,,,0.00,0,MyOwnSoftware,2013-03-17 20:32:00,
2013-03-17 20:33:00,37.9,37.9,29.34,SE,135,4.0,6.0,100,0.00,,,0.00,0,MyOwnSoftware,2013-03-17 20:33:00,
2013-03-17 20:34:00,37.9,38.0,29.34,NE,44,5.0,-999.0,100,-99.99,,,0.06,0,weatherlink.com 1.10,2013-03-17 20:34:00,
2013-03-17 20:35:00,37.9,37.9,29.34,ENE,68,3.0,6.0,100,0.00,,,0.00,0,MyOwnSoftware,2013-03-17 20:35:00,
2013-03-17 20:39:00,37.9,37.9,29.34,NNE,22,3.0,4.0,100,0.00,,,0.00,0,MyOwnSoftware,2013-03-17 20:39:00,
2013-03-17 20:40:00,37.8,37.8,29.34,ESE,112,3.0,4.0,100,0.00,,,0.00,0,MyOwnSoftware,2013-03-17 20:40:00,
2013-03-17 20:41:00,37.8,37.8,29.34,ENE,68,2.0,4.0,100,0.00,,,0.00,0,MyOwnSoftware,2013-03-17 20:41:00,
2013-03-17 20:42:00,37.8,37.8,29.34,East,90,4.0,6.0,100,0.00,,,0.00,0,MyOwnSoftware,2013-03-17 20:42:00,
2013-03-17 20:43:00,37.8,37.8,29.34,East,90,3.0,4.0,100,0.00,,,0.00,0,MyOwnSoftware,2013-03-17 20:43:00,
2013-03-17 20:44:00,37.8,37.8,29.34,North,0,4.0,8.0,100,0.00,,,0.00,0,MyOwnSoftware,2013-03-17 20:44:00,
2013-03-17 20:45:00,37.9,37.9,29.34,ENE,68,3.0,5.0,100,0.00,,,0.00,0,MyOwnSoftware,2013-03-17 20:45:00,
2013-03-17 20:49:00,37.8,37.8,29.34,NE,45,3.0,4.0,100,0.00,,,0.00,0,MyOwnSoftware,2013-03-17 20:49:00,
2013-03-17 20:50:00,37.8,37.8,29.34,NE,45,4.0,5.0,100,0.00,,,0.00,0,MyOwnSoftware,2013-03-17 20:50:00,
2013-03-17 20:51:00,37.8,37.8,29.34,NE,45,3.0,5.0,100,0.00,,,0.00,0,MyOwnSoftware,2013-03-17 20:51:00,
2013-03-17 20:52:00,37.8,37.8,29.34,NE,45,2.0,3.0,100,0.00,,,0.00,0,MyOwnSoftware,2013-03-17 20:52:00,
2013-03-17 20:53:00,37.8,37.8,29.34,NE,45,2.0,4.0,100,0.00,,,0.00,0,MyOwnSoftware,2013-03-17 20:53:00,
2013-03-17 20:54:00,37.8,37.8,29.34,NNE,22,2.0,3.0,100,0.00,,,0.00,0,MyOwnSoftware,2013-03-17 20:54:00,
2013-03-17 20:55:00,37.8,37.8,29.34,North,0,2.0,5.0,100,0.00,,,0.00,0,MyOwnSoftware,2013-03-17 20:55:00,
2013-03-17 20:56:00,37.8,37.8,29.34,NE,45,2.0,3.0,100,0.00,,,0.00,0,MyOwnSoftware,2013-03-17 20:56:00,
2013-03-17 20:57:00,37.8,37.8,29.34,NNE,22,3.0,6.0,100,0.00,,,0.00,0,MyOwnSoftware,2013-03-17 20:57:00,
2013-03-17 20:58:00,37.9,37.9,29.34,North,0,3.0,6.0,100,0.00,,,0.00,0,MyOwnSoftware,2013-03-17 20:58:00,
2013-03-17 20:59:00,37.9,37.9,29.34,NNE,22,3.0,6.0,100,0.00,,,0.00,0,MyOwnSoftware,2013-03-17 20:59:00,
2013-03-17 21:00:00,37.8,37.8,29.34,NNE,22,5.0,8.0,100,0.00,,,0.00,0,MyOwnSoftware,2013-03-17 21:00:00,
2013-03-17 21:01:00,37.8,37.8,29.34,NE,45,4.0,7.0,100,0.00,,,0.00,0,MyOwnSoftware,2013-03-17 21:01:00,
2013-03-17 21:02:00,37.8,37.8,29.34,NNE,22,4.0,6.0,100,0.00,,,0.00,0,MyOwnSoftware,2013-03-17 21:02:00,
2013-03-17 21:03:00,37.8,37.8,29.34,NNE,22,5.0,8.0,100,0.00,,,0.00,0,MyOwnSoftware,2013-03-17 21:03:00,
2013-03-17 21:04:00,37.8,38.0,29.34,NNE,20,2.0,-999.0,100,-99.99,,,0.07,0,weatherlink.com 1.10,2013-03-17 21:04:00,
2013-03-17 21:05:00,37.8,37.8,29.34,NNE,22,3.0,5.0,100,0.00,,,0.00,0,MyOwnSoftware,2013-03-17 21:05:00,
2013-03-17 21:09:00,37.8,37.8,29.34,NNE,22,3.0,3.0,100,0.00,,,0.00,0,MyOwnSoftware,2013-03-17 21:09:00,
2013-03-17 21:10:00,37.8,37.8,29.34,NE,45,3.0,5.0,100,0.00,,,0.00,0,MyOwnSoftware,2013-03-17 21:10:00,
2013-03-17 21:11:00,37.8,37.8,29.34,NNE,22,4.0,6.0,100,0.00,,,0.00,0,MyOwnSoftware,2013-03-17 21:11:00,
2013-03-17 21:12:00,37.8,37.8,29.34,NNE,22,4.0,5.0,100,0.00,,,0.00,0,MyOwnSoftware,2013-03-17 21:12:00,
2013-03-17 21:13:00,37.6,37.6,29.34,North,0,5.0,7.0,100,0.00,,,0.00,0,MyOwnSoftware,2013-03-17 21:13:00,
2013-03-17 21:14:00,37.6,37.6,29.34,North,0,3.0,4.0,100,0.00,,,0.01,0,MyOwnSoftware,2013-03-17 21:14:00,
2013-03-17 21:15:00,37.8,37.8,29.34,North,0,3.0,6.0,100,0.00,,,0.00,0,MyOwnSoftware,2013-03-17 21:15:00,
2013-03-17 21:16:00,37.6,37.6,29.34,North,0,2.0,4.0,100,0.00,,,0.01,0,MyOwnSoftware,2013-03-17 21:16:00,
2013-03-17 21:17:00,37.6,37.6,29.34,NE,45,3.0,5.0,100,0.00,,,0.01,0,MyOwnSoftware,2013-03-17 21:17:00,
2013-03-17 21:18:00,37.6,37.6,29.34,NNE,22,2.0,3.0,100,0.00,,,0.01,0,MyOwnSoftware,2013-03-17 21:18:00,
2013-03-17 21:19:00,37.6,37.6,29.34,NNE,22,2.0,3.0,100,0.00,,,0.01,0,MyOwnSoftware,2013-03-17 21:19:00,
2013-03-17 21:20:00,37.6,37.6,29.34,NNE,22,2.0,3.0,100,0.00,,,0.01,0,MyOwnSoftware,2013-03-17 21:20:00,
2013-03-17 21:21:00,37.6,37.6,29.34,North,0,2.0,5.0,100,0.00,,,0.01,0,MyOwnSoftware,2013-03-17 21:21:00,
2013-03-17 21:22:00,37.6,37.6,29.34,North,0,4.0,6.0,100,0.00,,,0.01,0,MyOwnSoftware,2013-03-17 21:22:00,
2013-03-17 21:23:00,37.6,37.6,29.34,NNE,22,4.0,6.0,100,0.00,,,0.01,0,MyOwnSoftware,2013-03-17 21:23:00,
2013-03-17 21:24:00,37.6,37.6,29.34,NE,45,3.0,5.0,100,0.00,,,0.01,0,MyOwnSoftware,2013-03-17 21:24:00,
2013-03-17 21:25:00,37.6,37.6,29.34,North,0,4.0,6.0,100,0.00,,,0.01,0,MyOwnSoftware,2013-03-17 21:25:00,
2013-03-17 21:29:00,37.6,37.6,29.34,North,0,5.0,8.0,100,0.00,,,0.00,0,MyOwnSoftware,2013-03-17 21:29:00,
2013-03-17 21:30:00,37.6,37.6,29.34,NNE,22,5.0,7.0,100,0.00,,,0.00,0,MyOwnSoftware,2013-03-17 21:30:00,
2013-03-17 21:31:00,37.8,37.8,29.34,North,0,5.0,7.0,100,0.00,,,0.00,0,MyOwnSoftware,2013-03-17 21:31:00,
2013-03-17 21:32:00,37.8,37.8,29.34,North,0,4.0,7.0,100,0.00,,,0.00,0,MyOwnSoftware,2013-03-17 21:32:00,
2013-03-17 21:33:00,37.8,37.8,29.34,North,0,3.0,5.0,100,0.00,,,0.00,0,MyOwnSoftware,2013-03-17 21:33:00,
2013-03-17 21:34:00,37.8,38.0,29.34,NNE,18,8.0,-999.0,100,-99.99,,,0.08,0,weatherlink.com 1.10,2013-03-17 21:34:00,
2013-03-17 21:35:00,37.8,37.8,29.34,North,0,6.0,10.0,100,0.00,,,0.00,0,MyOwnSoftware,2013-03-17 21:35:00,
2013-03-17 21:39:00,37.6,37.6,29.34,NNE,22,5.0,7.0,100,0.00,,,0.00,0,MyOwnSoftware,2013-03-17 21:39:00,
2013-03-17 21:40:00,37.6,37.6,29.34,NE,45,7.0,10.0,100,0.00,,,0.00,0,MyOwnSoftware,2013-03-17 21:40:00,
2013-03-17 21:41:00,37.6,37.6,29.34,NE,45,4.0,7.0,100,0.00,,,0.00,0,MyOwnSoftware,2013-03-17 21:41:00,
2013-03-17 21:42:00,37.6,37.6,29.34,NE,45,6.0,7.0,100,0.00,,,0.00,0,MyOwnSoftware,2013-03-17 21:42:00,
2013-03-17 21:43:00,37.6,37.6,29.34,NNE,22,6.0,11.0,100,0.00,,,0.00,0,MyOwnSoftware,2013-03-17 21:43:00,
2013-03-17 21:44:00,37.6,37.6,29.34,NNE,22,4.0,6.0,100,0.00,,,0.01,0,MyOwnSoftware,2013-03-17 21:44:00,
2013-03-17 21:45:00,37.8,37.8,29.34,NNE,22,5.0,9.0,100,0.00,,,0.00,0,MyOwnSoftware,2013-03-17 21:45:00,
2013-03-17 21:49:00,37.5,37.5,29.34,North,0,4.0,7.0,100,0.00,,,0.00,0,MyOwnSoftware,2013-03-17 21:49:00,
2013-03-17 21:50:00,37.5,37.5,29.34,North,0,5.0,7.0,100,0.00,,,0.00,0,MyOwnSoftware,2013-03-17 21:50:00,
2013-03-17 21:51:00,37.5,37.5,29.34,North,0,4.0,6.0,100,0.00,,,0.00,0,MyOwnSoftware,2013-03-17 21:51:00,
2013-03-17 21:52:00,37.5,37.5,29.34,North,0,4.0,6.0,100,0.00,,,0.00,0,MyOwnSoftware,2013-03-17 21:52:00,
2013-03-17 21:53:00,37.5,37.5,29.34,NNE,22,4.0,6.0,100,0.07,,,0.01,0,MyOwnSoftware,2013-03-17 21:53:00,
2013-03-17 21:54:00,37.5,37.5,29.34,NNE,22,3.0,6.0,100,0.07,,,0.01,0,MyOwnSoftware,2013-03-17 21:54:00,
2013-03-17 21:55:00,37.6,37.6,29.34,NNE,22,4.0,8.0,100,0.00,,,0.01,0,MyOwnSoftware,2013-03-17 21:55:00,
2013-03-17 21:56:00,37.5,37.5,29.34,North,0,4.0,7.0,100,0.07,,,0.01,0,MyOwnSoftware,2013-03-17 21:56:00,
2013-03-17 21:57:00,37.5,37.5,29.34,North,0,3.0,5.0,100,0.07,,,0.01,0,MyOwnSoftware,2013-03-17 21:57:00,
2013-03-17 21:58:00,37.5,37.5,29.34,NNW,338,4.0,5.0,100,0.07,,,0.01,0,MyOwnSoftware,2013-03-17 21:58:00,
2013-03-17 21:59:00,37.5,37.5,29.34,NNW,338,2.0,3.0,100,0.07,,,0.01,0,MyOwnSoftware,2013-03-17 21:59:00,
2013-03-17 22:00:00,37.5,37.5,29.33,NE,45,2.0,3.0,100,0.07,,,0.01,0,MyOwnSoftware,2013-03-17 22:00:00,
2013-03-17 22:01:00,37.6,37.6,29.33,NE,45,3.0,5.0,100,0.07,,,0.01,0,MyOwnSoftware,2013-03-17 22:01:00,
2013-03-17 22:02:00,37.6,37.6,29.33,North,0,4.0,7.0,100,0.06,,,0.01,0,MyOwnSoftware,2013-03-17 22:02:00,
2013-03-17 22:03:00,37.6,37.6,29.33,North,0,2.0,3.0,100,0.06,,,0.01,0,MyOwnSoftware,2013-03-17 22:03:00,
2013-03-17 22:04:00,37.8,38.0,29.33,North,0,3.0,-999.0,100,-99.99,,,0.10,0,weatherlink.com 1.10,2013-03-17 22:04:00,
2013-03-17 22:05:00,37.8,37.8,29.33,North,0,4.0,7.0,100,0.05,,,0.01,0,MyOwnSoftware,2013-03-17 22:05:00,
2013-03-17 22:09:00,37.9,37.9,29.33,North,0,4.0,8.0,100,0.04,,,0.00,0,MyOwnSoftware,2013-03-17 22:09:00,
2013-03-17 22:10:00,37.9,37.9,29.33,NNE,22,4.0,6.0,100,0.00,,,0.00,0,MyOwnSoftware,2013-03-17 22:10:00,
2013-03-17 22:11:00,38.0,38.0,29.33,North,0,6.0,7.0,100,0.00,,,0.00,0,MyOwnSoftware,2013-03-17 22:11:00,
2013-03-17 22:12:00,38.0,38.0,29.33,North,0,6.0,11.0,100,0.00,,,0.00,0,MyOwnSoftware,2013-03-17 22:12:00,
2013-03-17 22:13:00,38.0,38.0,29.33,North,0,6.0,10.0,100,0.00,,,0.00,0,MyOwnSoftware,2013-03-17 22:13:00,
2013-03-17 22:14:00,38.0,38.0,29.33,North,0,5.0,8.0,100,0.00,,,0.00,0,MyOwnSoftware,2013-03-17 22:14:00,
2013-03-17 22:15:00,37.8,37.8,29.33,NE,45,4.0,7.0,100,0.04,,,0.01,0,MyOwnSoftware,2013-03-17 22:15:00,
2013-03-17 22:16:00,38.0,38.0,29.33,NNE,22,4.0,6.0,100,0.00,,,0.00,0,MyOwnSoftware,2013-03-17 22:16:00,
2013-03-17 22:17:00,38.0,38.0,29.33,North,0,3.0,5.0,100,0.00,,,0.00,0,MyOwnSoftware,2013-03-17 22:17:00,
2013-03-17 22:18:00,38.0,38.0,29.33,North,0,3.0,6.0,100,0.00,,,0.00,0,MyOwnSoftware,2013-03-17 22:18:00,
2013-03-17 22:19:00,38.2,38.2,29.33,NNW,338,5.0,6.0,100,0.00,,,0.01,0,MyOwnSoftware,2013-03-17 22:19:00,
2013-03-17 22:20:00,38.2,38.2,29.33,North,0,3.0,7.0,100,0.00,,,0.02,0,MyOwnSoftware,2013-03-17 22:20:00,
2013-03-17 22:21:00,38.2,38.2,29.33,North,0,4.0,6.0,100,0.00,,,0.02,0,MyOwnSoftware,2013-03-17 22:21:00,
2013-03-17 22:22:00,38.2,38.2,29.33,NNW,338,2.0,3.0,100,0.00,,,0.02,0,MyOwnSoftware,2013-03-17 22:22:00,
2013-03-17 22:23:00,38.2,38.2,29.33,NNW,338,3.0,6.0,100,0.00,,,0.02,0,MyOwnSoftware,2013-03-17 22:23:00,
2013-03-17 22:24:00,38.3,38.3,29.33,NNE,22,3.0,6.0,100,0.00,,,0.02,0,MyOwnSoftware,2013-03-17 22:24:00,
2013-03-17 22:25:00,38.3,38.3,29.33,NNE,22,5.0,8.0,100,0.00,,,0.02,0,MyOwnSoftware,2013-03-17 22:25:00,
2013-03-17 22:29:00,38.5,38.5,29.33,NNE,22,4.0,5.0,100,0.00,,,0.00,0,MyOwnSoftware,2013-03-17 22:29:00,
2013-03-17 22:30:00,38.5,38.5,29.33,North,0,4.0,7.0,100,0.00,,,0.00,0,MyOwnSoftware,2013-03-17 22:30:00,
2013-03-17 22:31:00,38.5,38.5,29.33,North,0,4.0,6.0,100,0.00,,,0.00,0,MyOwnSoftware,2013-03-17 22:31:00,
2013-03-17 22:32:00,38.5,38.5,29.33,NE,45,4.0,5.0,100,0.00,,,0.00,0,MyOwnSoftware,2013-03-17 22:32:00,
2013-03-17 22:33:00,38.5,38.5,29.33,NE,45,3.0,4.0,100,0.00,,,0.00,0,MyOwnSoftware,2013-03-17 22:33:00,
2013-03-17 22:34:00,38.5,39.0,29.33,North,0,2.0,-999.0,100,-99.99,,,0.11,0,weatherlink.com 1.10,2013-03-17 22:34:00,
2013-03-17 22:35:00,38.5,38.5,29.33,North,0,2.0,4.0,100,0.00,,,0.00,0,MyOwnSoftware,2013-03-17 22:35:00,
2013-03-17 22:39:00,38.3,38.3,29.33,NE,45,3.0,6.0,100,0.00,,,0.00,0,MyOwnSoftware,2013-03-17 22:39:00,
2013-03-17 22:40:00,38.3,38.3,29.33,NNE,22,3.0,4.0,100,0.00,,,0.00,0,MyOwnSoftware,2013-03-17 22:40:00,
2013-03-17 22:41:00,38.3,38.3,29.33,ENE,68,3.0,4.0,100,0.00,,,0.00,0,MyOwnSoftware,2013-03-17 22:41:00,
2013-03-17 22:42:00,38.3,38.3,29.33,NE,45,3.0,4.0,100,0.00,,,0.00,0,MyOwnSoftware,2013-03-17 22:42:00,
2013-03-17 22:43:00,38.3,38.3,29.33,NE,45,5.0,6.0,100,0.00,,,0.00,0,MyOwnSoftware,2013-03-17 22:43:00,
2013-03-17 22:44:00,38.3,38.3,29.33,NNE,22,5.0,8.0,100,0.00,,,0.00,0,MyOwnSoftware,2013-03-17 22:44:00,
2013-03-17 22:45:00,38.5,38.5,29.33,North,0,3.0,5.0,100,0.00,,,0.00,0,MyOwnSoftware,2013-03-17 22:45:00,
2013-03-17 22:49:00,38.5,38.5,29.33,NE,45,4.0,6.0,100,0.00,,,0.00,0,MyOwnSoftware,2013-03-17 22:49:00,
2013-03-17 22:50:00,38.5,38.5,29.33,NE,45,4.0,6.0,100,0.00,,,0.00,0,MyOwnSoftware,2013-03-17 22:50:00,
2013-03-17 22:51:00,38.5,38.5,29.33,NNW,338,4.0,6.0,100,0.00,,,0.00,0,MyOwnSoftware,2013-03-17 22:51:00,
2013-03-17 22:52:00,38.5,38.5,29.33,NNE,22,4.0,6.0,100,0.00,,,0.00,0,MyOwnSoftware,2013-03-17 22:52:00,
2013-03-17 22:53:00,38.6,38.6,29.33,NNE,22,3.0,5.0,100,0.00,,,0.00,0,MyOwnSoftware,2013-03-17 22:53:00,
2013-03-17 22:54:00,38.6,38.6,29.33,North,0,5.0,8.0,100,0.00,,,0.00,0,MyOwnSoftware,2013-03-17 22:54:00,
2013-03-17 22:55:00,38.5,38.5,29.33,NE,45,3.0,6.0,100,0.00,,,0.00,0,MyOwnSoftware,2013-03-17 22:55:00,
2013-03-17 22:56:00,38.8,38.8,29.33,North,0,5.0,7.0,100,0.00,,,0.00,0,MyOwnSoftware,2013-03-17 22:56:00,
2013-03-17 22:57:00,38.8,38.8,29.33,NNE,22,3.0,4.0,100,0.00,,,0.00,0,MyOwnSoftware,2013-03-17 22:57:00,
2013-03-17 22:58:00,38.8,38.8,29.33,North,0,4.0,6.0,100,0.00,,,0.00,0,MyOwnSoftware,2013-03-17 22:58:00,
2013-03-17 22:59:00,38.9,38.9,29.33,NNE,22,4.0,7.0,100,0.00,,,0.00,0,MyOwnSoftware,2013-03-17 22:59:00,
2013-03-17 23:00:00,38.9,38.9,29.33,NNE,22,5.0,8.0,100,0.00,,,0.00,0,MyOwnSoftware,2013-03-17 23:00:00,
2013-03-17 23:01:00,38.9,38.9,29.33,NNE,22,3.0,5.0,100,0.00,,,0.00,0,MyOwnSoftware,2013-03-17 23:01:00,
2013-03-17 23:02:00,38.9,38.9,29.33,North,0,3.0,6.0,100,0.00,,,0.00,0,MyOwnSoftware,2013-03-17 23:02:00,
2013-03-17 23:03:00,39.1,39.1,29.33,North,0,5.0,7.0,100,0.00,,,0.00,0,MyOwnSoftware,2013-03-17 23:03:00,
2013-03-17 23:04:00,39.1,39.0,29.33,ENE,62,2.0,-999.0,100,-99.99,,,0.11,0,weatherlink.com 1.10,2013-03-17 23:04:00,
2013-03-17 23:05:00,39.1,39.1,29.33,North,0,4.0,6.0,100,0.00,,,0.00,0,MyOwnSoftware,2013-03-17 23:05:00,
2013-03-17 23:09:00,39.2,39.2,29.33,NNE,22,4.0,6.0,100,0.00,,,0.00,0,MyOwnSoftware,2013-03-17 23:09:00,
2013-03-17 23:10:00,39.3,39.3,29.33,NE,45,5.0,6.0,100,0.00,,,0.00,0,MyOwnSoftware,2013-03-17 23:10:00,
2013-03-17 23:11:00,39.3,39.3,29.33,NE,45,5.0,8.0,100,0.00,,,0.00,0,MyOwnSoftware,2013-03-17 23:11:00,
2013-03-17 23:12:00,39.3,39.3,29.33,NE,45,5.0,7.0,100,0.00,,,0.00,0,MyOwnSoftware,2013-03-17 23:12:00,
2013-03-17 23:13:00,39.5,39.5,29.33,NE,45,4.0,7.0,100,0.00,,,0.00,0,MyOwnSoftware,2013-03-17 23:13:00,
2013-03-17 23:14:00,39.5,39.5,29.33,North,0,6.0,11.0,100,0.00,,,0.00,0,MyOwnSoftware,2013-03-17 23:14:00,
2013-03-17 23:15:00,39.1,39.1,29.33,North,0,4.0,6.0,100,0.00,,,0.00,0,MyOwnSoftware,2013-03-17 23:15:00,
2013-03-17 23:16:00,39.6,39.6,29.34,North,0,5.0,6.0,100,0.00,,,0.00,0,MyOwnSoftware,2013-03-17 23:16:00,
2013-03-17 23:17:00,39.6,39.6,29.34,NNE,22,6.0,8.0,100,0.00,,,0.00,0,MyOwnSoftware,2013-03-17 23:17:00,
2013-03-17 23:18:00,39.8,39.8,29.34,North,0,6.0,8.0,100,0.00,,,0.00,0,MyOwnSoftware,2013-03-17 23:18:00,
2013-03-17 23:19:00,39.8,39.8,29.34,NE,45,5.0,7.0,100,0.00,,,0.00,0,MyOwnSoftware,2013-03-17 23:19:00,
2013-03-17 23:20:00,39.9,39.9,29.34,North,0,5.0,7.0,100,0.00,,,0.00,0,MyOwnSoftware,2013-03-17 23:20:00,
2013-03-17 23:21:00,39.9,39.9,29.34,NE,45,7.0,13.0,100,0.00,,,0.00,0,MyOwnSoftware,2013-03-17 23:21:00,
2013-03-17 23:22:00,39.9,39.9,29.34,North,0,7.0,10.0,100,0.00,,,0.00,0,MyOwnSoftware,2013-03-17 23:22:00,
2013-03-17 23:23:00,39.9,39.9,29.34,ENE,68,5.0,8.0,100,0.00,,,0.00,0,MyOwnSoftware,2013-03-17 23:23:00,
2013-03-17 23:24:00,39.9,39.9,29.34,NE,45,6.0,10.0,100,0.00,,,0.00,0,MyOwnSoftware,2013-03-17 23:24:00,
2013-03-17 23:25:00,39.9,39.9,29.34,NNE,22,5.0,8.0,100,0.00,,,0.00,0,MyOwnSoftware,2013-03-17 23:25:00,
2013-03-17 23:29:00,40.1,40.1,29.34,NNE,22,5.0,7.0,100,0.00,,,0.00,0,MyOwnSoftware,2013-03-17 23:29:00,
2013-03-17 23:30:00,40.1,40.1,29.34,NNE,22,4.0,8.0,100,0.00,,,0.00,0,MyOwnSoftware,2013-03-17 23:30:00,
2013-03-17 23:31:00,40.1,40.1,29.34,North,0,5.0,7.0,100,0.00,,,0.00,0,MyOwnSoftware,2013-03-17 23:31:00,
2013-03-17 23:32:00,40.1,40.1,29.34,North,0,5.0,8.0,100,0.00,,,0.00,0,MyOwnSoftware,2013-03-17 23:32:00,
2013-03-17 23:33:00,40.1,40.1,29.34,North,0,6.0,8.0,100,0.00,,,0.00,0,MyOwnSoftware,2013-03-17 23:33:00,
2013-03-17 23:34:00,40.1,40.0,29.34,North,0,7.0,-999.0,100,-99.99,,,0.11,0,weatherlink.com 1.10,2013-03-17 23:34:00,
2013-03-17 23:35:00,40.1,40.1,29.34,North,0,5.0,8.0,100,0.00,,,0.00,0,MyOwnSoftware,2013-03-17 23:35:00,
2013-03-17 23:39:00,40.1,40.1,29.34,North,0,5.0,7.0,100,0.00,,,0.00,0,MyOwnSoftware,2013-03-17 23:39:00,
2013-03-17 23:40:00,40.2,40.2,29.34,NNE,22,6.0,8.0,100,0.00,,,0.00,0,MyOwnSoftware,2013-03-17 23:40:00,
2013-03-17 23:41:00,40.2,40.2,29.34,North,0,6.0,10.0,100,0.00,,,0.00,0,MyOwnSoftware,2013-03-17 23:41:00,
2013-03-17 23:42:00,40.2,40.2,29.34,North,0,6.0,8.0,100,0.00,,,0.00,0,MyOwnSoftware,2013-03-17 23:42:00,
2013-03-17 23:43:00,40.2,40.2,29.34,North,0,6.0,11.0,100,0.00,,,0.00,0,MyOwnSoftware,2013-03-17 23:43:00,
2013-03-17 23:44:00,40.2,40.2,29.34,NE,45,6.0,8.0,100,0.00,,,0.00,0,MyOwnSoftware,2013-03-17 23:44:00,
2013-03-17 23:45:00,40.1,40.1,29.34,North,0,7.0,11.0,100,0.00,,,0.00,0,MyOwnSoftware,2013-03-17 23:45:00,
2013-03-17 23:49:00,40.2,40.2,29.34,NNE,22,7.0,11.0,100,0.00,,,0.00,0,MyOwnSoftware,2013-03-17 23:49:00,
2013-03-17 23:50:00,40.2,40.2,29.34,NE,45,7.0,9.0,100,0.00,,,0.00,0,MyOwnSoftware,2013-03-17 23:50:00,
2013-03-17 23:51:00,40.2,40.2,29.34,North,0,6.0,9.0,100,0.00,,,0.00,0,MyOwnSoftware,2013-03-17 23:51:00,
2013-03-17 23:52:00,40.2,40.2,29.34,North,0,6.0,10.0,100,0.00,,,0.00,0,MyOwnSoftware,2013-03-17 23:52:00,
2013-03-17 23:53:00,40.2,40.2,29.34,NE,45,8.0,12.0,100,0.00,,,0.00,0,MyOwnSoftware,2013-03-17 23:53:00,
2013-03-17 23:54:00,40.2,40.2,29.34,NNE,22,6.0,13.0,100,0.00,,,0.00,0,MyOwnSoftware,2013-03-17 23:54:00,
2013-03-17 23:55:00,40.2,40.2,29.34,NE,45,7.0,10.0,100,0.00,,,0.00,0,MyOwnSoftware,2013-03-17 23:55:00,
2013-03-17 23:56:00,40.2,40.2,29.34,NNE,22,8.0,12.0,100,0.00,,,0.00,0,MyOwnSoftware,2013-03-17 23:56:00,
2013-03-17 23:57:00,40.2,40.2,29.34,NNE,22,9.0,14.0,100,0.00,,,0.00,0,MyOwnSoftware,2013-03-17 23:57:00,
2013-03-17 23:58:00,40.2,40.2,29.34,North,0,7.0,10.0,100,0.00,,,0.00,0,MyOwnSoftware,2013-03-17 23:58:00,
2013-03-17 23:59:00,40.2,40.2,29.34,North,0,8.0,11.0,100,0.00,,,0.00,0,MyOwnSoftware,2013-03-17 23:59:00,